GFSSE_925_spd_000.txt.gz
Wind_Speed
22 25 23 24 24 24 22 21 20 19 18 16 15 14 14 13 11 11 10 10 9 10 10 11 11 11 10 9 7 5 6 6 6 8 8 10 10 10 11 13 13 13 11
26 26 25 24 24 23 22 21 19 18 16 15 14 13 12 11 10 10 10 9 10 12 13 14 13 12 11 10 9 8 8 7 7 9 10 10 11 12 12 11 12 11 10
27 26 25 25 24 23 22 20 19 17 15 14 13 11 10 10 10 10 10 10 11 12 13 12 12 11 10 10 10 8 9 9 8 9 10 13 13 11 9 11 10 11 10
26 25 25 23 23 22 21 20 17 15 15 14 11 10 10 10 9 10 10 11 10 12 12 11 12 11 11 12 12 12 12 12 11 9 9 11 13 13 11 11 10 11 7
25 23 23 23 22 22 21 19 16 15 14 12 10 10 10 9 8 10 10 10 10 11 12 11 11 12 11 12 13 13 14 15 15 13 12 12 12 11 13 12 15 13 8
23 21 21 22 22 21 19 17 16 14 13 11 10 9 8 8 9 10 10 9 10 12 12 12 12 12 12 12 13 14 15 16 16 15 14 14 12 11 13 15 17 11 7
21 20 20 21 21 19 18 16 15 13 12 11 10 8 7 7 9 10 10 10 12 13 15 14 14 15 15 15 16 16 14 15 17 15 14 14 12 11 13 15 15 9 6
23 21 19 18 18 18 16 15 14 13 12 10 9 7 7 8 10 10 11 12 13 13 15 16 16 16 15 15 16 17 18 15 16 15 15 15 12 10 14 14 12 10 9
19 20 19 17 16 16 15 14 13 12 11 10 9 8 8 9 10 11 10 11 11 11 11 13 15 15 15 16 17 18 18 19 17 15 15 15 14 12 10 12 13 13 12
18 17 17 17 17 16 15 13 13 12 11 9 8 8 8 8 8 7 7 7 7 7 7 8 9 12 14 15 17 18 19 19 19 19 17 13 13 13 11 11 13 16 17
16 17 18 18 18 16 16 14 13 12 11 10 10 9 8 7 6 6 4 4 4 4 4 4 5 6 8 9 10 12 15 17 18 18 19 18 15 12 12 13 14 17 19
17 20 20 18 17 17 15 14 13 13 12 11 11 9 8 6 4 3 3 2 3 4 6 7 8 8 9 11 12 13 13 14 16 16 16 17 17 16 14 13 14 17 18
25 22 20 17 16 15 15 14 14 13 13 11 9 9 7 4 3 3 3 3 4 5 7 9 9 8 10 12 15 16 14 15 17 17 18 18 17 18 18 15 15 15 17
25 22 20 17 14 13 13 14 13 13 12 10 9 7 4 2 1 2 1 3 4 5 7 10 11 11 12 14 15 15 13 13 13 15 16 18 20 21 20 21 20 18 16
24 22 20 16 14 12 11 11 11 10 9 8 7 5 4 3 2 0 1 3 4 7 9 11 13 13 12 11 13 13 11 14 15 16 15 15 16 19 22 25 25 24 23
21 21 18 14 10 7 5 8 11 12 10 10 10 7 5 4 3 2 2 3 6 10 14 15 14 10 8 9 8 9 12 16 19 22 20 17 16 16 18 21 22 25 27
20 18 16 15 8 4 3 10 15 17 17 16 13 9 4 1 4 3 2 5 9 12 11 8 7 8 9 10 12 13 14 17 21 24 22 17 15 14 15 16 18 23 26
12 14 14 15 13 10 8 13 8 18 10 4 8 10 9 5 3 4 7 10 10 8 7 8 8 10 11 14 15 17 17 19 22 17 12 12 12 11 13 17 18 17 18
12 17 21 18 10 8 5 10 4 7 12 10 7 5 4 5 8 11 11 8 7 6 9 10 12 14 13 16 18 15 19 20 14 9 10 11 11 13 15 19 22 23 23
21 24 24 18 13 7 7 13 12 11 8 4 3 4 6 7 7 8 7 7 6 8 9 11 12 14 15 18 18 16 18 9 11 8 12 12 11 13 16 21 26 28 29
27 24 18 15 16 21 21 12 6 3 2 2 5 5 6 7 6 6 6 7 9 10 10 12 14 16 17 19 9 21 14 2 7 11 12 15 13 17 20 25 30 31 31
24 19 20 21 21 16 9 2 1 1 4 2 4 6 6 7 7 9 11 13 13 12 11 12 15 16 10 14 8 6 3 5 3 17 10 20 16 23 22 26 29 30 30
27 25 22 17 14 9 9 8 5 2 2 0 3 5 7 7 8 11 16 17 14 10 6 9 12 15 8 8 9 6 3 2 7 8 19 12 27 21 24 29 28 26 27
20 17 15 13 11 8 5 4 3 2 1 2 3 7 10 12 15 21 24 17 12 4 5 8 8 9 7 8 6 7 6 4 2 3 6 20 18 24 28 27 26 26 26
12 12 9 8 6 4 3 3 3 2 3 3 4 6 18 23 23 21 22 19 10 3 3 3 4 5 7 5 4 5 5 8 6 4 6 11 18 17 19 26 26 23 22
9 8 8 6 7 6 6 10 11 10 7 5 8 13 19 21 23 25 19 8 3 4 6 7 9 8 6 6 6 6 6 3 6 3 3 8 14 16 25 16 19 24 20

GFSSE_925_spd_003.txt.gz
Wind_Speed
17 20 24 24 25 25 24 23 21 20 19 18 17 15 13 12 10 9 8 7 7 9 12 11 11 11 10 9 10 9 9 8 8 8 8 8 9 8 10 11 11 12 13
22 20 23 24 25 25 23 22 21 19 17 16 15 13 11 10 8 7 7 8 10 12 12 12 11 11 11 11 11 11 11 11 11 11 9 9 9 9 8 11 10 10 9
20 20 22 23 24 24 22 21 20 17 16 16 14 12 11 9 8 8 9 10 11 12 12 12 13 13 13 14 14 14 14 13 13 13 12 10 10 10 7 9 9 9 8
25 22 23 22 22 22 21 20 18 17 16 14 12 11 10 9 8 9 9 10 11 11 11 12 12 13 14 14 16 16 16 15 15 14 11 13 12 10 7 8 7 11 6
24 25 25 23 21 21 19 17 16 15 14 13 11 11 10 9 9 10 9 9 10 11 11 12 12 13 14 15 16 15 15 16 16 15 12 13 12 10 8 10 13 10 4
22 23 24 21 20 20 18 16 15 14 13 11 10 10 9 9 9 9 10 9 11 12 12 13 13 14 15 15 17 17 15 17 16 14 13 13 12 11 10 11 12 8 6
20 20 21 19 19 18 16 14 14 13 11 11 9 8 8 9 10 10 10 11 13 15 14 15 15 15 15 15 17 18 18 17 16 13 13 14 13 10 11 12 10 9 7
22 19 18 18 17 16 14 12 12 12 12 11 9 7 8 10 10 10 9 11 10 12 13 14 14 14 15 15 16 17 18 19 19 16 15 13 13 11 10 8 8 8 8
18 17 16 15 15 13 12 12 12 11 11 9 8 8 10 10 10 9 9 9 8 8 9 11 11 12 13 12 14 15 16 16 17 17 17 12 13 13 9 8 7 7 9
16 15 14 14 13 13 12 11 10 9 9 8 7 8 9 10 9 8 6 5 5 6 5 5 5 5 6 7 9 10 11 13 15 15 14 14 15 12 10 8 8 8 9
17 15 13 12 14 14 12 10 8 8 8 7 8 8 8 7 7 4 2 3 3 3 3 5 6 7 6 7 10 13 14 12 14 13 12 15 15 14 12 10 9 10 10
14 13 12 12 11 9 9 8 8 7 6 6 8 7 6 4 3 1 1 0 0 1 4 7 9 8 8 9 11 14 14 15 13 13 12 14 15 16 14 13 13 13 14
12 12 13 10 9 7 4 4 3 3 4 4 6 4 3 2 3 1 1 0 2 2 4 8 10 10 9 10 12 12 13 12 11 11 12 13 15 15 16 15 14 15 16
13 10 10 8 6 6 3 2 0 0 2 2 2 4 5 4 2 2 2 1 1 4 7 10 11 13 12 11 10 10 10 10 11 12 13 15 15 14 15 17 17 16 15
13 12 10 8 7 7 5 3 1 5 6 8 8 9 8 6 4 1 2 2 3 5 8 10 12 11 9 8 8 8 9 11 13 14 14 17 17 18 18 18 18 19 17
14 12 11 10 10 10 13 11 6 6 13 14 10 8 11 8 4 3 3 3 5 8 10 10 9 5 5 5 6 7 10 12 14 15 13 14 16 16 16 16 16 15 15
13 17 15 15 15 17 15 14 11 15 14 21 14 11 10 4 4 2 4 7 8 7 5 4 4 4 4 7 8 10 11 13 14 12 10 11 11 11 10 10 12 15 19
18 20 20 22 15 9 12 16 12 18 18 11 6 3 6 3 2 4 5 4 2 2 3 3 4 5 6 9 11 11 12 12 8 4 5 4 5 5 8 10 12 15 19
22 24 23 17 10 5 15 13 7 8 5 6 5 5 5 3 3 5 4 2 1 1 2 3 5 7 7 10 13 11 14 12 5 2 3 3 4 6 7 12 15 17 20
24 27 25 16 13 10 7 4 9 8 5 4 7 6 5 5 4 4 3 2 3 4 6 7 8 8 7 10 13 11 14 9 4 3 6 6 6 8 9 11 14 16 22
27 28 22 18 11 9 15 17 11 5 2 3 3 3 3 3 4 4 5 7 9 11 13 13 11 10 9 12 11 14 13 7 4 3 6 8 8 11 12 14 16 19 20
27 24 20 16 18 19 19 11 4 4 4 3 1 3 4 4 5 7 11 15 14 12 11 9 7 6 6 8 9 12 7 9 11 9 11 12 12 14 16 19 22 23 23
20 20 21 21 22 12 7 7 6 5 4 1 2 3 6 11 13 14 17 15 14 13 7 3 4 6 8 7 7 6 5 5 14 10 16 15 18 21 20 20 20 22 23
21 20 19 17 11 8 5 4 4 4 4 5 5 5 9 12 14 16 16 16 13 7 2 1 4 7 8 9 9 6 7 10 6 9 13 19 18 21 20 19 22 21 22
20 15 15 13 10 8 9 11 12 13 12 10 7 9 13 15 18 19 18 18 13 5 2 1 3 4 6 6 6 7 8 9 10 9 11 16 19 17 17 20 16 18 20
16 15 16 15 16 17 19 19 17 13 10 10 12 14 16 21 23 21 20 17 9 7 3 1 3 3 2 2 4 4 8 10 11 10 9 16 19 20 20 20 19 19 21

GFSSE_925_spd_006.txt.gz
Wind_Speed
20 23 23 23 24 24 23 21 21 19 18 16 15 14 14 12 10 9 9 9 11 12 12 12 12 11 12 12 13 12 13 13 12 10 8 9 9 9 9 11 10 9 12
21 22 23 23 23 23 23 21 19 17 16 15 14 12 11 10 9 8 9 10 12 12 12 12 12 13 13 14 14 15 15 14 13 12 11 9 8 9 7 9 10 9 10
21 21 22 23 23 22 21 20 18 16 15 13 12 11 10 9 8 9 10 11 11 10 11 11 12 14 14 15 15 15 16 16 15 14 14 8 7 10 10 9 9 10 9
21 22 22 23 22 22 20 17 16 15 14 12 10 10 9 8 9 10 11 10 10 9 10 10 12 12 14 16 15 15 16 17 16 16 11 10 8 9 7 8 10 9 5
20 22 22 23 22 21 18 16 13 13 12 10 9 9 8 8 10 10 10 10 8 8 9 10 13 14 15 17 18 17 17 17 17 13 11 11 9 9 8 8 8 6 3
20 20 22 22 20 18 17 15 14 13 11 10 9 9 7 8 9 10 9 9 9 10 11 14 14 14 15 16 18 19 19 18 15 12 11 11 10 10 10 7 7 7 6
17 17 21 18 16 16 14 13 13 12 9 8 8 8 7 8 9 9 10 10 11 12 13 14 13 13 14 15 16 17 18 18 15 13 11 10 10 11 9 8 6 4 4
16 16 18 15 15 13 11 11 10 9 8 7 7 6 7 9 9 9 10 10 9 11 11 11 11 11 11 12 13 15 16 15 13 13 12 10 12 11 8 7 5 5 6
17 16 16 15 14 12 9 9 8 6 6 5 5 5 7 8 8 9 8 7 7 7 7 7 7 7 7 8 9 10 11 14 13 12 10 10 13 11 9 7 6 5 7
14 14 14 13 11 10 10 6 5 5 4 3 4 6 7 6 6 6 6 3 4 3 3 3 4 4 4 6 9 12 13 12 13 11 9 8 11 11 9 8 7 7 8
14 13 11 11 10 9 9 7 3 2 3 3 3 4 5 3 2 1 1 2 1 1 1 4 6 7 8 10 13 14 14 15 13 12 11 10 12 10 8 8 9 9 10
14 11 10 9 8 8 6 7 6 5 3 3 3 2 2 2 2 3 3 2 3 3 3 5 6 8 9 11 12 14 14 13 11 11 9 11 12 12 11 10 9 10 11
13 10 9 9 9 7 7 7 7 5 5 4 3 2 2 4 5 6 4 4 4 4 4 6 6 7 10 11 12 11 11 11 10 10 9 12 11 12 12 12 11 10 10
13 11 10 9 9 8 8 9 8 7 5 5 2 3 3 5 7 8 6 5 3 4 4 6 7 8 9 10 8 8 8 9 10 11 10 12 12 12 12 12 13 13 12
14 13 11 10 11 9 10 9 7 5 2 1 2 4 3 1 8 11 9 6 4 4 5 7 8 10 11 11 9 9 9 9 10 11 11 13 12 12 12 12 12 12 13
15 14 13 13 14 14 13 10 8 7 7 6 3 4 4 5 5 16 12 8 5 4 6 8 10 11 11 11 11 11 11 11 11 11 12 11 13 12 11 12 11 11 11
16 17 16 17 16 15 13 11 9 9 11 7 5 5 12 10 9 14 9 7 5 4 5 7 8 9 11 12 13 14 14 13 13 11 11 12 12 13 12 9 8 10 11
18 18 18 17 15 11 7 14 9 14 7 3 8 7 5 6 6 6 5 4 4 5 5 6 8 10 12 13 14 15 16 15 14 13 13 13 14 15 15 15 13 12 12
19 20 19 17 15 8 2 8 1 5 6 5 6 5 4 4 4 1 2 2 4 5 6 7 9 10 11 13 15 18 19 20 21 21 18 15 12 10 12 13 16 15 17
19 19 18 15 13 7 2 2 7 7 5 6 5 5 4 3 3 2 3 4 5 7 8 9 10 12 13 14 17 21 20 22 22 20 15 14 13 12 12 13 15 15 18
20 20 19 15 9 5 5 7 6 3 3 4 4 5 4 3 4 4 4 6 8 10 11 11 13 16 16 14 19 19 20 21 12 16 15 16 16 14 16 17 18 19 21
21 18 14 12 10 9 8 6 2 2 4 5 4 3 4 5 5 7 9 11 12 15 15 13 11 12 13 10 15 20 10 17 18 11 18 19 18 17 21 20 20 20 21
18 16 14 13 12 8 4 3 4 5 4 1 3 4 5 7 9 10 11 12 13 14 16 11 8 8 11 12 10 12 9 11 20 22 15 20 17 20 20 20 20 20 20
15 14 16 15 9 6 5 7 8 6 4 4 5 6 8 10 12 14 15 15 15 15 14 10 8 6 7 12 14 15 14 16 11 12 21 21 23 20 21 20 19 21 21
16 16 15 14 11 10 11 10 8 7 6 5 7 11 13 15 16 18 18 18 18 15 12 8 6 6 10 11 18 16 16 16 16 14 12 18 21 19 19 18 20 19 22
14 14 14 15 14 13 13 12 11 9 8 9 11 13 15 18 19 19 19 19 17 13 9 6 4 7 11 12 11 11 12 13 14 15 12 17 19 22 19 21 19 21 22

GFSSE_925_spd_009.txt.gz
Wind_Speed
23 24 24 23 23 23 22 21 20 19 18 16 14 13 12 12 12 12 12 13 14 15 15 13 14 14 15 15 15 13 13 13 11 9 5 5 6 8 9 9 12 12 14
24 25 24 24 24 22 21 20 19 18 16 15 13 11 11 11 11 11 12 13 13 13 13 14 15 15 15 15 15 15 14 14 13 12 6 2 9 9 8 9 9 11 12
24 25 23 24 24 23 20 19 18 16 15 13 12 11 10 10 10 11 12 12 12 12 13 13 14 15 16 15 16 16 15 15 13 9 11 3 11 9 8 8 9 9 7
25 25 22 23 22 22 19 17 16 13 14 11 10 10 10 9 10 11 11 11 11 11 12 12 15 17 19 19 19 18 17 15 14 13 11 9 13 12 9 9 11 8 6
21 23 24 22 21 19 16 14 13 13 13 11 10 10 10 9 10 11 10 10 11 11 12 14 15 16 17 17 19 20 19 13 12 11 11 10 11 13 10 9 10 9 5
21 22 26 20 20 18 15 13 12 12 12 10 9 9 9 9 9 9 9 11 12 12 13 13 13 13 13 15 17 18 19 16 17 13 11 10 11 11 10 9 8 8 8
20 20 27 20 19 16 12 12 12 12 11 9 8 8 8 9 8 10 10 12 12 11 11 11 10 11 13 15 17 18 19 16 13 14 12 14 12 11 9 9 7 8 8
15 21 24 20 14 13 11 12 12 10 10 8 7 7 8 9 9 9 9 9 10 10 9 9 9 10 12 13 15 16 16 18 15 13 10 14 13 11 9 9 7 7 8
25 22 20 18 16 13 12 12 11 10 9 8 7 8 7 8 9 8 6 5 5 6 6 7 7 8 9 11 14 16 15 11 16 14 12 9 11 10 9 8 8 8 8
13 20 19 16 16 15 14 11 10 9 8 8 7 8 9 8 7 7 6 3 3 4 4 6 7 8 8 7 9 17 16 16 17 13 10 10 10 9 7 6 7 8 9
16 17 15 14 13 13 12 10 8 8 8 9 8 9 5 3 4 2 3 4 3 4 6 8 8 7 8 10 5 16 15 17 15 15 10 13 13 12 10 8 7 7 9
17 16 14 13 13 12 11 10 9 7 7 7 6 5 4 2 2 2 3 6 6 8 7 8 9 8 9 12 11 16 15 15 16 14 9 13 13 13 12 11 9 9 8
16 13 12 12 11 9 10 10 9 7 7 7 6 4 3 2 3 2 3 5 5 7 8 10 9 11 11 12 13 13 14 15 16 14 12 12 12 12 11 10 10 9 9
13 12 10 11 10 10 10 10 10 9 7 6 3 2 1 0 2 2 3 8 9 9 10 11 12 11 12 13 12 13 14 14 15 15 12 12 12 11 10 9 10 10 11
16 15 13 12 12 12 12 12 10 9 7 4 1 1 0 2 1 3 4 3 9 12 12 13 15 14 16 16 15 13 14 16 15 15 16 13 11 13 11 10 10 9 10
18 16 15 15 14 14 14 13 10 7 4 4 2 3 5 4 6 7 6 6 10 12 13 13 13 13 14 15 15 15 15 16 15 14 16 16 13 12 15 15 13 9 10
18 19 19 19 17 17 14 11 6 5 8 6 3 1 4 3 3 5 3 8 11 8 10 12 12 13 15 15 17 17 18 19 18 17 17 17 12 13 10 11 10 12 13
19 19 19 18 18 15 12 8 5 4 5 5 7 7 4 2 1 3 4 4 6 6 8 10 12 13 16 18 20 19 20 21 21 21 21 19 17 18 17 7 14 21 18
18 20 19 18 16 10 5 4 5 8 9 6 7 5 6 5 4 2 3 4 7 9 11 12 13 15 17 20 22 21 24 28 22 22 23 23 16 14 12 18 18 18 11
18 18 18 16 13 7 3 7 9 10 7 6 6 6 5 4 4 4 4 5 8 11 13 14 17 18 19 21 23 21 27 22 23 24 16 18 16 15 16 14 19 19 23
18 18 17 14 10 8 7 8 8 7 6 6 6 5 5 5 5 6 7 10 13 14 16 17 18 19 22 23 19 20 21 25 20 22 17 13 16 19 19 19 20 20 22
18 17 16 12 10 9 8 6 4 4 5 6 5 5 5 6 7 9 11 13 15 17 18 19 19 19 19 19 18 17 11 18 22 23 25 24 23 17 19 19 20 21 20
17 17 15 13 13 9 8 6 6 6 5 3 3 3 6 7 10 12 14 16 17 19 20 20 19 15 18 17 17 15 12 11 21 23 24 25 26 23 21 21 22 21 21
18 16 15 15 12 7 6 6 6 7 7 5 4 6 9 10 13 15 17 18 18 19 20 19 16 11 17 16 17 18 20 22 13 14 20 21 21 23 21 23 21 21 23
18 17 17 14 11 10 10 8 6 6 4 3 5 8 11 13 14 15 16 18 18 18 18 16 14 14 14 16 17 18 18 19 20 18 13 20 23 23 21 21 19 23 22
18 16 16 15 13 12 12 11 10 8 4 4 6 8 10 12 13 14 15 17 17 17 15 14 9 10 10 14 15 14 16 18 18 18 13 20 21 25 22 22 23 23 24

GFSSE_925_spd_012.txt.gz
Wind_Speed
29 31 26 25 23 23 23 22 21 20 19 17 16 16 16 16 16 16 18 19 19 19 19 18 17 17 17 17 16 15 15 14 10 7 5 5 6 7 8 10 13 14 15
32 31 27 26 25 24 24 22 21 19 18 16 16 15 15 15 16 16 17 18 18 19 17 17 17 17 18 17 17 16 15 13 11 8 5 6 9 10 12 12 12 12 12
27 30 27 25 25 24 23 22 20 19 17 16 16 15 15 15 16 16 17 17 17 17 16 17 18 21 22 22 22 20 15 13 12 14 12 7 12 12 13 13 12 10 10
31 28 27 25 24 24 23 21 19 18 18 16 16 15 15 15 15 15 16 16 16 16 17 17 19 20 21 22 22 21 15 16 15 14 15 13 16 17 14 13 13 10 10
27 24 24 24 23 22 23 19 19 17 17 16 15 15 14 14 14 14 14 15 16 17 17 17 17 18 19 21 23 23 17 18 24 16 12 10 14 15 13 10 9 11 10
24 23 25 22 21 21 20 19 18 17 16 16 14 13 13 13 12 14 14 15 16 17 16 16 16 17 18 21 24 24 20 18 20 18 11 11 14 12 12 11 11 10 10
24 27 22 19 18 20 17 20 18 16 15 15 13 12 13 12 12 14 15 15 15 15 14 13 14 14 15 18 21 21 23 23 24 13 9 15 14 12 12 11 10 10 10
25 24 22 13 15 18 19 21 17 16 15 13 12 12 12 12 12 13 13 13 13 12 10 10 11 10 12 14 19 21 18 19 22 19 13 17 14 13 11 10 10 10 11
23 20 24 19 16 14 18 20 17 15 13 11 12 13 12 12 12 11 9 9 9 8 8 8 8 9 10 10 13 20 19 20 19 15 12 14 13 11 10 10 10 10 10
23 19 23 19 10 19 19 17 16 14 13 12 14 13 14 13 11 9 8 5 5 6 7 9 10 10 11 9 7 16 18 18 16 16 13 15 15 13 11 8 8 9 10
21 16 18 21 18 17 17 17 16 14 14 14 14 11 10 6 6 7 5 3 4 5 6 8 10 9 12 18 8 17 17 17 19 15 11 13 15 14 13 13 10 10 10
28 20 21 22 20 19 16 18 15 15 13 9 8 5 9 6 4 2 2 4 4 7 8 6 9 10 11 13 14 14 15 14 18 17 13 14 14 12 12 13 13 12 10
23 21 18 20 17 19 18 17 15 13 12 10 8 3 8 5 7 4 4 5 5 7 7 10 12 6 12 11 12 10 12 14 16 16 20 12 14 12 9 10 12 13 14
20 22 20 17 18 18 17 16 16 13 12 9 7 4 5 3 5 2 2 4 8 14 11 12 12 12 14 17 13 15 13 13 16 14 17 16 15 13 11 8 8 11 14
19 17 19 16 17 13 19 15 17 12 11 8 2 3 6 3 2 3 7 8 10 12 13 12 16 16 16 15 16 13 16 16 16 14 14 19 17 12 10 7 9 11 12
22 21 21 18 18 17 17 17 14 12 8 7 5 2 2 2 2 4 4 3 4 7 11 13 13 12 13 15 15 16 16 18 17 17 13 14 21 11 8 6 8 11 12
22 21 21 21 19 19 18 14 11 10 9 5 6 5 4 5 4 2 6 9 9 10 13 13 15 15 12 15 18 19 18 17 18 21 20 19 21 16 8 7 7 12 16
22 21 20 20 20 19 17 9 3 8 11 7 10 9 8 9 8 9 8 8 10 11 11 9 12 12 17 18 17 21 15 17 22 25 18 19 21 17 5 5 10 15 13
24 23 20 23 20 19 11 9 7 10 11 13 13 11 10 10 9 7 3 5 10 10 11 12 13 17 18 20 21 23 17 20 21 25 23 25 16 11 9 10 12 15 8
25 22 21 20 16 12 10 11 11 13 13 14 12 9 11 10 8 5 9 9 8 11 12 16 16 15 16 16 21 23 16 12 20 22 16 18 20 16 17 17 12 10 16
26 23 21 19 15 13 16 17 16 16 13 13 10 10 8 9 8 9 6 9 11 12 15 15 17 14 15 16 18 17 18 16 17 18 22 24 23 22 18 14 13 16 17
25 24 21 20 15 14 14 14 12 19 17 13 10 10 8 7 7 7 9 11 12 13 15 15 17 18 13 12 16 18 4 11 12 24 25 23 21 23 18 21 19 15 12
26 25 21 18 16 12 16 12 11 12 11 13 10 10 9 7 7 8 10 11 13 13 13 16 17 16 9 12 13 13 4 4 14 14 19 19 19 19 20 18 18 14 14
23 21 22 20 16 12 9 15 13 12 14 11 8 8 6 6 7 9 11 13 15 14 15 15 14 15 10 10 13 12 17 18 6 8 6 15 20 22 21 19 16 15 17
22 20 19 20 15 12 12 13 13 15 13 11 8 5 5 7 7 8 10 13 15 15 15 16 15 6 5 10 13 16 15 16 16 11 7 12 19 21 25 18 19 21 21
23 20 22 19 16 15 15 16 18 15 11 9 5 3 6 7 8 9 10 12 13 14 14 7 5 6 8 8 10 10 16 13 12 12 6 13 15 19 19 21 19 19 20

GFSSE_925_spd_015.txt.gz
Wind_Speed
26 26 24 24 24 24 25 25 24 24 23 23 22 22 22 22 22 21 22 22 22 22 22 21 21 22 23 21 20 18 18 18 15 12 12 11 11 12 13 12 11 13 14
33 23 24 25 25 26 25 25 24 23 23 22 22 22 21 22 22 20 21 21 21 22 22 22 24 25 25 24 21 19 18 19 16 11 12 13 14 14 13 14 13 13 13
38 27 27 28 27 27 26 25 24 23 23 22 22 22 22 22 20 20 20 20 22 22 21 22 24 25 26 23 20 19 21 25 16 17 17 16 16 14 14 15 14 12 12
39 34 31 31 28 27 25 24 23 23 22 22 21 21 22 21 20 20 20 21 21 20 20 21 23 25 26 25 21 21 25 29 18 20 17 14 14 15 13 13 14 13 12
32 33 31 30 29 26 25 23 23 23 23 21 20 20 20 20 20 20 21 22 20 19 19 20 22 23 26 27 26 23 26 28 16 14 13 15 16 15 14 13 12 12 12
30 32 29 28 27 25 23 23 23 24 22 21 20 19 19 20 20 21 21 21 19 18 17 18 19 20 23 26 23 25 24 27 13 15 18 19 19 15 14 12 12 12 13
34 29 27 26 25 24 23 22 22 21 21 20 19 19 18 19 20 21 20 19 17 16 15 15 16 17 19 22 22 23 21 29 20 13 15 17 16 16 14 12 12 12 13
35 28 26 26 24 24 18 20 19 19 20 19 19 19 18 19 19 19 18 16 15 13 12 12 12 13 14 17 20 22 19 28 17 10 13 15 13 13 13 12 12 12 13
27 23 21 17 30 22 16 19 20 19 19 18 20 19 18 17 16 15 14 13 12 10 11 11 11 11 13 12 16 20 18 22 17 13 13 15 13 12 10 10 10 11 11
24 19 19 13 18 15 19 19 18 18 18 19 20 20 18 17 14 13 9 9 8 9 9 10 12 11 15 18 7 17 18 17 24 10 13 15 13 13 12 10 10 10 10
26 28 22 22 20 21 21 18 19 18 20 21 20 18 16 14 12 11 10 8 7 7 7 10 10 10 10 12 11 11 12 13 18 16 16 14 13 12 12 11 11 11 11
35 24 32 25 18 20 21 20 20 21 20 18 16 14 13 11 9 7 7 5 5 6 8 8 11 6 11 11 10 10 10 9 13 17 17 15 15 10 9 10 10 10 12
31 33 27 24 23 21 22 21 19 17 16 14 9 12 12 13 12 10 7 9 12 11 11 10 12 12 13 13 13 14 12 11 14 13 12 14 15 11 8 9 9 10 12
28 29 28 28 24 21 23 21 19 18 15 14 11 13 10 9 7 5 6 6 7 9 8 7 10 11 13 14 14 14 15 13 14 16 12 14 14 12 4 4 6 8 10
29 30 26 25 25 22 20 20 20 16 16 14 11 11 7 5 6 7 9 8 8 6 6 8 10 12 13 12 11 14 14 15 13 16 15 11 13 16 6 3 6 8 10
29 29 27 23 20 26 26 23 18 17 17 12 9 8 9 7 7 7 6 5 6 8 10 12 12 11 11 12 12 14 15 11 11 13 17 20 15 13 7 2 5 7 8
32 29 26 24 25 24 22 20 16 16 11 10 10 7 7 6 7 9 6 4 7 9 12 12 8 6 6 10 12 13 17 10 13 14 15 23 19 15 8 1 5 7 9
32 26 31 24 27 24 20 16 13 13 11 10 12 13 14 14 12 8 3 6 9 7 8 5 5 7 13 14 12 13 16 18 15 17 19 18 23 16 4 2 9 7 9
29 29 26 29 26 23 18 10 13 11 16 17 16 15 12 11 10 7 5 6 7 5 6 8 10 13 13 10 11 13 16 11 12 15 15 19 19 20 11 5 7 5 8
32 29 30 27 25 20 17 15 18 20 19 18 16 14 10 8 9 10 6 7 6 4 7 11 13 11 10 12 10 10 9 14 9 13 18 19 20 19 18 12 16 14 13
35 32 30 28 23 20 20 21 22 22 24 17 14 13 13 13 9 5 1 4 6 9 10 11 9 12 14 8 7 12 11 5 11 15 15 17 18 18 17 19 16 15 12
38 35 31 26 23 23 23 27 27 28 20 15 16 13 9 6 5 4 4 5 6 8 9 8 11 13 10 6 6 5 3 6 12 17 19 23 15 18 19 21 18 11 10
38 37 34 28 22 24 23 27 26 25 22 21 19 14 12 9 6 2 4 6 8 10 9 10 10 5 5 4 8 6 3 1 5 4 12 14 17 18 19 20 17 11 15
33 37 34 29 22 27 31 33 34 30 24 23 19 14 8 3 2 4 5 7 11 13 13 11 11 9 1 6 4 9 9 9 1 4 10 9 18 19 23 22 16 19 16
34 33 31 27 29 22 24 26 26 29 26 23 16 9 5 2 1 2 5 9 12 11 13 10 3 3 8 8 7 6 8 7 6 2 3 9 14 18 17 17 22 19 16
29 29 30 31 25 26 25 25 29 30 25 18 12 8 6 5 2 2 6 9 10 10 4 4 7 8 9 10 8 5 6 1 3 2 2 4 13 16 16 19 19 19 24

GFSSE_925_spd_018.txt.gz
Wind_Speed
28 32 28 26 26 26 25 24 24 25 25 25 25 26 26 27 27 25 25 25 25 24 24 25 25 24 24 24 24 21 17 13 14 16 17 15 16 16 16 14 14 15 14
37 35 33 30 27 28 27 25 24 23 23 25 25 26 27 26 25 25 25 25 27 25 26 26 26 26 25 25 27 23 16 17 18 17 18 16 16 16 18 15 14 15 14
34 35 35 34 32 31 29 26 25 22 23 24 25 26 27 26 25 25 26 26 26 27 28 28 27 27 26 27 31 27 19 19 19 17 17 16 16 15 16 16 16 14 14
36 33 34 34 35 31 28 27 26 23 23 24 25 26 26 24 24 25 27 26 27 26 26 27 29 28 28 29 33 31 22 21 19 16 16 18 18 16 15 15 16 15 14
30 31 33 34 33 30 29 27 26 24 24 24 25 25 24 23 24 25 26 25 25 24 24 25 26 27 26 27 32 31 21 16 14 17 19 20 20 17 15 14 14 15 15
25 30 32 32 32 30 28 28 26 25 24 24 24 24 23 23 24 25 24 24 22 21 21 22 23 26 24 23 26 29 23 15 15 15 17 18 17 14 16 15 14 13 14
25 29 29 30 28 28 28 27 26 25 24 23 23 23 22 24 25 24 22 21 20 18 19 18 18 20 23 23 23 26 25 17 15 14 14 15 15 13 14 15 14 14 15
22 25 24 26 27 24 26 26 25 22 22 23 23 22 23 23 23 22 20 18 17 16 15 15 16 17 16 19 19 23 23 16 14 12 12 13 12 12 12 11 10 11 12
24 16 35 34 32 27 13 16 17 19 21 22 22 22 22 22 21 19 18 16 14 14 15 15 16 15 15 10 14 17 18 18 10 13 14 13 13 13 12 11 10 10 9
27 31 35 44 34 22 15 15 16 18 21 23 22 22 21 19 17 14 14 13 12 13 14 13 11 10 12 12 10 11 13 13 13 12 13 12 11 12 12 11 11 11 13
26 32 38 33 26 18 22 18 18 18 20 21 22 21 20 19 16 13 11 10 9 9 9 8 8 9 9 10 10 9 10 10 11 13 11 10 12 10 11 10 10 10 11
30 30 31 26 28 23 21 20 20 21 22 22 20 18 16 15 12 10 10 9 6 6 4 6 8 10 11 13 11 11 10 9 11 11 11 10 10 7 6 6 6 6 8
30 26 34 28 22 27 25 22 20 21 20 17 15 14 15 14 10 10 11 12 11 10 13 12 13 11 11 11 12 12 13 11 11 10 8 8 10 7 4 5 6 7 6
24 28 29 26 26 24 23 24 21 19 15 13 16 19 18 19 16 13 11 10 11 10 9 7 8 8 8 10 10 12 10 11 10 12 10 7 11 11 2 3 5 7 7
17 25 23 24 27 26 25 23 20 19 20 17 19 18 15 13 12 11 12 11 10 7 7 5 5 7 8 7 8 10 11 10 9 11 10 9 10 7 1 4 5 5 6
22 23 24 26 26 24 22 18 20 20 20 19 18 15 13 12 12 10 9 8 6 7 8 7 6 5 6 7 9 8 10 10 11 11 12 12 7 7 2 4 5 5 5
28 30 30 28 24 23 23 25 26 24 20 17 16 14 13 11 10 10 9 8 7 5 5 6 6 4 5 9 11 8 6 13 12 13 12 11 9 3 2 6 5 5 5
35 32 27 29 32 32 28 24 23 20 16 14 13 13 15 15 13 11 8 8 6 5 6 5 5 7 8 9 5 6 11 9 9 11 12 17 16 10 4 6 6 7 6
36 32 28 36 32 29 25 20 16 16 14 19 20 20 18 15 12 10 8 8 5 4 4 7 9 10 8 6 6 5 4 7 8 9 13 16 16 14 10 4 6 8 7
37 34 31 33 30 26 22 19 18 22 22 21 20 18 16 13 12 8 7 5 4 4 6 9 11 9 9 10 4 2 2 4 8 11 11 14 13 14 12 10 7 6 7
36 37 35 33 29 26 24 26 26 24 22 20 18 16 15 12 9 5 2 2 5 6 7 9 7 9 10 6 4 3 2 3 7 11 13 10 10 11 14 14 13 5 5
40 36 36 32 29 27 23 27 26 26 23 20 18 16 13 12 8 4 2 3 3 4 3 4 6 7 5 3 1 1 2 3 2 12 9 8 11 12 15 19 14 11 12
35 39 38 36 31 28 25 28 27 27 22 21 19 16 14 10 7 4 5 3 2 4 4 4 4 1 4 5 4 2 1 2 2 1 2 7 10 12 15 19 12 15 14
37 43 41 38 35 30 27 31 35 32 27 26 23 21 17 11 8 6 3 1 4 4 4 4 4 3 4 3 2 4 3 4 3 2 0 1 6 9 12 9 14 16 13
39 41 42 38 32 33 33 35 38 32 29 28 25 21 15 11 7 4 1 2 4 5 4 3 6 6 5 2 2 2 4 3 3 3 3 3 6 7 7 10 16 15 19
33 33 30 32 30 34 36 39 41 36 30 29 25 19 14 11 7 4 2 5 5 4 2 1 4 5 3 2 1 2 2 3 4 3 2 5 6 5 6 9 11 16 20

GFSSE_925_spd_021.txt.gz
Wind_Speed
29 30 28 27 26 27 27 27 28 28 28 26 26 29 30 29 29 29 30 31 29 26 24 24 25 24 23 19 16 16 16 19 21 18 17 17 17 18 17 16 17 18 17
32 34 31 29 28 28 28 26 26 28 27 26 26 29 29 29 29 30 31 31 29 26 24 25 27 28 26 21 20 21 20 21 19 20 19 18 17 18 19 18 18 18 17
31 34 32 31 30 29 29 29 24 25 26 26 27 28 28 29 30 31 32 32 32 27 26 27 29 31 31 27 24 23 22 20 18 20 20 19 18 17 18 18 18 17 17
29 30 31 31 31 30 29 30 27 24 25 26 27 27 27 28 30 31 32 32 31 29 27 27 30 31 31 27 23 22 18 18 19 21 22 21 20 17 17 18 18 18 19
25 31 32 31 31 30 28 27 26 24 25 27 25 25 26 28 29 31 31 30 29 29 27 27 28 29 27 27 22 18 17 18 19 20 19 20 19 17 17 18 18 19 19
25 30 30 32 31 30 28 26 25 25 25 26 23 23 24 27 27 29 28 26 27 26 25 26 24 27 24 25 25 20 19 17 18 18 18 17 17 15 16 17 17 17 18
23 24 28 29 29 29 29 26 25 25 25 24 22 23 24 25 25 25 24 24 23 22 21 21 22 21 20 21 22 22 17 16 15 15 16 16 15 14 14 14 13 13 15
14 20 18 23 26 27 27 26 25 23 24 23 21 23 24 24 23 22 21 20 20 19 18 18 16 16 17 17 17 18 15 14 14 14 14 15 13 13 13 13 12 11 11
24 25 25 29 31 28 22 23 23 23 20 20 21 22 23 24 22 21 18 18 18 17 17 15 15 15 10 12 13 12 13 12 11 12 13 14 11 12 12 13 13 13 13
28 25 28 33 30 18 16 17 14 16 19 20 22 22 22 21 19 17 15 15 15 15 13 12 11 12 11 12 13 12 10 9 10 11 11 11 9 10 10 11 12 12 11
34 31 25 29 29 28 14 12 15 16 18 20 21 21 20 18 17 15 13 13 12 10 10 9 9 10 11 11 12 11 8 8 10 10 9 9 8 6 8 8 8 9 10
28 31 40 40 38 25 17 15 15 17 18 20 21 20 16 16 14 13 11 10 9 7 7 9 10 10 11 9 9 9 9 8 7 5 5 6 7 6 5 7 7 8 9
30 35 30 29 24 22 19 18 19 21 20 20 18 17 15 13 12 12 11 9 11 11 13 13 12 11 8 9 8 9 8 9 9 7 5 4 5 6 3 3 5 5 7
29 30 32 27 21 20 20 19 19 20 19 18 18 16 15 14 15 15 14 15 12 12 12 10 9 10 10 10 8 8 10 10 10 8 6 3 5 4 1 2 4 5 6
24 30 30 26 21 22 19 20 21 20 16 18 17 17 18 17 16 15 14 13 11 9 7 6 6 8 8 8 8 9 9 9 11 11 9 6 5 6 2 2 3 3 5
24 30 27 24 22 23 21 22 20 18 18 21 20 19 17 15 15 15 15 12 9 7 6 7 7 8 8 6 7 8 8 9 11 11 11 10 4 4 4 5 4 3 4
31 29 26 23 22 24 23 20 20 22 20 21 19 17 16 15 14 13 12 10 8 6 7 7 6 5 6 8 7 7 8 9 10 12 13 13 8 8 8 8 6 6 6
26 26 25 24 25 24 22 21 24 24 21 19 17 17 16 13 13 13 11 9 8 8 5 3 4 5 6 5 5 7 8 8 10 12 12 13 14 10 7 10 5 6 6
28 27 26 26 26 25 24 24 25 22 19 18 17 16 16 16 15 12 10 9 6 3 2 2 4 5 5 5 4 5 6 8 9 9 12 12 10 6 6 4 5 6 6
30 28 27 28 27 27 27 25 22 20 17 17 18 19 18 17 15 11 9 7 6 3 1 3 5 4 5 6 3 4 6 7 6 7 8 9 9 7 5 6 6 6 5
31 29 26 28 30 31 29 26 22 22 21 20 20 18 17 16 14 10 7 6 2 2 4 4 3 5 5 4 3 2 3 6 6 6 6 6 7 9 10 11 8 5 5
37 35 31 34 33 31 30 25 22 24 23 22 20 19 17 15 13 8 6 2 1 3 4 4 5 4 3 2 2 1 2 3 2 5 4 4 3 6 13 15 8 7 10
33 38 38 39 36 32 29 26 24 24 22 22 22 21 17 13 10 7 4 1 2 6 7 7 5 2 2 2 1 1 1 3 3 4 3 2 3 10 11 11 10 10 12
36 40 44 42 39 35 31 29 31 34 27 26 25 19 16 11 8 5 2 2 4 7 8 7 5 2 1 3 3 2 1 1 3 3 5 4 3 7 8 5 9 12 14
32 34 39 39 40 37 33 32 35 32 29 26 23 20 16 12 8 4 1 3 5 5 4 3 3 4 3 1 1 2 4 5 7 5 3 4 7 8 7 7 12 11 13
30 33 36 37 40 38 35 35 37 35 33 28 26 23 18 14 9 6 3 4 6 5 3 2 2 2 1 1 1 2 5 6 6 6 3 8 7 7 6 11 12 15 15

GFSSE_925_spd_024.txt.gz
Wind_Speed
29 32 31 32 32 33 34 33 31 30 29 28 29 29 27 27 30 33 32 31 30 27 25 25 24 21 21 22 24 26 22 22 22 24 21 21 21 20 20 20 19 19 19
36 34 33 32 32 32 33 32 32 29 28 29 30 30 29 30 33 33 33 30 29 28 26 26 25 24 25 25 25 25 22 23 23 22 22 20 20 19 20 20 19 19 18
32 33 31 32 33 33 32 31 31 31 28 29 30 29 30 33 32 33 33 31 30 28 27 28 27 29 26 26 24 22 22 22 23 23 23 22 20 19 18 18 19 19 19
29 30 30 31 32 32 31 29 28 29 29 30 29 29 31 32 32 34 33 31 30 28 27 28 29 26 24 23 21 21 22 22 22 23 22 21 20 17 17 17 19 19 20
26 28 28 27 30 31 30 29 27 29 30 28 28 27 31 31 30 33 31 29 28 26 26 27 27 25 23 21 21 22 20 20 19 20 21 20 20 17 17 17 18 18 19
21 25 25 27 29 29 29 27 27 30 30 27 26 27 26 27 27 30 29 27 26 24 23 25 25 24 25 23 23 20 19 18 18 18 18 18 17 14 15 14 15 15 16
22 22 23 25 27 28 27 27 27 28 28 26 26 27 26 27 28 27 26 24 24 24 23 22 21 21 22 22 20 18 16 15 15 15 15 15 14 13 13 13 12 12 14
21 22 19 17 23 24 27 26 26 25 25 24 25 26 27 27 25 24 22 20 20 20 19 18 18 19 18 18 16 15 15 14 13 13 14 14 13 13 13 13 13 13 14
21 20 23 22 22 20 22 24 24 23 23 23 24 24 25 24 22 21 19 16 17 17 17 17 15 15 15 15 14 13 13 13 13 13 13 12 12 12 13 14 14 15 14
25 27 30 28 34 17 18 18 20 20 21 23 23 24 23 21 20 18 17 14 15 13 14 13 14 14 14 13 12 11 10 10 11 12 11 10 9 9 11 12 13 13 14
33 35 43 42 29 22 19 16 18 20 22 22 22 22 22 19 17 15 14 13 12 11 11 11 12 14 13 13 12 9 8 8 9 8 8 8 8 7 8 9 10 11 12
28 39 44 36 30 31 23 13 16 16 17 20 22 21 19 16 15 13 11 9 9 9 9 12 13 12 11 11 10 9 10 8 6 4 5 6 8 6 5 7 8 10 10
25 26 31 42 29 27 27 11 12 16 18 20 19 17 17 15 13 12 11 10 12 13 14 13 12 9 8 9 10 11 11 10 10 7 5 4 4 6 3 4 8 10 10
26 38 38 38 33 22 15 15 16 19 20 20 19 16 14 14 13 12 14 15 14 14 12 10 9 9 9 9 9 9 9 9 8 8 7 7 5 4 2 2 7 8 9
21 27 34 30 23 18 14 15 17 19 19 17 17 16 15 14 14 15 15 14 13 10 8 7 8 8 8 8 8 7 7 7 8 8 8 8 3 3 3 3 5 6 7
21 27 29 24 19 16 15 15 18 19 18 19 17 15 15 16 14 15 14 12 10 7 8 8 8 7 6 5 6 6 6 6 8 9 10 7 4 3 9 7 5 5 5
23 24 29 25 17 18 17 18 21 20 17 18 18 16 15 13 15 15 14 12 9 8 7 6 6 5 5 5 6 8 6 6 6 7 7 6 4 5 6 9 8 7 6
24 26 26 23 19 19 18 20 19 19 17 19 19 17 15 15 15 14 12 11 10 8 7 6 6 4 4 5 6 6 6 6 7 7 8 9 8 6 6 6 4 5 6
26 26 23 20 18 18 18 20 20 20 18 19 17 17 17 17 16 14 13 12 11 9 6 4 3 2 5 4 4 6 7 7 8 8 8 6 6 5 5 4 4 5 6
26 25 23 22 20 21 20 18 21 20 19 18 18 18 18 18 17 15 13 12 10 6 3 3 4 6 4 3 5 6 7 7 8 8 8 7 6 4 4 5 6 5 3
25 25 25 24 24 24 25 23 23 22 21 19 17 17 18 19 17 15 13 9 7 5 6 5 5 4 4 4 5 4 6 6 6 8 7 5 4 5 7 8 6 5 5
30 28 27 27 28 28 31 31 26 25 21 18 18 18 18 19 17 14 10 8 7 5 4 3 3 5 4 3 2 0 2 3 2 4 3 1 2 4 9 9 8 6 8
32 34 34 31 31 32 34 31 25 23 20 21 21 20 20 17 15 12 9 7 4 3 3 3 4 5 4 2 2 2 1 2 3 3 3 1 2 5 10 9 8 8 10
30 33 34 34 33 35 34 33 31 32 27 25 27 23 20 16 14 11 8 6 4 3 5 7 6 5 4 3 3 1 0 1 2 3 3 6 7 7 11 9 9 11 11
35 36 37 36 35 38 38 36 33 32 32 26 26 24 20 17 14 11 8 6 5 5 7 5 7 7 4 1 2 2 3 5 6 4 2 5 9 11 12 9 10 11 12
35 37 37 37 38 39 38 37 36 34 33 27 28 25 23 21 17 13 9 7 6 4 4 3 5 3 1 1 4 6 5 5 6 8 4 8 8 12 10 10 13 13 16

GFSSE_925_spd_027.txt.gz
Wind_Speed
27 28 32 34 35 36 38 37 36 34 31 29 29 29 29 29 29 28 28 28 27 23 22 22 24 25 26 26 24 24 24 24 24 22 22 22 20 20 19 20 20 19 20
30 29 32 34 35 35 35 34 34 33 31 31 31 30 31 32 30 29 29 28 25 23 23 24 27 26 26 25 24 25 25 25 23 23 22 22 21 19 19 20 19 18 18
31 29 29 33 34 34 34 32 31 32 34 33 32 32 34 33 31 30 27 27 26 25 26 27 27 26 25 24 23 25 24 24 22 23 23 20 19 19 19 19 19 20 19
30 28 28 31 31 31 32 31 32 32 33 35 34 36 34 33 30 30 27 27 27 27 25 26 25 24 23 22 22 22 22 22 21 21 18 18 18 18 18 18 19 18 18
29 26 27 32 32 32 32 32 32 33 32 34 35 37 34 33 32 30 27 26 26 26 24 24 23 22 22 23 21 20 19 19 18 18 16 16 16 16 16 16 15 15 16
26 25 28 30 31 31 31 31 32 34 32 33 37 37 33 34 32 30 26 25 25 24 25 24 22 22 23 21 20 18 17 16 17 15 15 16 15 15 15 14 14 15 15
26 24 27 28 28 27 29 30 31 31 32 33 36 35 32 32 30 29 27 25 24 24 24 23 23 23 21 19 18 17 16 15 14 14 14 15 15 15 15 15 15 15 16
29 25 25 26 24 20 23 28 29 29 31 32 33 33 32 29 27 26 25 23 22 22 21 21 21 21 19 17 17 17 15 15 14 14 14 14 14 15 16 16 16 16 16
25 29 31 31 33 23 15 23 25 26 29 30 30 31 30 25 23 22 23 22 20 18 19 18 18 18 15 15 15 15 14 14 13 12 12 11 13 13 14 14 14 15 15
29 31 35 37 43 40 19 16 21 24 25 27 28 29 26 21 19 19 19 19 18 16 16 16 16 15 14 13 12 12 11 11 11 11 10 10 9 10 11 12 13 14 15
26 30 37 41 41 30 23 17 17 20 21 24 26 26 24 19 17 17 17 16 15 14 15 15 15 13 13 12 10 8 8 9 8 7 8 9 8 7 8 10 11 13 14
26 31 40 39 35 32 25 17 16 18 19 22 25 25 22 17 16 14 14 13 12 13 15 15 13 12 10 10 10 9 11 9 7 7 6 5 8 5 7 8 10 11 12
27 31 32 33 33 31 32 26 24 20 21 23 23 21 19 16 15 15 13 12 13 15 15 13 12 10 10 10 9 10 10 10 8 7 5 3 3 5 3 8 10 10 10
25 26 36 44 45 36 39 23 20 22 23 22 19 17 16 16 14 14 15 17 16 14 14 11 10 9 8 9 8 7 8 8 7 7 6 5 3 4 2 8 8 8 9
16 21 27 33 33 32 25 17 20 22 21 20 19 17 15 15 14 15 17 17 15 13 10 9 8 7 6 5 5 5 6 6 6 6 6 5 2 2 5 7 6 6 6
19 24 28 20 22 21 16 16 17 18 19 18 17 15 13 13 15 16 17 15 13 11 10 8 7 6 6 5 4 3 4 5 8 8 6 7 4 7 9 7 5 5 6
21 23 24 22 19 16 14 14 16 18 17 17 16 13 13 15 16 16 16 14 12 11 8 8 7 5 5 4 4 4 3 3 4 4 4 4 5 3 8 10 8 6 5
20 21 21 20 19 16 16 14 16 18 16 16 16 14 16 16 16 16 15 14 12 10 8 7 6 4 2 3 5 4 4 4 5 5 4 5 5 5 4 2 1 2 4
23 21 21 21 18 15 16 17 18 17 15 13 17 18 17 16 17 16 15 14 12 10 9 6 4 3 4 4 4 5 5 5 5 5 5 5 5 4 3 2 2 4 5
20 20 21 23 21 18 19 19 19 18 17 18 18 19 19 19 19 17 14 14 12 10 7 6 4 5 5 5 5 5 5 5 6 6 5 4 2 1 1 0 3 4 5
22 22 23 23 23 22 22 18 18 19 20 20 20 20 20 21 19 17 16 14 13 9 7 7 7 6 4 6 6 3 3 4 6 6 6 4 2 2 0 2 2 3 4
25 25 24 26 27 28 26 24 21 23 21 21 21 20 20 20 19 17 16 15 12 10 9 8 9 6 4 7 4 2 3 6 7 8 7 5 4 1 1 2 3 2 3
26 27 26 25 27 28 29 27 21 22 19 17 18 19 21 21 20 18 16 14 12 9 8 8 9 9 10 6 6 3 3 3 2 6 8 5 4 4 4 5 5 5 6
29 27 28 29 33 32 32 31 32 24 18 17 21 22 24 23 22 20 18 15 11 10 9 9 8 6 5 6 4 5 5 3 3 3 4 4 6 7 6 9 7 6 9
26 28 30 29 31 30 33 32 30 26 24 22 25 26 25 24 22 22 20 17 15 14 14 9 6 5 8 8 6 5 4 3 4 6 7 6 6 7 10 9 9 9 9
26 26 30 28 27 27 32 33 34 35 31 25 29 29 27 25 24 23 21 18 17 17 14 10 6 11 7 4 5 5 5 4 4 6 7 9 9 11 10 9 10 11 10

GFSSE_925_spd_030.txt.gz
Wind_Speed
25 27 29 30 32 35 37 36 34 32 30 28 28 29 28 27 27 26 26 25 23 22 21 21 23 24 23 24 24 24 24 24 24 24 22 21 20 21 19 20 17 17 18
29 29 30 32 32 35 36 34 33 31 30 31 32 30 30 29 30 29 27 24 22 22 23 23 24 24 23 25 24 25 24 23 25 19 20 22 21 21 20 19 20 19 19
29 29 29 32 32 35 35 34 32 30 30 32 33 33 33 32 32 28 26 24 24 25 24 25 25 24 24 25 24 24 23 23 24 22 18 19 19 19 20 20 21 20 20
28 30 27 32 34 34 34 32 30 31 32 32 34 35 34 33 32 28 26 26 26 25 24 24 23 23 24 23 23 22 21 21 20 16 16 16 17 17 17 18 19 19 20
28 28 27 32 33 32 31 30 31 32 32 33 34 35 34 33 30 28 26 25 25 24 22 23 24 23 23 22 22 20 19 19 17 15 16 15 15 15 15 16 16 17 18
29 26 28 31 31 30 29 28 30 33 33 34 34 34 35 33 28 27 25 24 24 22 22 23 24 22 21 21 20 18 17 17 13 14 15 16 14 14 16 17 17 17 17
27 28 33 32 32 31 30 30 29 32 35 34 33 33 34 32 29 24 24 24 25 24 24 25 24 21 20 19 18 17 18 17 14 14 14 14 14 16 16 16 16 17 18
25 25 30 30 29 29 29 31 31 33 35 34 35 34 33 30 27 25 23 23 24 23 24 24 21 19 18 17 16 15 16 13 12 12 12 13 14 15 15 15 16 17 16
25 30 34 33 31 27 29 31 30 31 33 34 34 33 31 28 25 23 22 22 21 22 22 21 19 17 16 14 13 13 13 15 11 11 10 11 12 13 14 14 15 16 16
30 34 36 33 32 32 25 25 26 28 31 32 31 29 28 26 23 21 19 19 19 19 18 18 17 16 14 12 11 11 13 13 10 9 10 8 9 10 11 12 12 14 15
29 32 36 40 31 29 22 20 21 25 27 29 27 25 23 19 18 16 16 17 18 18 17 16 15 13 11 10 10 9 11 8 8 8 8 9 6 7 8 9 11 12 12
27 33 39 40 36 38 28 26 18 21 21 23 24 17 13 16 15 15 15 15 16 16 17 15 13 12 9 6 7 10 8 8 8 8 6 5 8 4 6 9 10 10 11
29 30 31 33 36 33 30 24 17 18 24 21 21 15 12 14 15 13 13 12 15 15 14 12 9 7 7 6 6 7 7 7 7 7 6 4 4 4 5 9 8 8 9
22 28 27 26 28 29 30 27 20 18 15 17 18 14 12 12 12 12 12 13 13 11 12 9 7 9 8 8 7 6 7 8 7 6 7 6 4 3 3 7 7 7 7
26 26 29 29 34 37 32 32 19 12 13 13 14 14 12 11 12 11 12 12 11 11 9 8 8 7 7 6 6 6 8 8 8 7 5 5 2 4 3 5 6 5 4
26 24 26 30 33 30 30 18 12 11 14 15 15 13 12 11 12 12 12 11 10 9 8 6 6 6 5 5 6 5 6 6 6 5 4 5 4 5 7 6 5 6 4
24 26 28 23 24 30 20 15 14 16 16 16 13 11 11 11 14 13 12 11 10 8 9 8 6 5 3 4 4 4 3 3 3 3 2 1 3 1 4 6 4 3 3
22 27 25 23 23 22 18 14 15 16 16 14 12 12 12 13 14 13 12 11 11 11 9 7 5 3 2 2 2 1 0 0 1 1 0 1 2 1 1 2 3 3 3
22 23 23 22 20 19 16 13 15 16 15 14 13 12 14 15 14 12 12 12 12 10 9 7 5 3 2 2 2 3 4 4 3 3 3 3 2 1 2 4 7 7 7
24 24 24 23 20 16 15 13 14 14 14 13 13 15 16 14 14 13 11 12 11 10 9 7 6 3 2 2 4 4 5 5 5 5 5 5 4 3 4 5 6 6 9
25 24 24 23 20 19 18 18 17 19 16 14 13 15 15 15 16 15 12 13 11 10 9 7 6 5 3 3 4 6 7 7 8 7 7 7 5 5 5 5 6 7 7
23 24 24 24 23 22 19 19 18 18 17 16 15 15 16 16 17 16 15 14 13 11 9 9 7 6 5 6 6 8 5 7 9 9 9 8 7 7 6 6 7 6 8
26 26 25 24 23 22 22 20 17 15 12 15 16 16 18 19 18 16 18 17 16 12 11 11 12 11 7 6 10 8 4 5 2 9 11 9 8 8 8 9 8 8 9
29 27 26 26 25 24 24 22 22 21 18 17 16 16 19 19 19 19 19 18 17 15 14 13 13 13 11 9 8 11 9 7 4 4 8 9 9 10 10 10 11 10 10
27 29 27 27 27 26 26 26 24 24 20 17 16 19 19 19 23 21 20 18 16 14 13 13 15 11 10 8 9 7 8 7 7 8 8 8 8 10 9 10 11 12 13
27 28 28 28 28 27 27 28 27 25 22 20 22 22 21 20 25 22 20 19 17 15 15 16 15 10 9 10 7 9 10 8 9 9 9 11 10 10 10 11 12 13 14

GFSSE_925_spd_033.txt.gz
Wind_Speed
21 24 23 27 31 32 32 31 30 29 26 24 23 24 25 25 26 26 26 26 24 23 23 25 22 23 21 22 24 24 26 25 23 24 24 24 23 22 21 23 21 18 21
26 26 25 28 32 32 32 32 30 28 26 24 25 26 27 28 28 28 27 25 24 24 24 24 23 23 23 24 25 25 25 23 19 22 27 26 24 23 23 23 22 20 20
27 27 27 29 32 33 32 33 30 27 25 26 26 27 29 30 29 26 25 25 25 25 24 23 24 24 24 24 24 23 24 21 16 14 18 20 21 22 21 22 23 22 22
32 29 27 31 33 32 33 31 29 27 27 27 28 29 30 31 28 26 26 26 26 26 24 22 24 24 23 23 23 21 22 20 19 17 17 18 19 19 19 20 19 21 21
29 30 29 34 34 33 33 31 29 28 29 29 30 30 30 30 29 29 28 27 27 24 23 22 23 23 21 22 21 20 17 15 15 16 16 19 17 18 18 19 19 19 20
35 27 32 34 34 35 33 31 30 30 30 30 31 31 28 29 30 29 28 26 26 23 23 23 23 22 20 20 20 19 15 13 14 15 18 17 16 17 17 19 19 19 20
37 26 34 34 33 32 31 30 31 31 30 31 31 30 29 29 29 29 27 26 25 24 24 23 21 20 18 19 19 17 17 19 15 16 17 15 15 16 16 16 17 17 18
24 28 33 30 31 31 31 31 31 32 29 29 30 30 29 28 27 27 27 26 26 25 24 21 19 18 16 16 16 17 14 15 14 13 15 15 15 16 16 16 16 17 18
23 31 27 26 26 28 29 31 33 32 31 29 27 29 29 27 26 25 26 26 25 25 21 19 17 16 14 14 14 16 17 14 12 12 14 12 13 13 13 14 15 15 17
29 34 33 31 27 25 24 27 32 34 30 28 25 26 25 25 26 24 24 23 23 21 18 16 15 14 13 12 13 12 9 11 10 11 11 9 11 11 11 11 12 14 15
25 35 35 32 27 24 26 25 27 30 29 25 23 23 20 23 19 16 18 20 19 17 16 14 13 12 10 11 12 12 9 9 8 10 10 9 8 8 9 11 11 11 12
22 26 37 36 27 33 29 27 24 24 25 19 19 17 15 18 13 14 18 18 16 16 15 13 13 10 5 6 5 10 9 8 8 10 8 10 7 6 9 10 10 10 10
22 27 28 34 36 31 32 31 30 23 24 19 14 13 14 15 15 14 17 16 15 15 12 11 7 5 6 5 6 7 6 5 5 7 7 5 6 4 9 10 10 9 10
21 24 32 29 34 37 40 35 26 24 20 17 13 11 15 13 14 12 14 13 14 12 11 7 6 6 6 7 6 6 6 5 3 6 7 3 4 4 9 9 8 9 8
18 21 25 34 31 30 28 28 23 20 15 13 14 11 13 12 12 12 12 13 11 11 9 8 7 6 4 4 4 3 5 4 4 3 4 3 4 7 8 7 8 8 6
21 24 23 25 28 31 27 28 25 17 17 13 12 13 11 11 12 11 12 12 11 10 9 7 7 5 3 3 3 3 4 3 4 3 4 6 5 7 10 8 8 7 4
23 19 25 29 31 31 25 30 27 17 16 18 16 14 14 14 14 12 12 11 11 9 9 7 7 5 4 3 3 3 2 2 3 2 2 3 6 5 3 5 5 4 3
22 22 25 28 22 23 30 29 20 17 17 17 16 15 17 15 14 12 11 11 10 10 10 9 7 6 5 4 3 2 1 1 1 1 1 1 2 4 2 6 4 2 1
27 29 27 26 27 27 25 14 16 15 15 18 19 16 16 16 15 12 11 11 11 10 9 9 8 7 6 5 3 1 2 3 2 2 1 2 2 2 0 3 5 9 10
27 28 25 24 24 25 19 16 17 18 19 21 14 17 16 16 14 13 12 11 12 11 10 11 8 6 5 4 4 5 6 6 4 5 4 5 5 4 5 5 6 7 6
26 27 26 25 25 24 21 23 21 21 21 18 16 17 15 16 15 14 13 13 13 13 13 11 9 8 7 6 5 8 11 11 7 7 7 8 8 7 6 7 7 7 6
27 26 27 27 25 24 23 22 20 20 22 20 17 17 17 17 16 15 16 15 16 16 14 13 12 11 8 8 4 7 6 6 11 12 10 10 9 9 10 9 8 8 8
28 30 29 28 27 26 24 21 20 19 20 20 17 17 18 18 19 19 18 17 18 17 16 16 14 12 10 8 6 6 4 5 7 13 13 11 10 11 11 10 11 10 9
29 28 28 28 28 28 26 23 24 23 23 20 21 19 19 21 20 20 19 19 18 17 16 16 13 12 8 7 6 9 12 11 4 4 11 13 13 12 12 12 11 11 11
31 31 30 29 29 28 27 27 25 24 22 21 21 19 23 20 20 19 19 18 18 16 14 14 13 12 8 7 7 10 13 12 11 8 7 9 14 13 11 10 11 11 12
30 31 31 31 30 29 29 29 28 25 26 23 22 20 20 20 18 18 16 16 16 14 12 10 11 11 4 10 13 12 13 11 11 11 9 12 13 14 12 11 11 12 12

GFSSE_925_spd_036.txt.gz
Wind_Speed
27 29 27 30 33 32 33 31 29 27 25 23 23 24 25 27 30 30 29 28 29 27 25 25 25 25 26 26 28 28 29 29 29 29 30 28 26 25 24 25 23 24 25
27 32 31 31 31 31 31 30 29 27 25 23 25 26 27 28 30 30 29 29 29 26 25 25 25 24 27 27 28 25 24 25 30 30 28 27 25 25 25 26 26 24 24
14 29 33 33 35 31 31 30 29 27 25 26 28 29 29 29 30 30 30 30 27 26 25 25 24 25 27 26 25 22 17 14 12 17 26 25 24 22 22 24 24 24 25
24 21 31 35 37 33 32 30 28 27 27 28 29 30 30 28 29 31 30 29 27 26 25 24 24 26 24 25 23 21 18 18 23 26 26 24 20 22 22 22 23 23 24
24 23 28 36 36 34 33 30 29 28 29 30 31 31 29 28 31 30 30 29 27 25 24 24 25 24 23 22 19 14 13 15 22 19 22 23 20 20 21 22 23 24 24
5 25 32 36 36 33 33 31 29 29 29 31 32 31 31 30 31 30 30 28 26 25 23 25 24 23 22 19 16 16 20 15 28 26 21 20 20 19 20 20 21 22 23
12 26 34 33 36 35 31 30 29 30 32 31 30 30 31 31 31 30 29 27 26 25 24 23 22 21 21 20 16 19 21 23 22 22 19 19 19 18 19 19 20 21 21
25 26 31 30 30 34 31 30 31 32 30 31 31 29 30 30 29 29 28 26 26 24 23 21 20 19 18 18 16 15 19 21 23 22 20 19 17 17 17 18 19 20 20
23 25 29 30 30 30 31 31 32 32 32 28 28 28 27 28 28 26 26 26 25 23 21 19 17 16 16 18 21 20 18 16 18 22 20 17 15 15 15 16 17 18 19
41 25 25 25 25 28 30 32 32 31 32 30 26 25 26 25 27 26 25 24 23 21 18 17 15 14 15 15 15 14 14 14 17 15 14 14 13 13 14 15 15 16 17
27 32 30 27 25 28 26 29 29 30 25 27 26 23 24 23 24 20 23 21 19 17 16 14 12 11 13 17 16 14 13 12 17 15 15 11 11 10 12 13 12 14 14
20 32 33 30 30 33 33 29 27 27 26 27 26 23 21 18 18 20 19 18 15 14 13 13 10 9 7 9 10 12 11 10 11 11 14 11 8 8 11 12 12 12 12
18 26 34 34 32 32 32 36 34 31 27 24 19 18 19 15 15 18 17 15 14 13 12 11 7 2 5 7 5 9 7 9 8 8 9 8 7 8 10 11 10 11 11
17 20 29 34 37 40 37 35 36 32 23 16 15 15 16 18 13 16 14 11 12 10 9 6 7 5 6 7 9 8 7 8 9 7 7 4 6 7 10 10 10 9 10
22 22 26 30 33 33 30 32 31 31 21 15 14 14 16 15 12 10 13 10 11 11 9 8 4 6 6 7 6 5 5 7 8 3 5 4 7 8 10 9 10 8 7
23 23 26 28 28 28 27 26 31 25 27 22 18 11 14 12 11 10 15 14 13 11 11 9 10 6 7 4 5 4 5 5 3 4 4 6 7 11 11 9 9 8 7
23 26 28 28 32 26 26 27 25 23 20 22 16 12 13 12 11 10 12 14 14 13 12 11 11 7 6 7 5 4 3 4 3 2 5 5 10 10 10 10 10 8 7
25 28 28 27 31 29 30 32 30 30 29 20 16 20 16 12 12 14 15 15 14 13 11 8 9 8 7 6 7 5 5 3 4 5 3 5 8 10 9 6 6 6 4
24 28 29 32 33 30 33 32 27 26 15 19 22 21 17 15 15 18 17 16 15 12 13 13 12 10 10 7 7 9 6 5 5 6 6 7 7 7 6 6 2 5 7
26 28 29 31 30 27 32 33 27 20 19 22 19 21 21 23 19 20 16 18 17 14 15 14 12 11 7 12 11 11 10 11 10 10 9 9 9 9 2 4 1 6 7
26 28 28 27 27 29 27 30 25 26 24 25 25 25 19 21 24 20 17 18 17 17 18 17 15 12 12 8 6 11 18 19 15 11 12 12 12 11 8 8 6 4 4
32 29 30 30 29 29 26 23 23 24 24 25 23 22 19 27 23 23 21 20 18 19 18 19 16 15 14 14 6 7 3 8 16 15 15 16 13 10 9 10 11 11 7
35 34 32 33 35 35 32 29 28 26 27 27 27 24 22 22 20 21 22 17 19 21 20 20 20 17 15 13 10 3 2 1 2 18 19 15 14 16 14 11 10 12 12
34 36 34 35 35 34 33 28 27 23 21 23 25 25 22 22 21 18 20 21 17 19 14 18 17 17 14 12 13 9 7 5 1 3 15 19 17 15 15 16 14 11 8
33 36 37 34 35 34 35 33 28 27 27 28 22 22 23 21 22 21 19 20 19 14 11 9 12 14 14 8 3 2 9 10 13 9 4 4 19 20 22 22 19 15 11
33 32 34 33 33 34 34 35 30 27 25 23 24 23 26 26 24 25 20 17 20 19 19 19 19 22 18 12 10 6 7 11 8 9 6 9 14 13 19 20 18 13 10

GFSSE_925_spd_039.txt.gz
Wind_Speed
9 25 28 41 33 38 37 35 32 31 29 30 32 33 34 35 36 37 34 31 32 29 28 27 28 29 29 31 30 31 32 30 27 29 30 28 27 26 26 24 26 28 28
19 18 27 29 32 34 34 33 31 30 30 32 33 35 36 36 37 37 32 32 32 29 28 27 27 27 27 29 30 32 34 33 30 27 28 26 26 25 26 27 28 26 26
23 6 22 26 26 31 33 32 31 29 30 33 35 36 37 36 37 36 32 32 32 29 27 26 26 27 26 25 23 22 19 13 20 26 27 27 25 23 25 26 26 26 26
7 27 27 27 28 32 33 32 31 30 33 34 35 36 36 36 37 34 32 32 30 28 26 25 27 26 23 21 20 19 22 28 26 27 26 23 25 24 23 25 25 25 25
12 28 30 35 26 29 33 32 30 33 34 36 34 35 35 36 36 33 32 31 30 27 25 26 26 24 21 20 19 18 24 25 22 23 24 25 24 22 22 22 24 25 26
11 16 29 33 31 31 31 30 32 35 35 36 36 34 33 33 35 33 32 30 29 25 26 27 23 21 19 19 23 27 21 18 21 21 24 23 23 20 20 21 21 22 23
22 13 13 28 33 33 32 28 30 35 37 36 35 35 33 32 33 31 31 30 28 27 27 26 24 20 17 18 25 27 24 23 23 24 24 23 21 20 20 21 21 22 22
19 21 19 42 39 36 33 31 29 33 37 36 36 35 34 33 30 30 30 28 27 25 25 24 21 20 17 18 22 28 19 19 21 22 22 21 19 18 19 20 20 21 21
21 24 27 36 37 31 32 33 31 33 36 37 36 35 33 32 28 28 28 27 25 23 22 21 19 19 20 19 19 23 20 21 21 21 21 20 17 17 17 18 19 19 19
24 22 21 19 39 34 36 36 35 34 34 34 35 33 31 29 27 27 26 24 23 21 19 18 18 18 19 18 16 18 20 23 19 18 17 18 16 15 15 16 17 17 18
18 29 29 27 31 32 30 30 31 31 32 32 32 31 28 28 27 26 25 21 19 19 17 15 16 20 19 16 14 17 15 14 13 14 16 15 14 14 14 14 15 15 15
21 26 31 39 37 35 34 26 27 29 31 31 32 31 30 27 25 24 21 19 18 16 15 13 12 12 8 10 12 14 11 11 12 12 12 12 11 12 13 13 13 13 13
21 30 33 35 37 39 37 36 29 28 30 31 30 31 25 24 23 23 22 20 17 15 14 11 9 9 9 8 11 10 12 10 10 10 13 12 12 12 12 12 11 11 11
25 30 36 36 36 34 35 36 34 36 30 23 27 26 23 21 21 20 19 17 15 14 14 8 9 8 7 7 9 11 14 10 7 11 10 11 12 11 12 11 11 10 9
23 24 34 37 41 40 41 39 35 33 26 26 22 20 20 17 21 20 16 14 14 13 12 10 8 7 6 9 8 9 9 7 8 7 6 4 5 10 11 11 10 9 9
23 23 30 35 39 42 43 39 36 29 24 26 18 18 15 15 17 15 17 14 15 12 11 11 7 8 10 7 8 8 8 5 5 5 4 4 7 11 10 10 9 8 7
23 27 28 36 40 42 38 35 36 35 28 26 19 17 18 17 13 15 18 15 13 14 14 13 13 10 13 8 6 8 6 6 4 2 1 6 7 9 10 11 11 9 8
28 30 28 32 35 34 39 35 33 35 36 32 24 14 15 16 17 16 15 16 14 13 16 15 16 13 10 9 7 7 8 6 5 6 7 6 9 11 11 9 9 8 7
29 31 33 34 36 37 35 37 37 34 29 30 33 17 19 18 17 15 16 16 18 16 17 14 13 12 14 12 12 12 10 7 8 6 11 9 11 11 11 9 8 6 6
29 29 34 38 36 38 37 37 36 40 35 37 29 26 22 23 18 19 20 17 19 20 16 14 15 16 17 15 13 15 15 13 12 11 14 10 10 15 12 10 10 7 8
31 31 35 35 37 33 32 30 32 29 30 30 24 20 25 25 25 22 22 18 25 23 19 20 18 18 13 12 12 8 14 16 18 15 15 16 15 15 12 12 12 10 11
32 31 34 36 37 33 32 31 28 29 26 25 23 25 23 26 27 24 26 22 26 23 22 23 24 19 18 14 7 3 2 5 18 17 18 18 18 20 19 15 15 14 13
33 34 36 36 33 34 33 31 30 26 26 29 28 28 28 29 28 25 28 25 26 24 26 24 27 26 18 14 15 6 1 3 2 15 21 19 20 19 19 18 14 19 17
35 36 35 35 34 36 36 32 31 29 24 28 32 33 33 30 29 29 34 32 26 25 26 22 26 22 14 12 13 13 9 4 3 1 10 18 20 25 26 24 19 19 19
38 39 37 38 38 38 39 37 34 33 32 35 34 35 35 33 32 31 32 29 25 28 27 22 23 21 17 14 14 10 9 3 5 5 2 8 22 24 25 26 24 24 19
38 37 39 39 40 43 43 45 36 34 36 36 34 31 37 37 36 36 29 29 31 29 28 27 27 28 29 26 28 18 9 4 3 6 4 14 11 16 31 30 27 27 27

GFSSE_925_spd_042.txt.gz
Wind_Speed
20 26 26 30 37 30 30 32 29 32 35 37 40 43 41 40 39 39 37 35 33 31 30 30 30 30 30 30 30 30 29 29 31 30 29 28 27 25 26 27 28 29 29
27 28 21 19 27 31 32 32 31 32 35 38 40 43 40 40 37 37 36 35 33 31 29 29 29 29 29 30 33 33 31 29 29 29 27 27 26 26 26 27 27 25 26
21 29 25 16 21 30 31 32 31 34 36 38 41 43 40 39 38 36 35 34 33 31 30 28 27 25 25 24 26 21 20 27 28 29 29 27 26 24 25 26 26 25 25
26 28 36 19 18 27 29 30 32 35 38 40 42 43 40 40 38 38 35 34 33 30 28 26 25 23 23 19 16 19 25 24 24 26 29 27 25 23 24 24 25 25 24
18 28 42 48 29 27 28 28 28 34 37 41 42 42 39 39 39 39 36 33 30 29 26 25 25 23 20 22 27 29 23 23 24 27 27 24 22 21 22 23 24 24 24
21 28 32 36 45 35 31 26 31 33 39 42 41 41 39 39 39 37 36 33 29 26 27 26 24 24 21 27 26 26 24 23 23 25 25 23 22 20 20 21 23 21 22
18 22 31 31 32 42 42 34 34 35 39 39 40 40 38 38 37 34 33 32 30 29 26 23 23 27 25 30 26 23 22 23 23 25 24 23 21 20 21 21 22 22 22
10 15 27 37 26 32 39 43 39 35 36 37 38 38 38 37 35 34 32 31 30 27 26 23 21 27 29 23 22 22 23 23 23 22 23 21 19 19 20 21 21 21 21
9 16 19 21 25 31 31 40 43 39 38 36 37 36 36 36 34 33 31 29 28 25 24 21 20 23 25 22 16 20 19 19 20 21 21 19 17 17 18 19 18 19 20
13 14 16 5 47 45 33 36 40 39 37 37 37 37 35 34 32 31 30 27 26 23 21 20 21 20 21 23 20 19 19 18 18 19 20 18 16 16 15 16 16 17 17
17 13 17 25 30 39 28 33 34 35 34 34 35 35 34 33 32 31 28 25 25 23 21 22 20 18 18 20 18 16 15 16 16 16 18 16 14 12 13 14 14 15 15
23 28 20 19 23 35 31 32 33 34 34 35 34 32 33 33 31 29 26 25 23 19 19 20 17 14 14 14 16 14 13 14 13 15 16 13 11 10 11 12 12 13 13
24 27 27 36 39 40 34 37 37 37 36 34 33 33 32 32 30 28 26 24 23 19 18 15 11 10 14 11 12 14 12 12 11 11 10 10 10 10 11 10 11 11 11
24 28 36 39 39 34 31 36 38 37 37 35 35 36 34 33 29 26 24 22 20 18 16 13 12 12 10 11 10 14 11 10 9 8 10 11 11 11 10 11 9 9 10
25 30 34 36 38 40 39 38 39 38 36 37 35 33 32 29 26 24 20 19 19 17 14 13 11 10 11 13 12 11 10 10 9 8 10 10 13 11 11 10 9 7 8
20 28 36 39 41 41 39 40 36 32 36 35 31 29 25 24 25 22 20 19 19 18 14 11 10 11 11 10 12 9 9 8 6 7 9 8 8 11 11 11 10 8 7
14 24 29 39 40 42 38 43 40 34 31 30 28 25 22 23 22 21 19 18 19 17 14 15 13 12 11 11 10 10 7 5 6 6 6 5 6 9 11 12 10 9 9
21 22 27 35 38 39 39 43 36 30 29 28 26 23 21 19 17 18 15 18 18 17 19 17 16 14 15 13 11 14 12 10 8 5 6 6 9 10 12 13 13 12 9
24 27 26 27 34 39 39 41 41 31 31 27 27 21 16 15 14 16 16 19 20 22 21 19 20 19 19 16 13 14 14 14 12 8 9 10 10 12 14 13 12 11 10
25 25 28 29 36 41 42 37 37 29 29 32 29 24 17 17 18 20 21 19 21 22 21 22 24 20 19 17 16 17 18 16 15 13 14 15 15 15 15 15 15 14 12
26 28 33 31 32 37 31 30 25 30 30 31 31 32 23 19 22 24 24 22 22 27 27 26 23 21 20 20 19 15 17 17 16 14 15 19 19 18 21 19 18 17 16
32 30 31 32 36 35 32 30 27 36 34 33 38 35 26 24 26 27 26 25 26 30 30 28 25 24 18 22 11 4 1 7 17 19 19 19 19 19 22 22 21 21 20
30 32 31 33 38 37 32 30 24 30 33 31 35 32 30 29 29 30 29 27 31 30 33 31 29 28 22 18 14 8 2 4 2 8 20 20 22 24 25 25 24 23 22
33 31 30 32 34 36 35 29 26 26 25 30 29 37 36 33 31 33 31 32 31 32 34 31 30 29 27 21 13 12 11 8 4 2 7 14 23 26 28 28 28 26 25
33 35 34 34 32 32 32 31 30 28 29 28 32 36 35 35 35 35 34 33 34 35 35 31 29 30 33 30 29 23 16 14 12 3 3 9 13 22 26 29 30 30 27
32 33 33 35 36 34 34 37 37 36 32 29 33 37 38 41 38 37 36 35 38 37 37 33 30 32 35 33 30 28 19 11 10 7 3 8 10 21 26 27 32 31 28

GFSSE_925_spd_045.txt.gz
Wind_Speed
15 26 28 28 28 29 31 21 24 32 37 40 41 42 41 39 36 36 35 35 35 34 32 31 30 30 30 29 27 27 27 30 30 28 28 25 26 26 26 28 28 28 28
28 32 29 30 33 27 31 30 34 32 34 37 39 39 39 39 38 38 40 40 38 34 32 31 30 31 30 30 27 26 27 29 30 28 26 26 25 25 25 26 27 27 28
29 30 30 29 30 25 17 24 32 33 31 33 36 38 39 41 39 39 39 38 37 34 32 31 29 27 27 27 25 26 26 28 29 29 25 26 24 24 25 26 26 24 23
28 31 31 31 31 30 34 15 28 33 35 34 37 38 42 41 40 40 39 37 36 33 30 27 25 23 20 19 22 25 26 28 28 28 26 26 25 24 25 26 26 24 24
23 31 30 31 32 29 23 25 32 35 38 35 36 35 41 41 41 41 39 36 34 30 28 25 23 21 21 25 24 24 24 26 25 27 25 23 23 22 23 24 24 24 23
25 27 26 29 30 30 29 26 36 38 36 34 34 36 40 41 41 40 38 34 32 29 25 22 22 30 29 29 24 24 25 24 23 24 25 24 24 22 22 22 22 23 24
26 21 28 30 25 25 30 29 33 41 34 34 34 35 40 41 40 39 37 34 32 29 28 25 27 33 30 27 26 24 24 24 25 26 26 25 23 22 22 22 22 22 22
23 26 35 32 30 35 33 27 28 40 35 32 34 36 39 40 38 38 37 35 33 31 31 30 30 31 29 27 24 25 23 23 23 25 24 24 22 22 21 21 21 20 21
15 17 27 34 37 38 32 27 27 40 38 34 35 36 38 38 37 36 37 35 32 32 33 32 28 26 26 24 22 22 21 21 22 24 24 23 20 21 19 19 19 19 20
18 22 32 30 25 34 36 31 32 37 38 36 36 37 37 37 36 35 35 32 31 31 32 29 28 25 22 21 21 21 20 20 21 23 23 22 20 19 18 17 18 18 18
15 20 22 25 31 41 44 43 34 41 41 38 37 37 37 36 35 34 32 29 28 28 29 26 26 25 24 23 21 18 18 19 20 21 21 19 18 16 16 15 15 15 16
22 25 26 28 20 36 43 40 33 36 39 36 39 38 37 36 34 33 30 28 27 27 26 23 21 21 21 22 19 17 17 18 18 19 18 16 16 15 14 13 13 13 14
20 25 30 40 40 39 34 36 28 28 36 40 39 37 36 35 34 33 31 27 26 26 25 20 17 17 17 18 19 16 17 16 15 16 14 13 12 12 14 13 12 12 12
21 21 31 33 41 44 45 40 34 35 36 39 38 38 38 36 34 32 29 26 25 24 21 16 17 15 14 16 17 17 16 14 13 12 12 11 12 13 12 12 11 11 10
21 24 29 37 38 37 39 37 45 43 44 40 38 39 37 36 33 30 28 24 23 22 18 17 16 14 13 17 17 16 15 14 12 10 11 12 12 12 13 12 11 9 9
19 29 32 34 37 37 37 36 42 41 41 39 38 37 37 34 31 28 27 23 22 19 16 14 13 13 14 14 16 14 13 12 10 8 10 13 14 13 13 12 10 9 8
8 28 36 35 31 32 30 36 38 38 39 37 38 36 34 30 28 26 25 23 21 18 15 14 14 15 15 13 12 13 12 11 9 8 9 11 15 14 14 13 13 10 9
20 21 32 31 38 36 31 30 33 32 36 33 32 31 29 27 26 23 22 21 19 18 15 16 16 17 15 15 14 14 12 11 10 8 9 12 13 14 13 14 13 11 11
18 21 24 35 37 33 31 30 27 27 29 27 27 25 24 26 24 20 20 19 20 19 18 18 19 18 18 17 15 15 14 13 11 10 9 12 12 12 13 14 14 14 13
19 24 26 28 33 31 28 32 27 27 26 25 25 23 22 24 16 18 20 18 20 21 22 24 22 21 21 19 17 16 15 15 13 15 13 13 13 13 13 15 17 16 14
20 21 22 27 31 29 27 31 26 31 24 22 24 24 22 18 15 18 19 18 21 25 26 25 26 24 21 20 15 12 12 16 18 17 17 18 17 16 16 18 19 18 17
24 23 23 22 29 31 30 29 23 28 27 24 23 27 22 18 15 15 18 21 22 25 27 27 27 25 22 19 9 5 1 9 20 21 22 24 23 21 21 22 23 21 20
25 28 25 26 26 27 28 28 28 26 28 28 30 29 28 24 19 18 23 27 26 27 29 30 31 30 25 22 22 10 2 4 3 12 22 24 26 27 27 28 28 25 24
30 31 30 31 30 32 30 31 29 25 24 26 29 33 34 32 28 24 24 30 28 29 30 33 34 34 30 24 21 22 13 6 3 2 11 22 25 25 26 27 29 29 29
28 32 31 32 35 37 35 32 31 28 28 31 31 33 36 41 35 28 30 28 31 33 31 34 36 36 32 28 30 17 19 13 13 4 3 6 14 18 21 23 25 31 33
24 28 32 31 32 36 38 41 37 33 31 30 35 36 35 37 39 35 33 34 36 34 35 37 38 36 36 35 33 33 25 9 14 7 3 8 8 10 14 17 22 28 31

GFSSE_925_spd_048.txt.gz
Wind_Speed
21 27 25 25 28 29 29 33 38 40 37 36 36 36 36 34 32 34 33 34 34 32 30 31 30 30 29 29 28 28 29 29 29 28 28 27 26 29 28 29 30 30 29
25 32 30 30 27 25 27 31 35 40 37 35 34 34 34 33 33 33 35 36 36 33 31 32 31 30 29 29 29 29 30 31 31 30 28 26 26 28 27 27 29 29 27
28 33 29 28 27 28 31 27 26 36 40 35 33 33 32 32 33 34 35 35 35 33 30 32 32 30 30 28 29 31 31 30 29 28 27 27 25 26 26 25 26 26 26
29 32 30 29 28 26 24 24 29 36 37 35 33 31 31 32 33 33 35 36 35 32 30 30 29 27 28 28 28 28 29 30 30 29 29 27 27 26 27 25 25 25 25
32 33 28 31 30 29 29 28 31 33 35 31 31 31 32 31 32 35 36 37 34 31 28 26 24 25 28 27 29 30 31 31 32 31 27 27 26 25 25 24 24 25 26
23 30 30 30 33 33 30 26 28 31 33 33 32 33 30 30 32 36 36 34 31 28 26 25 26 29 27 26 27 27 27 27 29 29 29 27 26 24 25 25 24 25 25
23 30 31 31 32 30 30 29 26 28 32 35 32 33 30 29 31 33 34 31 29 26 26 29 31 31 28 28 27 26 26 28 30 30 30 29 26 25 25 25 25 25 25
25 31 31 26 26 27 29 27 29 25 30 35 33 31 30 29 31 32 33 32 28 27 30 32 33 30 28 29 27 26 26 28 29 29 28 28 25 24 24 24 24 24 24
20 23 25 26 25 26 25 32 35 31 33 37 35 30 31 31 34 34 34 32 29 29 32 33 32 30 28 27 26 25 25 26 28 28 27 26 23 23 22 23 23 23 23
14 28 29 30 33 34 34 38 37 32 33 39 35 32 33 33 33 34 35 34 32 33 34 31 29 27 27 26 24 24 24 25 26 26 27 25 23 22 22 22 22 22 22
13 14 26 34 37 40 41 45 38 33 32 36 34 33 34 33 36 35 35 34 33 31 31 30 27 25 25 23 23 22 22 23 24 24 24 21 21 21 20 21 20 19 20
12 13 27 32 34 41 42 45 40 37 30 36 36 35 35 36 35 33 34 32 31 30 29 29 29 27 25 23 22 21 22 22 23 23 21 20 19 18 18 19 18 17 17
17 19 21 27 35 36 33 42 39 34 39 36 37 37 35 35 34 33 35 35 31 29 29 27 26 25 23 21 20 20 21 22 22 20 18 17 16 16 16 16 16 15 15
19 21 21 25 30 35 34 33 37 34 32 32 38 37 35 35 34 32 31 32 29 25 25 24 23 20 19 19 19 19 19 19 18 19 17 15 16 15 14 14 14 14 13
21 22 24 30 31 40 39 35 40 34 37 36 35 35 36 36 34 32 29 28 26 23 22 22 18 17 17 17 16 16 16 16 15 15 15 13 14 14 14 14 14 13 13
19 25 27 30 35 34 33 34 34 33 33 37 31 38 37 36 33 31 29 27 24 21 20 18 15 14 17 17 17 15 14 14 12 12 12 12 11 11 13 13 12 11 10
16 24 29 32 33 34 29 29 29 31 35 37 37 40 38 35 32 30 28 26 23 21 20 17 16 15 16 17 15 15 13 12 10 10 9 10 13 12 12 13 13 11 10
13 19 27 28 28 30 32 28 27 30 39 35 35 37 35 32 30 29 27 26 23 20 19 16 17 18 17 17 16 13 13 11 10 10 8 9 11 14 15 15 14 13 12
14 20 21 27 28 25 28 27 30 32 37 41 37 36 32 30 28 27 25 24 22 20 18 17 19 18 18 15 13 13 12 11 10 9 7 8 9 14 15 16 17 15 12
16 22 25 25 31 31 20 29 31 31 32 32 25 27 28 28 25 24 23 21 19 20 19 19 19 18 16 15 14 13 14 14 14 13 11 10 12 14 15 16 17 16 15
15 17 24 21 28 35 27 25 31 30 29 34 28 23 23 25 24 22 21 18 21 22 20 18 20 19 17 18 14 11 14 16 17 17 17 16 17 18 19 18 18 18 18
19 20 22 26 25 30 29 24 22 29 27 31 25 21 25 25 22 21 18 19 18 22 21 20 23 22 21 19 10 4 1 9 20 21 21 22 23 22 22 21 21 21 21
20 22 23 24 28 30 30 23 22 28 25 25 23 23 24 25 20 15 17 16 18 20 22 23 25 27 24 23 24 10 2 5 3 12 26 27 26 26 25 24 24 24 24
24 24 23 24 29 31 29 29 28 27 31 30 31 30 27 26 26 23 18 17 17 23 24 24 26 29 27 27 24 28 17 6 4 1 9 18 27 27 28 29 27 28 27
24 29 31 29 28 31 35 36 36 28 29 31 31 32 31 28 28 28 29 21 19 22 25 26 26 29 33 32 29 17 25 17 12 4 3 5 12 22 26 27 29 28 26
29 30 33 34 34 35 37 38 40 33 32 35 36 35 37 36 34 35 33 32 26 26 27 30 30 31 35 38 34 31 25 12 14 8 3 6 6 10 19 19 22 19 20

GFSSE_925_spd_051.txt.gz
Wind_Speed
24 27 31 30 29 32 30 34 36 36 38 37 39 37 33 33 34 32 32 32 29 27 26 25 25 24 24 24 24 27 29 31 31 30 31 29 29 29 29 30 29 30 31
25 29 29 26 27 31 32 36 35 36 38 41 41 38 35 34 34 33 32 32 31 28 27 26 26 26 25 26 27 30 31 32 31 30 30 29 28 28 29 29 29 29 29
23 20 25 24 25 26 33 35 35 36 39 39 39 38 34 33 33 33 32 33 33 30 28 27 27 26 25 27 31 31 31 29 29 30 26 24 25 24 26 29 27 27 27
20 19 22 30 30 31 34 36 35 35 36 37 38 37 33 33 33 34 34 34 33 31 29 28 27 26 26 28 30 30 30 30 30 28 25 24 24 24 25 27 27 27 27
25 25 23 32 33 32 33 34 35 35 34 31 35 35 32 34 35 35 35 34 33 31 30 28 26 26 27 29 30 31 30 29 28 25 24 24 24 23 25 26 27 26 27
27 27 26 30 36 37 31 33 35 36 35 35 30 34 34 34 35 34 34 32 32 28 26 26 25 26 29 29 30 31 31 31 25 24 25 22 24 24 24 26 25 25 26
22 25 29 30 31 33 33 33 34 35 34 33 33 36 36 35 36 34 33 31 29 27 25 25 26 27 28 27 27 26 26 26 24 24 23 23 24 24 24 26 25 25 25
20 28 31 30 29 31 33 33 33 32 32 33 37 37 36 35 35 34 30 29 28 28 30 30 27 28 27 26 26 26 28 28 25 23 23 22 23 24 23 24 24 24 24
18 30 30 31 31 27 30 31 30 31 32 35 38 39 35 35 35 32 30 29 29 30 33 30 28 28 27 27 27 27 28 27 24 23 23 22 21 22 23 22 23 23 23
15 22 19 27 25 28 28 30 31 30 31 31 38 38 36 34 34 31 28 27 30 32 33 30 28 27 27 27 26 26 26 27 22 22 20 21 21 20 21 21 21 22 22
11 23 22 25 32 34 31 25 30 31 31 30 38 38 37 32 31 30 25 28 31 33 32 29 29 26 26 26 25 26 23 18 19 19 19 21 20 19 19 20 20 20 20
4 12 27 25 32 32 31 28 34 34 33 35 34 40 33 36 33 27 29 30 33 33 31 28 28 27 23 20 22 22 17 18 17 17 18 19 19 19 18 18 19 18 17
9 10 21 26 32 34 32 36 33 38 32 29 34 35 36 38 34 34 32 29 30 31 25 25 27 19 19 18 19 17 18 17 16 15 17 16 16 16 16 15 16 16 16
11 15 15 28 30 32 31 35 33 34 36 31 37 38 42 38 32 37 35 31 31 28 28 27 23 23 21 20 20 21 17 15 14 14 15 16 14 13 13 13 14 14 14
15 15 19 26 28 22 33 30 31 33 34 29 37 38 41 36 35 33 33 32 31 30 29 28 26 24 22 20 19 18 17 14 14 12 13 16 15 15 15 12 12 12 12
11 13 18 19 21 23 36 33 28 33 35 21 34 37 38 39 37 34 32 30 29 27 27 26 24 23 21 20 20 18 17 15 14 13 12 14 13 14 15 14 13 12 11
17 16 15 17 23 28 31 34 30 35 36 21 27 33 35 37 36 34 31 28 26 25 25 23 22 21 21 18 17 17 16 15 14 15 13 12 13 13 14 14 13 13 12
15 22 22 23 30 33 29 31 30 35 34 26 28 30 30 34 34 34 32 28 25 24 23 21 21 20 18 16 16 15 15 14 14 13 14 13 13 12 13 15 15 14 13
15 19 24 29 34 36 33 27 30 35 39 36 33 25 28 32 31 31 30 29 25 23 22 20 20 19 19 17 15 14 15 13 12 13 13 13 14 13 13 16 17 15 15
14 17 23 25 29 32 34 34 28 29 37 41 41 26 31 30 30 30 28 26 25 23 21 20 18 17 16 15 10 13 15 13 15 17 14 14 15 16 15 13 14 15 18
12 15 22 29 24 34 29 30 31 30 33 37 38 32 33 31 31 30 26 25 24 25 23 20 17 17 17 17 9 6 10 15 18 18 18 18 18 17 17 17 15 15 19
13 15 21 25 30 31 30 25 27 28 32 33 35 33 31 31 31 29 26 25 26 25 22 21 22 16 11 18 9 4 3 8 19 23 23 22 20 17 16 19 20 22 21
16 18 18 25 31 32 30 27 25 29 26 27 34 30 30 30 31 29 26 25 27 24 25 26 24 22 16 18 22 8 3 6 3 9 23 26 25 21 19 21 24 25 25
20 17 18 22 29 33 33 28 28 30 27 29 33 36 31 28 30 29 25 26 24 22 21 25 23 24 20 17 16 27 19 5 5 3 8 14 22 26 26 26 24 27 28
24 23 21 23 25 28 35 36 30 27 27 25 30 36 32 28 31 30 26 23 23 20 26 27 26 26 28 19 21 12 20 16 15 7 7 7 15 19 23 25 27 24 24
24 25 23 25 25 27 30 35 32 27 28 26 30 35 33 35 32 32 30 28 26 24 23 24 25 25 28 28 26 20 17 11 15 13 7 19 10 10 19 18 23 26 25

GFSSE_925_spd_054.txt.gz
Wind_Speed
9 17 21 25 31 37 33 26 28 30 33 34 34 34 33 34 32 29 30 28 27 27 25 23 23 23 23 25 25 26 27 29 29 29 28 28 28 27 28 28 28 28 29
13 18 20 21 29 34 31 28 37 32 32 33 33 34 34 35 32 30 31 29 27 26 24 25 23 22 22 24 26 28 31 31 30 31 29 28 27 27 27 29 28 26 27
17 20 18 18 23 26 31 34 39 36 34 34 34 33 33 38 34 32 32 29 29 26 25 24 24 23 23 25 29 29 29 30 28 26 24 23 23 24 25 26 26 27 26
18 21 21 20 23 27 30 35 37 36 36 34 35 33 34 35 36 33 32 31 30 27 26 25 24 24 24 28 27 27 28 29 26 22 21 21 21 23 24 25 25 26 26
19 21 22 22 23 25 30 34 35 35 36 35 36 35 35 35 35 33 32 32 29 27 26 26 25 25 27 29 27 28 30 26 21 22 21 20 20 22 23 24 24 26 25
18 23 24 26 27 27 34 35 37 37 36 35 35 34 34 35 36 33 32 32 30 28 26 25 25 25 28 29 29 29 28 25 20 21 20 20 20 21 22 23 23 24 25
21 22 21 29 28 25 26 35 37 38 37 37 36 35 33 34 36 35 34 33 31 28 26 25 26 28 27 28 29 30 27 22 20 21 21 20 21 21 22 23 22 23 24
18 19 22 27 30 27 28 31 38 37 33 36 36 36 35 35 36 36 33 30 27 28 26 26 26 27 27 27 28 24 24 21 19 20 20 21 21 21 21 21 21 22 22
15 20 21 24 24 29 30 31 35 35 34 34 36 37 37 35 37 36 32 28 27 26 27 27 26 26 26 25 24 25 24 19 18 20 20 20 21 20 20 20 20 20 21
12 18 17 20 18 20 24 25 28 34 34 32 34 34 38 36 36 35 32 28 28 30 28 27 26 25 25 24 25 25 24 20 18 18 18 20 20 19 19 19 19 20 19
9 15 22 28 23 22 23 21 24 26 30 34 37 35 39 30 30 29 26 29 31 31 28 27 27 26 25 25 24 24 17 16 16 16 17 20 18 18 18 19 19 18 18
6 14 22 25 40 24 26 27 26 25 29 33 33 34 30 30 28 24 27 31 33 31 29 27 27 26 22 20 20 14 13 15 15 16 18 20 18 17 17 17 17 17 17
3 10 17 34 29 26 26 27 24 25 29 32 32 29 27 25 26 24 26 28 29 29 24 24 25 18 17 19 17 12 15 14 15 16 19 19 18 18 17 16 17 16 15
4 6 15 26 30 36 35 35 33 33 35 36 36 32 29 27 28 26 26 27 28 25 23 22 19 15 16 16 15 15 14 13 13 15 17 17 16 15 15 15 15 15 14
6 9 10 21 28 30 32 33 31 37 40 37 35 28 28 28 26 27 26 26 26 23 22 21 18 17 16 16 15 15 13 12 12 13 15 17 17 16 15 15 14 13 13
5 5 9 11 19 24 24 28 28 42 40 35 30 28 25 27 26 25 24 23 22 21 20 18 18 17 16 15 14 13 12 12 11 11 12 14 16 17 16 15 14 13 13
8 9 8 11 14 17 27 23 32 37 40 33 26 27 26 24 25 24 22 21 20 19 20 18 17 16 15 15 14 13 11 11 10 10 11 11 12 16 17 17 16 15 14
8 13 12 11 17 23 25 26 35 37 34 29 25 24 23 26 26 23 21 20 19 18 18 16 16 15 15 15 14 12 11 10 9 9 9 10 12 12 16 17 17 17 15
10 16 15 15 22 27 28 27 34 34 31 26 23 21 24 24 23 20 20 19 19 18 17 15 14 15 15 15 13 12 11 10 10 11 11 12 12 12 13 18 19 17 18
11 17 20 19 24 23 27 27 30 34 30 27 26 20 18 21 23 20 19 18 19 18 16 15 15 14 15 14 13 12 12 12 12 13 13 11 12 14 14 13 16 18 21
12 13 21 25 28 27 28 26 25 28 37 35 38 22 18 23 24 21 20 19 20 19 18 17 15 15 14 14 12 10 11 12 13 14 14 14 15 15 15 14 16 16 19
16 16 21 24 31 31 29 27 23 29 34 35 38 25 19 23 23 23 21 21 21 19 18 17 17 15 14 16 13 13 6 12 17 20 18 19 19 18 18 18 19 19 17
20 20 19 24 31 32 32 27 22 24 25 28 31 29 26 23 25 25 24 22 23 21 20 20 18 16 15 16 17 10 5 6 9 13 21 21 19 20 20 20 22 21 20
21 21 21 22 30 31 34 30 32 30 27 29 35 29 28 25 26 27 24 23 23 22 21 21 19 19 19 17 17 22 20 13 5 6 10 14 20 19 21 22 21 21 21
21 23 23 23 25 31 34 32 34 27 26 26 27 27 27 26 27 26 24 24 24 22 21 22 20 20 21 23 18 15 19 20 18 14 10 12 15 22 23 22 24 20 22
22 23 24 25 26 30 35 32 35 32 28 26 30 29 33 33 28 25 25 23 25 22 21 22 21 19 21 21 21 20 19 15 16 18 13 20 14 11 20 22 25 23 21

GFSSE_925_spd_057.txt.gz
Wind_Speed
4 12 19 16 26 29 30 30 30 29 29 27 28 28 27 27 30 29 27 28 25 25 23 23 24 24 24 24 24 28 30 30 30 30 29 28 27 27 28 29 28 27 28
6 10 19 17 24 31 31 31 31 31 28 28 29 30 28 26 28 29 30 30 28 25 23 22 23 24 24 25 27 29 30 30 30 29 29 28 28 27 28 28 27 25 27
9 13 16 21 24 26 26 27 31 36 35 31 29 30 30 26 30 31 31 29 28 25 23 22 22 23 24 28 30 31 31 31 29 27 25 23 23 24 25 26 25 25 24
10 15 17 19 20 25 27 25 29 29 36 35 32 30 29 28 27 30 32 30 28 28 22 22 22 23 24 28 29 30 28 28 25 26 21 20 20 22 24 23 23 24 24
8 15 19 20 21 22 26 28 31 33 33 34 34 32 32 30 31 31 33 30 30 27 24 23 23 23 25 26 29 29 25 20 16 17 19 19 20 20 23 23 23 23 24
9 17 20 20 22 22 27 32 35 36 36 35 33 36 34 32 32 31 31 30 30 27 25 22 22 22 24 24 26 27 25 22 19 19 19 21 19 21 22 24 23 23 23
11 16 21 23 25 22 25 32 35 39 38 35 38 36 35 33 30 29 29 30 29 28 25 23 22 24 23 27 28 24 21 17 18 19 19 19 20 21 20 22 22 23 22
10 16 19 21 26 23 25 23 24 35 37 37 38 36 33 30 29 30 31 32 31 28 26 23 24 24 25 26 25 21 19 18 19 19 20 20 21 22 20 21 21 21 21
8 12 15 17 20 22 23 24 28 38 42 41 38 35 32 33 32 28 32 32 29 27 26 24 25 24 25 26 20 21 17 16 17 20 20 21 20 20 20 21 20 20 20
7 10 9 12 15 17 18 18 20 28 35 40 37 36 36 36 34 28 29 29 27 27 27 26 25 24 24 22 20 18 18 18 18 18 18 20 21 20 19 20 19 19 19
8 8 14 9 10 12 13 18 17 20 26 31 35 34 36 31 31 29 25 28 28 28 27 25 24 23 22 22 22 23 14 14 15 16 17 20 19 19 19 18 19 18 18
8 9 14 17 15 10 9 15 15 22 15 27 27 30 32 31 27 23 24 28 28 28 26 25 23 23 21 19 18 11 7 12 14 15 17 20 19 18 18 17 18 18 16
3 5 14 20 23 13 10 15 18 25 26 25 26 31 30 27 24 22 26 28 26 26 23 21 23 18 18 18 14 8 14 11 14 15 19 18 17 17 17 16 16 16 15
4 4 7 26 18 23 22 21 23 23 28 30 30 31 28 28 23 24 24 25 26 24 22 20 17 16 16 15 10 13 12 13 14 15 17 18 17 16 15 15 15 15 15
2 5 9 27 21 20 23 26 27 26 28 33 34 31 28 22 25 25 26 27 25 23 21 20 15 15 15 14 13 13 11 11 15 15 15 17 17 16 15 14 14 14 14
6 8 10 20 23 24 23 25 30 33 39 40 39 35 29 24 24 25 26 27 26 24 21 19 16 16 16 15 14 13 12 13 12 14 15 17 18 17 16 15 14 14 14
8 11 12 14 19 29 29 29 30 36 42 45 40 35 26 25 25 24 26 26 25 23 21 17 16 16 16 16 15 14 12 12 11 12 14 15 15 18 18 18 16 15 15
10 10 11 12 16 19 22 24 24 34 40 40 41 31 28 25 22 22 22 21 20 18 19 18 18 17 17 17 16 15 13 12 12 11 11 14 16 15 19 19 19 19 17
13 15 13 13 16 19 20 23 25 33 40 40 29 28 27 25 22 20 20 18 20 20 19 18 17 17 17 17 16 14 13 13 13 12 12 12 13 15 19 22 23 21 19
14 17 14 14 18 21 23 24 25 31 32 31 24 23 26 25 26 21 16 15 19 18 18 17 17 17 17 17 16 15 13 13 12 13 13 14 14 15 17 21 23 22 23
15 16 18 20 22 25 26 26 27 27 29 30 23 24 25 23 22 23 18 15 19 17 17 17 17 16 16 15 14 13 14 14 14 14 15 16 17 16 15 15 18 21 26
17 17 21 22 27 26 26 26 29 28 25 30 26 23 25 17 18 24 18 20 23 18 17 19 18 17 16 16 15 15 7 13 18 19 19 19 18 17 17 19 19 20 22
20 21 21 26 29 24 26 23 25 24 25 20 25 26 23 18 21 22 21 25 25 20 22 21 20 18 17 17 18 12 6 8 15 22 23 20 18 19 18 20 20 20 20
20 20 21 25 29 26 30 26 29 27 28 30 32 31 30 19 18 26 27 24 23 24 20 22 22 20 17 18 16 20 21 16 3 3 14 20 20 20 20 21 21 20 20
22 23 23 24 28 28 29 31 27 27 31 32 28 30 31 25 29 28 30 27 24 24 23 22 23 23 22 19 16 16 18 19 17 11 7 9 14 18 20 23 23 17 17
22 24 24 26 28 30 30 32 32 27 28 28 31 31 31 30 31 38 31 28 27 25 24 24 25 24 24 22 21 18 17 14 14 14 9 15 16 18 18 18 27 25 27

GFSSE_925_spd_060.txt.gz
Wind_Speed
11 12 17 21 18 22 22 25 27 27 25 25 24 24 24 24 24 26 25 28 29 28 24 24 23 21 23 25 27 29 31 32 32 32 31 30 28 28 30 29 30 29 30
7 12 17 20 22 22 23 25 26 27 28 28 27 26 25 25 26 27 29 30 30 28 27 25 24 23 24 26 28 28 30 31 31 31 30 28 27 28 28 29 30 29 28
4 9 14 18 23 24 24 24 27 28 28 30 32 28 27 27 26 29 30 31 30 28 26 27 25 24 24 27 28 30 31 32 30 27 25 27 26 25 27 27 28 27 27
5 11 12 16 20 24 25 24 25 26 26 27 31 33 30 28 27 29 29 29 29 28 24 26 26 23 26 28 29 29 27 25 25 26 24 24 22 23 25 26 26 26 26
5 11 14 15 18 21 25 25 24 26 26 28 29 30 33 32 29 29 28 28 30 28 25 25 26 27 29 29 28 28 27 27 21 20 21 22 23 23 24 25 25 26 26
5 7 13 17 19 20 22 24 26 30 33 33 32 29 34 30 31 29 28 28 27 28 27 25 25 30 28 27 26 23 20 15 13 27 25 22 24 24 24 24 25 25 25
5 7 16 17 17 21 19 23 29 34 38 37 36 33 32 35 31 30 28 27 28 28 27 25 26 29 29 26 26 24 18 10 22 23 21 21 21 22 23 24 24 25 25
6 10 8 16 18 19 20 22 25 27 34 37 38 38 36 35 34 31 29 28 27 25 25 26 29 27 26 26 24 17 17 20 25 24 23 22 22 22 23 23 25 24 25
6 7 11 12 16 17 18 17 18 7 14 29 41 40 37 35 33 30 29 28 26 25 25 26 27 29 28 26 23 14 14 25 27 23 22 22 21 21 22 22 23 23 23
7 8 11 9 14 13 17 14 19 13 7 22 39 40 39 35 33 32 30 27 26 24 25 26 27 29 27 24 19 17 24 24 22 24 23 21 20 20 21 22 21 22 22
6 5 4 7 8 13 12 16 16 11 3 20 39 40 37 37 31 31 29 26 25 25 26 26 27 28 25 21 22 24 19 21 26 22 22 20 20 19 19 20 20 20 20
6 5 5 10 11 16 17 17 18 19 11 12 33 36 32 33 34 31 25 25 25 26 25 25 25 25 22 24 21 14 14 24 23 21 22 19 19 19 18 19 19 19 17
4 5 8 13 15 19 23 23 22 19 17 13 29 34 31 30 30 27 31 28 27 25 24 23 24 24 23 21 15 7 14 23 23 21 21 18 18 18 17 17 17 17 16
7 5 8 15 17 15 24 23 28 29 28 24 27 30 33 27 24 28 31 30 28 24 24 26 26 22 18 16 9 15 16 26 24 21 21 18 17 16 16 15 16 17 15
2 5 4 13 19 16 19 23 26 30 32 31 31 31 33 28 23 23 31 28 26 24 22 26 23 22 20 15 12 17 6 25 20 19 22 20 17 16 15 15 14 14 14
6 4 4 12 16 20 20 20 25 28 34 39 36 34 30 28 25 27 29 27 27 24 21 20 17 21 21 15 16 13 14 21 19 16 21 19 18 15 16 15 14 14 13
10 9 8 12 18 19 19 22 23 27 33 36 39 38 36 28 27 27 31 31 28 25 24 21 22 20 18 18 16 13 13 15 19 22 19 20 19 17 18 17 16 15 15
17 12 12 12 14 19 19 21 23 29 35 40 43 43 39 30 29 29 30 31 30 29 28 21 23 20 19 19 18 15 15 13 15 21 19 19 21 22 21 20 19 17 17
15 15 12 14 14 14 16 17 22 27 32 42 43 45 36 27 24 26 30 29 29 31 27 23 22 21 21 20 21 18 17 16 16 14 20 22 21 20 22 24 23 21 18
18 14 14 14 14 14 13 13 19 22 35 37 43 42 32 23 23 23 20 19 21 24 21 22 21 20 20 20 21 20 17 17 18 18 16 17 22 25 24 20 25 25 22
19 17 17 16 17 16 19 20 24 23 26 34 35 34 31 28 25 16 14 16 17 18 19 18 18 16 15 20 16 20 17 14 17 20 19 19 20 19 18 23 24 26 27
23 21 19 19 21 21 25 19 18 31 28 32 27 27 25 29 29 20 18 21 20 15 19 20 20 16 15 19 12 17 3 11 19 20 22 24 23 22 24 19 25 21 23
22 23 23 22 25 23 25 24 23 25 29 28 23 29 26 28 29 28 25 29 30 20 18 20 22 18 18 18 21 10 3 4 13 22 30 25 26 24 22 23 23 22 20
22 24 26 24 27 24 27 25 29 24 26 30 28 32 29 30 32 32 26 29 29 25 19 24 26 23 20 21 23 24 19 6 2 2 19 27 22 25 29 26 23 27 25
21 27 27 26 27 27 28 28 28 26 27 32 23 27 30 34 29 31 30 24 24 28 28 28 27 27 23 21 24 23 28 20 12 8 3 9 26 27 26 27 28 24 25
24 27 29 29 28 29 31 28 29 29 29 30 26 28 27 26 31 30 32 28 27 26 31 24 26 27 29 25 24 19 15 7 9 10 4 8 17 22 28 29 31 34 35

GFSSE_925_spd_063.txt.gz
Wind_Speed
9 15 18 21 25 24 22 22 22 23 23 22 21 22 22 25 26 28 30 30 29 28 26 24 24 24 26 28 31 34 34 34 35 35 33 29 28 29 30 32 34 33 31
12 14 17 19 24 25 22 23 23 22 21 22 23 24 24 26 26 27 29 29 29 30 27 25 25 25 27 29 32 35 35 35 34 32 30 28 26 26 27 27 27 27 29
9 11 18 20 20 20 22 21 23 22 22 22 23 26 28 27 28 28 29 30 30 29 28 26 27 28 30 31 32 33 34 32 32 30 29 27 26 26 27 27 27 25 25
9 12 15 20 20 22 20 21 22 22 23 24 24 26 29 29 30 30 30 31 30 29 27 26 27 29 34 34 33 32 32 30 29 27 27 25 26 25 26 26 27 26 26
5 12 14 19 21 21 22 22 24 24 26 27 28 28 29 30 34 33 30 29 29 28 26 25 27 31 33 34 33 32 29 25 26 24 25 25 26 24 25 25 25 25 24
9 7 13 17 20 22 24 25 26 27 28 31 31 31 30 33 35 32 30 26 27 26 26 26 30 34 33 33 34 34 25 21 28 25 26 24 25 21 22 24 24 24 25
6 5 17 16 16 21 24 26 27 29 29 31 34 34 33 34 33 32 30 27 28 27 26 28 36 33 33 30 27 22 17 30 29 28 24 22 20 21 22 23 24 24 25
7 3 7 16 16 17 21 25 27 28 28 30 35 37 37 34 33 34 30 29 29 27 27 31 33 31 30 26 23 23 33 31 28 26 26 23 21 20 21 23 23 24 24
5 4 7 10 14 14 18 19 19 20 14 15 25 36 37 36 36 35 32 31 28 26 28 32 32 31 28 24 23 23 31 25 23 28 26 23 21 20 21 22 22 22 23
11 9 9 10 12 13 14 18 20 18 22 15 16 15 32 35 37 35 32 29 26 24 29 31 30 29 28 24 23 35 26 25 25 29 26 23 21 20 21 21 22 21 22
11 8 6 8 12 13 18 16 17 15 19 25 25 22 33 36 36 34 29 27 27 27 28 28 30 29 28 24 31 32 28 27 26 28 25 23 20 20 20 20 20 20 20
9 7 4 8 13 18 22 21 22 22 24 29 22 27 31 36 35 33 31 27 26 26 28 29 29 28 28 27 28 18 30 29 27 29 25 22 20 18 19 19 19 18 18
11 9 5 11 14 20 23 27 25 23 23 18 27 42 37 37 35 33 31 27 27 28 28 28 27 25 28 24 22 22 31 26 27 28 24 22 19 18 18 17 17 17 17
13 10 9 13 15 20 25 25 25 23 20 24 28 39 39 38 35 34 32 32 30 29 28 28 28 26 26 20 14 12 28 26 23 27 24 23 20 18 17 17 17 16 15
15 15 11 16 18 21 23 23 27 26 26 32 40 39 35 35 36 36 34 32 29 28 30 30 27 29 25 14 15 24 27 23 24 27 25 22 20 18 16 16 15 15 14
16 11 12 18 19 22 23 24 30 29 32 39 46 40 38 36 36 37 34 32 30 29 31 32 27 26 20 13 14 12 24 24 23 27 26 23 20 19 17 15 15 14 14
14 12 13 21 23 23 24 25 28 30 35 38 37 46 45 37 33 34 35 35 30 29 33 29 25 25 19 17 17 17 25 23 22 24 26 23 21 19 17 17 15 15 13
17 16 14 19 26 24 24 25 27 27 33 37 43 43 42 38 34 35 34 37 31 30 31 28 23 29 24 22 18 18 22 22 21 23 23 24 23 20 19 17 16 16 16
19 17 15 17 25 26 25 26 27 29 34 40 43 43 38 37 37 35 36 38 33 32 31 27 31 27 29 24 18 16 17 22 22 23 22 24 23 22 22 22 20 17 17
21 17 15 17 18 21 20 21 23 26 30 41 44 41 41 38 36 31 37 39 37 34 32 27 31 27 29 28 24 18 16 15 20 21 20 23 23 23 22 23 23 23 21
23 21 19 18 20 21 21 21 20 22 22 34 38 40 43 37 26 29 29 32 29 34 32 37 32 27 28 29 26 23 19 21 21 21 18 23 25 25 25 25 26 27 27
29 24 22 20 20 20 20 21 20 25 27 34 35 42 37 26 26 30 26 33 17 33 24 34 28 22 25 28 17 20 2 8 20 25 23 24 25 27 27 28 29 28 29
30 28 25 23 20 19 22 21 22 22 25 22 32 32 35 28 25 31 25 31 23 26 32 28 26 21 15 19 17 15 3 4 7 18 27 28 28 26 25 28 30 28 29
29 30 25 23 23 22 23 25 25 24 23 23 29 23 30 32 32 29 31 32 31 27 21 24 25 21 23 21 20 22 17 9 3 1 16 29 28 31 30 30 34 32 31
34 32 26 25 27 25 27 29 25 24 22 27 27 25 26 31 34 32 30 29 30 27 26 24 24 28 27 27 24 25 24 17 12 3 3 7 27 30 32 34 33 33 33
33 33 29 27 26 26 28 29 28 27 26 23 27 28 25 30 32 33 33 30 31 31 28 27 32 31 31 29 25 29 25 15 15 7 3 7 18 27 36 34 36 39 40

GFSSE_925_spd_066.txt.gz
Wind_Speed
13 14 16 20 22 23 23 23 22 20 20 24 30 34 36 36 35 35 34 32 30 30 28 27 26 25 26 29 29 31 32 32 32 32 31 29 29 29 30 34 33 32 31
14 14 18 21 22 23 24 21 21 21 21 22 26 30 33 33 33 32 31 31 31 29 27 27 27 25 29 31 34 35 34 33 31 30 29 27 26 26 27 30 30 30 30
11 15 19 22 22 22 25 26 21 21 21 22 25 28 30 31 31 31 30 31 31 29 27 26 26 26 29 33 34 36 35 33 32 30 28 27 24 24 23 23 23 21 22
12 16 18 21 23 22 23 26 26 21 21 22 25 27 29 31 32 33 31 30 29 27 27 28 27 28 32 35 35 35 33 32 29 29 30 27 24 22 22 22 22 21 21
16 19 19 22 24 24 24 25 26 26 23 24 26 29 30 32 31 31 31 30 31 31 27 28 30 32 34 34 34 33 31 30 28 27 29 26 25 22 23 23 23 22 22
15 19 19 21 24 26 24 25 26 28 28 29 29 30 30 31 31 32 32 31 28 30 29 28 31 38 35 33 32 31 32 30 29 27 27 26 24 21 22 22 23 22 22
14 12 19 19 23 25 26 27 28 29 30 32 33 33 33 33 34 33 32 28 26 28 28 30 34 37 38 35 27 26 30 29 28 28 26 21 21 20 21 22 21 21 21
11 10 18 21 20 20 24 28 33 33 32 32 34 36 38 37 36 33 30 28 28 29 29 32 34 34 35 29 22 28 28 28 29 27 23 23 21 21 22 22 22 21 20
10 8 12 19 19 19 22 26 27 32 30 23 17 23 31 37 37 33 32 32 28 27 33 35 33 32 27 20 25 30 28 28 29 29 26 23 21 21 22 23 21 20 19
12 10 12 13 15 17 17 23 24 20 20 26 14 15 21 25 34 33 33 33 29 28 36 35 32 29 23 26 32 29 27 26 31 30 25 23 23 22 22 22 21 20 19
14 12 12 14 15 16 15 15 18 22 28 27 23 19 16 18 27 30 31 31 31 31 35 33 31 27 22 31 32 30 27 28 30 28 26 24 24 23 22 21 20 20 19
16 12 9 11 15 17 18 20 21 24 28 31 29 30 20 18 25 32 31 31 30 35 33 33 30 26 28 34 34 29 26 28 27 27 26 24 23 22 22 21 19 19 19
17 12 9 11 14 19 22 23 23 25 25 28 30 40 33 33 30 34 33 31 31 33 31 30 29 27 33 25 27 26 27 26 28 28 26 24 22 22 21 19 18 17 17
18 13 12 11 15 21 23 24 24 24 26 30 34 35 31 33 38 36 32 32 32 34 34 33 31 29 26 21 25 29 25 25 29 29 26 24 22 21 21 19 17 17 17
20 17 14 13 18 20 24 26 26 27 28 25 29 33 30 42 37 35 32 34 35 35 35 34 31 30 26 22 20 27 26 26 28 29 27 24 23 21 20 19 17 16 15
21 18 16 17 19 21 23 25 25 23 23 23 27 35 39 44 43 39 37 36 37 35 34 33 32 30 24 16 18 29 25 26 29 28 27 23 22 21 19 19 18 16 15
24 18 15 19 20 22 21 21 24 24 21 22 31 39 41 41 43 40 38 37 34 36 36 32 31 29 21 15 21 27 26 28 27 28 27 25 22 21 20 19 18 17 16
25 21 18 19 22 23 22 23 25 26 29 29 36 43 38 38 41 40 37 38 37 36 34 32 33 29 20 15 21 26 27 26 25 27 26 25 23 21 20 20 19 19 18
27 25 22 22 23 25 22 24 25 24 35 35 36 35 35 38 40 39 39 39 38 37 37 33 31 28 23 19 20 25 28 25 26 27 26 24 23 22 21 20 19 19 18
30 27 25 23 26 25 25 26 25 26 32 35 37 36 38 36 37 38 38 39 40 40 40 35 31 28 27 24 21 24 22 24 25 26 25 25 24 23 21 21 21 20 18
32 30 28 27 26 27 27 25 22 25 29 33 36 33 41 35 37 37 37 39 39 39 40 36 29 33 31 27 23 21 21 25 25 26 25 25 25 24 24 24 24 24 23
31 32 29 28 27 28 27 24 18 22 26 30 37 33 37 40 37 36 35 39 39 40 38 36 33 29 27 32 17 16 3 7 24 28 27 25 26 26 28 28 28 28 27
28 33 33 31 29 28 27 23 17 20 17 23 28 32 36 36 37 34 33 38 39 38 36 35 37 31 23 33 26 11 2 4 5 18 27 29 29 31 31 30 31 31 32
27 33 33 30 29 26 25 23 24 20 15 18 25 31 35 36 28 30 32 36 31 36 34 39 36 34 29 27 22 25 15 10 4 1 16 30 30 32 33 33 32 33 34
30 31 34 31 29 27 28 27 24 18 19 20 23 28 31 35 27 32 32 38 26 32 33 34 24 30 31 33 24 25 26 15 11 3 3 7 25 32 36 36 34 34 34
27 29 33 33 31 30 29 30 28 24 19 22 22 25 32 32 30 30 31 34 33 26 26 30 34 30 30 32 34 27 26 13 10 5 2 5 10 20 37 37 38 38 38

GFSSE_925_spd_069.txt.gz
Wind_Speed
11 17 16 18 21 20 20 24 26 24 24 29 36 37 37 37 36 35 33 32 30 28 26 26 27 27 23 25 27 28 30 31 30 30 29 28 28 28 28 30 31 30 30
15 18 18 20 22 22 21 23 27 29 27 29 36 37 39 38 37 36 34 31 29 27 26 26 29 28 27 27 30 31 33 32 30 29 29 27 27 27 28 31 30 28 29
17 18 19 22 24 24 23 23 25 29 32 32 36 39 38 38 38 36 34 30 28 27 26 27 27 28 29 31 31 33 33 32 30 28 29 28 24 25 24 24 26 28 26
17 18 21 23 25 25 25 24 24 25 30 35 35 34 35 36 36 35 33 31 29 29 27 26 28 28 31 33 34 33 31 30 28 28 27 25 22 20 19 20 21 19 22
18 19 20 22 26 27 26 25 25 25 27 31 35 35 33 33 33 33 32 31 30 29 27 27 27 29 33 34 33 31 30 29 29 28 25 24 21 19 19 19 20 20 19
18 19 20 22 25 27 28 27 26 26 27 29 32 35 35 35 34 33 32 31 30 30 28 28 28 32 34 34 33 31 27 29 30 29 27 24 22 21 19 20 22 21 20
18 19 20 23 24 27 28 29 29 28 30 32 35 36 37 36 34 33 32 32 31 31 30 30 32 34 34 33 32 31 28 27 28 27 26 22 20 20 20 20 21 20 21
16 17 19 23 25 25 27 28 30 32 32 35 35 36 34 37 36 35 33 31 29 30 31 33 35 34 31 31 30 29 28 26 26 26 26 21 20 19 20 20 21 20 21
15 15 17 22 23 25 24 25 26 25 29 29 26 27 28 27 35 35 32 31 33 32 33 33 36 35 30 27 28 29 27 27 27 24 24 22 20 20 21 20 21 21 22
15 11 14 21 18 20 20 21 23 17 19 22 14 15 24 21 21 26 26 31 34 33 33 34 37 33 26 26 30 28 27 27 25 26 24 22 20 20 20 20 21 21 21
14 12 13 17 17 19 16 18 22 24 20 29 27 25 26 27 20 21 27 30 31 35 36 35 32 25 25 29 30 27 26 26 27 27 22 23 21 20 19 20 20 21 21
15 14 14 16 17 16 16 17 20 22 30 33 32 39 32 26 23 22 23 29 28 38 37 33 27 26 30 33 29 26 24 26 26 26 25 24 22 22 20 19 20 21 20
20 16 15 15 16 18 18 21 23 27 29 31 33 39 34 24 31 27 25 27 29 36 38 32 27 31 35 34 30 25 24 26 26 26 25 24 23 21 20 20 19 19 19
21 18 15 14 16 18 19 22 27 27 33 36 35 36 36 31 34 29 28 31 32 36 37 34 29 30 34 32 27 23 26 27 26 27 25 23 22 21 20 19 19 19 19
23 20 17 15 17 16 18 21 24 27 32 34 35 36 31 33 34 36 35 33 34 39 39 36 32 31 30 27 25 26 26 26 27 27 26 22 20 20 19 19 18 18 18
27 23 20 19 17 17 19 20 22 24 25 27 30 31 34 35 35 37 36 36 37 39 39 39 36 32 27 27 27 27 26 25 27 27 26 23 21 20 19 18 18 17 17
29 25 23 20 18 19 19 20 20 23 23 24 25 33 34 36 39 35 36 37 38 37 39 36 32 30 25 23 29 27 26 24 26 26 26 25 23 21 20 19 18 17 16
29 26 23 22 21 20 20 19 20 21 21 21 25 32 40 38 37 38 38 39 40 38 37 35 30 30 25 23 28 29 26 25 26 27 24 24 23 23 22 20 18 17 17
31 26 23 23 22 20 19 18 19 21 21 19 25 27 36 39 35 35 36 38 39 38 38 38 33 30 24 22 26 29 26 27 25 26 24 24 23 23 22 21 19 19 18
28 25 23 21 23 21 20 19 19 19 20 20 25 26 26 32 37 37 34 35 37 38 35 38 36 29 25 25 23 25 26 24 24 26 25 24 24 23 22 21 21 20 20
27 25 24 20 24 25 23 21 17 19 20 21 23 28 28 30 32 33 32 34 35 36 36 37 38 30 24 26 23 15 18 21 23 25 25 25 25 24 23 22 22 22 21
24 27 26 20 24 27 24 22 17 20 21 24 27 29 26 27 30 32 34 33 36 34 31 36 35 27 23 28 14 15 3 4 17 23 25 27 26 26 26 26 26 25 24
24 25 29 28 23 23 26 23 19 18 17 20 23 27 27 29 32 30 33 35 33 34 35 34 34 33 22 29 22 10 3 3 4 13 26 29 30 30 30 29 29 28 28
26 27 29 24 23 24 27 25 22 18 12 17 20 27 30 34 35 30 26 33 35 34 34 38 35 34 30 24 22 20 17 13 3 2 13 32 33 33 34 33 32 32 32
26 27 28 24 26 27 27 27 25 17 16 16 19 25 29 30 34 34 31 31 36 37 38 42 36 34 34 30 26 20 18 14 11 3 3 7 29 38 37 37 36 35 35
23 24 24 25 28 29 27 26 25 20 17 17 20 23 25 29 33 35 29 30 35 42 41 41 38 35 36 35 38 32 26 14 11 6 3 4 11 22 37 38 38 39 39

GFSSE_925_spd_072.txt.gz
Wind_Speed
16 15 13 19 20 21 24 23 23 24 28 34 35 32 32 33 33 33 32 32 30 30 31 30 27 25 24 24 25 27 28 28 28 28 27 27 26 26 27 27 28 28 28
15 18 19 21 23 22 24 24 24 24 30 33 35 33 34 34 34 33 32 31 29 28 27 29 28 25 25 27 28 29 29 30 29 29 29 27 27 27 28 29 29 28 29
18 20 20 22 22 22 25 26 26 26 29 33 34 35 36 35 34 33 32 31 29 27 26 28 27 26 27 29 31 32 32 32 31 28 29 29 27 26 27 26 27 26 28
19 20 22 23 25 24 25 26 26 25 28 33 35 37 38 37 34 33 31 29 27 27 27 27 27 26 29 31 34 33 32 31 29 30 29 27 25 23 24 22 25 26 26
20 19 22 24 24 25 26 27 27 25 27 32 37 38 38 37 36 34 30 27 26 28 28 28 28 29 31 33 33 33 31 30 29 28 27 24 22 18 19 20 20 21 22
22 19 21 23 25 25 27 26 28 29 30 31 36 38 38 38 37 34 32 28 27 25 25 27 28 31 32 32 33 31 29 29 28 25 24 21 19 17 18 18 19 17 18
22 21 21 20 24 24 24 27 26 28 31 32 35 37 37 35 36 36 33 29 30 28 27 28 29 33 33 32 30 28 28 29 28 26 23 21 20 18 19 19 19 18 18
18 19 17 19 22 23 24 26 26 26 29 31 33 34 34 34 24 29 30 31 31 30 30 32 33 32 33 31 29 28 28 28 26 26 25 21 20 19 17 18 19 19 20
15 17 16 17 20 22 23 22 23 23 22 24 23 20 25 22 26 22 22 28 30 30 32 32 34 35 33 30 28 27 26 26 26 26 24 22 19 19 19 18 20 19 20
15 15 15 17 20 21 19 20 22 23 23 22 22 25 13 18 23 24 24 27 30 32 32 34 34 34 31 29 27 26 25 25 24 24 24 22 21 19 18 20 19 20 20
15 14 13 16 18 18 17 18 17 20 19 24 30 28 21 22 23 24 23 25 32 32 34 34 32 31 28 27 27 25 27 25 24 23 24 21 20 19 20 20 20 19 19
18 16 13 16 17 16 17 17 20 23 21 33 33 30 33 30 24 27 23 22 28 32 34 33 33 29 28 29 27 26 25 24 23 23 22 21 20 19 19 20 20 20 18
23 18 17 16 17 17 16 18 24 30 31 31 28 32 28 36 31 29 25 22 25 32 33 34 30 28 28 30 28 25 23 24 24 23 23 21 20 19 18 18 20 19 18
22 20 17 17 17 17 16 19 23 27 28 28 32 33 39 35 36 35 31 29 26 36 36 35 33 30 30 30 28 24 24 24 23 24 23 21 20 18 18 17 17 18 17
23 21 19 18 18 18 16 19 23 27 30 33 35 40 40 39 34 36 33 28 31 38 36 34 33 33 33 31 26 24 24 23 24 25 23 21 19 18 17 17 16 17 17
25 24 19 18 20 18 17 21 23 26 29 32 37 42 39 35 34 34 31 34 34 40 36 32 33 35 33 30 26 25 25 23 25 25 24 21 19 18 18 17 16 16 16
28 25 22 21 19 19 18 18 21 24 25 28 34 35 37 37 35 33 32 34 37 40 36 31 30 32 32 30 26 27 22 22 23 24 24 23 19 18 18 18 18 17 17
28 25 22 21 20 19 19 19 19 17 21 22 24 32 37 32 34 33 33 33 38 40 38 34 33 32 31 27 28 25 22 22 23 24 23 24 23 21 19 18 17 16 16
29 26 23 21 20 18 17 16 16 16 20 20 23 24 30 34 33 35 32 32 37 39 37 35 34 32 28 27 28 26 24 22 23 22 23 23 23 22 21 19 18 17 16
27 26 22 20 20 18 16 18 16 14 16 18 17 23 31 31 38 35 33 33 36 37 37 36 36 31 28 26 23 22 21 21 21 23 23 22 22 23 23 22 20 19 18
27 26 22 21 22 20 19 16 17 16 15 16 14 7 35 30 40 34 33 33 36 37 36 34 33 33 25 26 24 13 12 17 20 21 22 22 23 23 22 22 21 21 21
27 28 20 21 23 23 23 18 14 16 14 14 15 17 27 26 31 33 32 34 36 37 37 38 34 28 21 30 13 14 3 3 13 20 22 23 23 23 23 23 23 23 23
26 26 23 23 23 24 24 19 14 14 9 12 16 18 21 25 28 31 30 29 33 36 36 38 36 31 23 30 22 8 3 3 5 14 23 22 24 24 26 26 26 27 27
26 23 23 22 22 24 24 21 21 14 10 10 16 20 21 25 26 29 31 28 31 32 33 37 38 31 29 26 24 10 12 10 3 2 9 18 23 28 29 30 32 31 30
25 24 27 23 21 24 25 23 22 16 15 14 15 18 22 25 29 31 32 35 34 34 35 34 36 35 27 29 23 21 14 14 12 4 3 5 23 33 35 35 35 35 36
22 21 26 20 18 21 24 24 23 20 16 13 14 17 21 24 30 32 29 37 33 33 32 32 36 36 32 24 33 28 23 13 8 4 0 4 13 21 30 37 40 40 39

GFSSE_925_spd_075.txt.gz
Wind_Speed
15 16 15 19 19 22 23 23 23 25 33 33 31 31 31 32 31 30 28 28 27 26 26 25 25 24 23 24 25 25 26 25 25 26 26 25 24 24 25 26 25 23 26
21 17 15 18 18 23 24 24 23 24 31 34 32 33 33 33 33 31 30 27 27 27 25 25 24 25 25 25 27 27 28 28 27 26 26 25 25 24 25 27 26 26 27
19 19 18 18 20 23 23 22 22 25 30 35 34 35 35 34 34 34 32 29 28 27 25 24 24 23 25 27 28 28 29 29 30 28 27 25 24 25 26 27 28 28 27
18 19 20 20 22 24 25 24 23 23 27 32 35 35 36 35 35 35 34 31 30 27 25 22 22 24 27 28 30 31 31 31 30 29 23 23 23 25 25 26 25 26 27
20 20 21 22 23 24 26 25 25 24 27 30 34 35 36 36 36 35 34 31 29 27 27 24 23 26 29 30 31 32 32 30 31 24 23 21 21 21 22 23 23 24 24
20 18 19 22 23 22 26 26 26 26 26 28 32 35 36 37 37 36 35 32 29 29 27 25 25 28 30 31 31 31 29 30 26 22 21 21 19 20 20 21 20 21 22
19 16 17 21 21 21 23 26 26 25 26 28 31 33 35 35 34 34 32 29 27 27 28 28 29 31 31 31 30 28 28 28 21 19 18 16 16 17 19 18 18 17 17
17 15 16 18 22 20 20 24 26 25 25 28 31 33 35 35 34 30 29 24 25 28 28 29 31 31 30 30 28 27 26 24 19 17 17 16 15 16 17 17 17 18 18
16 17 16 17 21 20 20 21 23 23 22 23 24 23 24 19 18 22 24 22 23 26 28 29 32 32 30 29 27 26 25 22 17 17 16 16 17 17 16 17 18 17 17
17 15 16 15 19 20 20 20 22 22 21 21 19 21 19 20 15 15 19 23 22 27 29 31 32 32 31 28 26 25 24 21 17 17 15 18 19 18 17 18 19 20 19
16 16 16 16 16 18 19 20 20 22 23 22 22 22 22 28 28 21 16 19 24 26 30 33 32 32 31 27 26 24 22 15 16 15 15 19 17 18 18 17 19 19 19
16 17 17 17 16 18 19 18 19 20 23 24 25 29 28 30 26 28 23 23 26 27 32 32 33 31 28 23 22 22 15 17 14 15 16 23 18 18 18 18 18 18 17
17 17 17 16 17 18 19 18 20 22 23 26 32 33 36 28 25 28 30 27 25 25 28 29 30 26 22 22 20 17 17 17 14 16 19 19 18 18 18 18 18 17 16
16 17 18 18 17 18 17 17 23 26 27 29 32 37 32 27 31 35 35 27 27 30 29 26 25 22 22 22 21 19 17 15 16 16 19 21 19 18 18 17 17 17 17
19 18 20 19 18 18 16 18 22 25 29 30 33 33 34 32 32 34 33 28 32 33 30 27 23 22 23 23 20 19 18 15 16 16 19 20 19 18 17 17 16 16 16
20 20 21 19 18 18 19 19 21 23 30 32 34 34 37 36 30 34 32 32 32 34 30 26 23 21 21 20 21 19 17 16 17 18 18 19 19 18 17 17 16 15 15
21 20 21 20 19 19 19 19 21 24 24 26 30 31 35 35 34 35 31 33 33 34 32 24 21 19 19 19 18 18 16 18 17 18 17 17 17 17 17 16 16 15 14
20 22 19 20 21 20 21 18 20 20 24 28 30 34 36 38 35 33 32 33 35 33 35 25 23 20 20 19 18 17 16 17 17 17 16 15 15 15 16 17 17 15 15
22 21 21 21 21 21 19 17 16 19 21 22 27 30 31 33 36 33 34 36 36 32 36 28 22 22 21 19 16 15 15 15 18 16 16 16 15 15 14 16 16 17 16
22 23 22 22 21 21 18 14 14 14 16 17 20 21 27 26 37 33 34 37 37 31 29 26 23 21 22 19 16 14 12 13 14 14 15 15 15 15 14 13 14 14 17
23 23 23 23 22 22 16 15 17 17 16 17 18 18 22 29 37 36 38 39 36 32 32 35 25 23 17 18 17 11 9 10 11 12 13 14 15 15 14 15 15 14 15
27 26 24 22 23 21 15 19 12 18 17 17 14 16 20 30 30 39 37 38 34 28 28 34 31 25 17 23 13 17 6 6 10 14 17 15 16 15 16 17 17 18 18
27 29 26 24 21 21 20 17 12 16 14 14 14 14 15 28 34 38 35 34 33 30 32 35 34 29 20 22 18 10 4 5 9 9 16 16 17 20 17 18 21 22 23
27 25 24 24 22 23 22 20 19 12 12 12 18 16 21 21 29 32 26 30 35 32 31 33 33 32 26 24 20 8 12 11 5 4 8 18 21 22 22 21 21 26 27
23 25 23 23 21 22 22 23 20 15 13 15 15 16 18 22 26 31 30 30 31 32 33 34 31 27 27 25 22 14 9 8 9 4 4 10 17 24 24 24 28 29 29
23 23 24 25 22 23 22 21 22 20 18 16 17 13 17 20 22 26 30 30 29 30 33 35 36 36 29 25 25 22 17 12 9 6 2 9 17 15 24 26 30 31 32

GFSSE_925_spd_078.txt.gz
Wind_Speed
12 15 18 19 20 21 23 22 22 24 26 26 26 28 28 28 28 29 29 28 26 23 21 20 20 18 18 18 20 21 22 21 23 24 24 23 23 24 25 24 22 22 25
17 16 17 19 19 20 21 22 23 25 27 28 28 29 30 30 31 31 31 31 28 25 22 21 20 19 19 21 22 23 23 24 24 24 24 24 23 24 23 22 22 24 26
18 16 16 14 18 20 21 21 22 25 29 31 30 30 32 32 32 32 32 31 29 27 26 25 22 21 21 23 24 24 25 24 24 24 23 20 21 23 23 23 25 25 25
16 15 16 17 16 20 21 22 22 24 28 32 31 32 33 33 33 33 33 32 30 29 28 25 23 22 22 24 24 26 26 26 26 25 20 21 21 23 24 24 25 25 25
14 14 14 17 17 20 20 21 22 23 26 30 32 33 34 34 34 34 33 33 32 29 29 25 23 23 25 26 27 27 28 27 23 19 20 21 21 23 22 23 23 23 22
13 13 15 17 17 18 20 20 21 21 24 27 31 33 33 32 34 34 33 33 32 31 27 24 23 26 28 28 28 28 28 28 20 18 18 19 18 20 22 22 22 24 24
13 12 13 16 17 17 22 21 21 21 24 26 29 31 32 33 33 32 33 31 29 28 26 24 26 28 28 29 30 29 27 22 14 17 17 16 18 19 19 20 20 21 21
15 12 13 18 17 18 19 22 22 22 22 25 28 26 31 30 31 34 31 29 27 24 23 25 27 30 30 30 30 28 28 17 13 13 14 14 17 16 15 16 17 16 16
15 14 13 17 17 17 17 20 23 21 19 19 20 20 22 19 25 28 26 23 21 20 26 27 28 30 29 29 28 28 26 18 11 10 11 11 12 15 15 15 15 15 14
15 13 13 15 17 16 17 17 19 21 19 17 18 18 19 26 22 21 17 19 18 23 25 27 29 29 29 28 26 26 22 18 11 10 8 12 13 14 14 13 15 15 15
15 15 13 14 15 18 15 17 19 20 19 19 18 19 21 27 22 20 25 23 20 18 22 27 30 29 27 25 24 22 18 12 11 9 9 14 17 14 16 15 16 16 16
16 14 13 16 14 16 18 13 16 16 20 18 18 20 20 25 24 24 27 25 24 23 21 24 29 28 26 20 19 20 12 11 11 10 11 17 17 15 15 15 16 16 17
16 15 14 14 13 15 18 14 15 16 18 20 20 22 25 23 21 22 26 26 25 26 26 21 25 25 21 20 19 16 12 13 10 10 13 18 16 17 16 16 16 16 16
20 18 16 15 14 15 14 14 14 15 16 19 21 22 24 24 22 20 28 22 27 28 28 26 26 24 21 19 18 15 13 11 10 11 15 17 18 17 16 16 16 16 16
22 20 18 15 15 15 15 14 16 15 14 19 21 24 25 24 22 22 21 24 29 30 32 29 25 22 20 18 17 15 14 11 12 12 14 16 17 16 16 16 16 16 15
24 21 19 16 14 13 13 15 16 13 15 18 23 25 24 26 24 25 27 25 28 33 31 26 24 22 20 18 17 15 13 12 13 13 14 17 15 16 16 15 15 15 14
24 22 21 18 15 15 13 13 15 18 19 17 19 23 25 27 28 29 29 28 30 34 31 25 24 22 20 18 17 15 13 13 15 14 14 15 16 16 15 15 14 14 15
24 24 21 18 18 16 13 12 14 17 19 20 21 24 25 26 26 25 28 28 32 35 33 24 24 23 21 20 17 16 13 13 15 15 13 14 16 14 14 13 13 14 14
24 25 23 20 19 17 14 14 14 13 18 21 22 24 25 28 27 33 31 29 34 35 34 25 24 23 21 20 18 15 14 13 14 15 14 14 14 14 13 15 15 15 14
24 25 22 21 20 17 15 14 13 12 17 18 20 23 26 30 31 35 31 34 34 35 31 24 25 23 22 21 19 17 14 13 13 14 15 15 14 13 13 13 16 15 16
24 26 24 23 22 21 17 15 14 12 15 16 18 17 19 31 18 36 34 36 36 39 37 28 25 25 23 21 19 15 13 11 12 13 14 15 16 15 15 14 15 15 15
26 27 26 25 24 22 19 16 12 15 16 15 16 16 15 18 25 35 36 36 38 36 34 29 28 26 24 25 21 19 7 7 12 15 15 16 16 16 17 18 18 16 15
27 29 27 27 25 23 19 16 13 14 10 11 15 13 17 18 21 29 37 38 37 36 35 30 28 29 26 27 25 21 7 6 14 16 17 16 16 16 18 19 20 19 19
25 25 26 26 26 24 22 18 17 15 10 11 12 14 12 12 23 28 39 37 37 33 32 31 30 29 26 26 24 25 18 10 11 6 16 19 18 19 20 19 20 21 21
25 27 27 26 25 24 22 18 17 13 13 12 12 13 13 13 20 27 36 35 36 33 29 30 29 29 27 26 25 25 17 12 17 10 7 14 18 21 21 22 22 23 22
25 26 27 27 25 24 22 20 19 16 16 15 13 12 14 17 19 21 27 28 32 31 28 30 30 31 28 25 25 23 22 20 15 13 8 13 18 20 23 24 24 25 22

GFSSE_925_spd_081.txt.gz
Wind_Speed
9 14 18 18 17 17 18 18 20 20 19 19 20 21 22 21 22 24 25 25 25 25 25 23 20 17 14 14 14 14 14 14 16 18 20 20 20 23 23 22 20 20 23
13 14 19 18 19 20 21 20 20 21 21 21 21 22 23 23 24 25 25 25 26 26 25 24 22 18 17 17 18 18 18 19 21 22 22 21 22 21 20 18 21 22 23
15 15 19 19 19 20 22 23 22 22 23 23 23 23 25 25 25 26 26 26 26 25 25 23 22 21 19 20 20 20 21 22 22 21 20 19 18 20 21 20 22 23 23
15 14 15 19 18 17 20 21 22 23 24 25 25 24 23 26 27 25 27 27 26 24 22 23 22 22 22 22 22 22 22 22 22 22 17 19 18 21 21 23 22 23 23
15 13 15 15 17 18 18 19 19 21 23 26 26 25 26 27 27 26 28 28 26 24 22 21 24 23 23 24 23 23 22 22 20 12 19 19 19 20 22 21 22 21 21
14 12 15 14 15 17 17 18 19 19 21 24 26 27 27 28 28 27 27 29 27 25 24 23 22 21 24 24 25 24 23 22 14 18 18 19 19 21 21 21 21 22 23
13 13 13 15 15 16 18 18 18 18 17 19 21 25 27 29 28 28 29 31 28 26 24 23 23 22 25 25 25 25 25 21 16 18 16 16 19 20 21 21 22 23 23
13 12 11 16 14 14 17 17 17 16 16 19 21 21 27 26 28 28 30 29 25 24 20 22 23 25 26 26 26 26 24 16 16 17 16 17 20 19 19 19 19 18 18
13 12 11 14 13 14 13 16 16 16 15 17 18 17 19 19 21 19 24 23 22 19 20 23 24 27 27 27 26 24 20 15 15 15 16 16 16 16 16 17 17 15 15
14 12 11 13 12 11 11 12 16 17 15 14 15 16 17 20 22 18 11 11 19 14 19 21 23 26 28 28 27 25 18 13 16 15 19 14 16 14 12 13 13 13 14
16 14 12 13 13 11 11 12 13 16 17 16 14 16 17 16 19 18 22 13 15 19 16 18 19 26 26 27 26 24 18 12 7 15 17 18 16 12 13 13 13 14 13
19 17 14 13 13 12 11 13 13 14 16 16 14 15 16 17 18 21 31 17 20 19 22 17 17 22 25 21 21 20 15 10 11 10 16 16 15 16 15 13 14 13 14
20 18 17 14 14 13 12 14 13 16 16 18 17 16 17 19 20 23 18 24 26 25 22 23 21 21 21 21 20 18 13 10 11 12 17 16 16 16 15 15 15 15 15
23 21 18 16 16 14 11 14 14 13 16 15 17 17 17 18 24 21 20 27 27 28 27 27 27 24 21 20 21 18 13 13 10 16 16 15 17 17 15 15 15 14 15
23 22 21 19 17 14 15 15 15 13 12 16 17 19 19 20 23 22 20 25 25 28 31 32 31 26 21 21 19 15 14 9 11 12 13 15 18 18 16 15 15 15 15
26 25 22 20 18 16 16 15 14 13 11 13 15 17 20 21 21 24 24 23 23 27 31 30 31 28 23 22 22 17 16 11 11 9 13 15 16 16 16 15 16 14 14
25 25 25 21 19 17 17 13 12 13 15 16 16 17 20 19 22 22 21 24 24 30 30 30 28 25 25 23 20 17 14 12 14 13 15 16 15 16 16 15 16 15 14
25 27 26 23 20 19 16 14 12 13 13 15 17 21 18 17 20 22 24 24 23 26 28 29 27 24 23 20 21 18 15 13 14 14 15 16 16 14 14 16 16 14 14
24 27 26 23 22 20 16 15 13 12 14 17 15 18 17 18 20 24 23 27 27 28 29 29 24 23 23 22 20 18 16 15 14 15 15 15 16 16 15 16 17 15 15
24 27 26 24 22 20 16 14 12 10 14 15 13 15 15 18 23 24 28 29 29 28 31 31 24 21 22 23 23 16 14 15 15 15 16 16 16 16 16 19 18 16 16
24 27 27 25 24 22 19 17 15 13 13 12 12 14 16 17 18 22 26 31 30 31 31 34 26 24 23 27 15 20 12 9 9 15 16 16 15 16 17 19 18 17 18
24 27 27 26 26 23 19 16 12 15 13 13 13 13 14 17 19 20 34 33 34 31 34 33 26 24 22 26 20 19 4 4 8 11 14 15 15 16 17 17 16 16 18
24 28 28 27 26 23 19 16 13 14 10 12 12 12 13 14 14 17 28 35 33 36 37 36 30 27 20 23 25 19 6 5 13 16 16 17 17 18 19 19 19 19 19
25 26 28 27 26 24 21 18 18 18 14 15 13 11 10 11 14 18 20 38 39 38 36 36 32 28 26 24 23 24 19 10 11 6 16 17 15 18 18 18 19 21 22
25 26 27 27 26 24 24 19 19 18 16 13 12 11 11 8 10 13 25 32 36 36 38 35 30 29 25 24 22 19 17 16 13 11 9 15 20 21 22 23 20 22 23
24 26 28 29 27 25 24 19 18 16 16 13 13 12 13 10 9 12 25 31 34 34 38 38 32 27 25 21 21 19 15 12 9 10 4 13 17 20 20 20 23 23 22

GFSSE_925_spd_084.txt.gz
Wind_Speed
16 23 20 19 16 16 16 16 16 16 15 14 14 14 14 13 14 15 16 17 18 19 20 21 23 19 15 12 12 12 12 12 13 17 19 21 22 23 22 22 21 23 24
22 22 19 17 16 15 16 16 17 16 16 16 16 15 15 15 15 16 17 18 19 20 20 19 20 18 15 13 11 12 13 14 17 19 21 24 23 22 19 21 22 24 23
20 22 20 17 16 16 16 16 17 18 17 17 17 17 17 17 17 18 19 20 21 21 20 19 18 16 16 18 17 16 17 18 20 21 22 21 21 20 22 20 25 24 23
18 21 19 18 16 16 17 17 17 17 18 18 17 18 19 19 19 19 20 21 21 20 19 19 17 18 17 17 18 19 20 21 22 23 21 19 19 20 21 24 24 24 24
18 17 16 17 16 15 16 18 17 17 18 18 19 18 19 20 20 21 20 22 22 21 20 20 20 20 20 20 19 20 21 20 19 15 21 21 20 21 23 23 24 24 24
17 16 15 16 15 15 15 16 16 16 17 18 19 19 20 21 22 22 21 22 24 22 20 21 21 20 21 20 21 21 22 20 16 20 20 20 22 23 23 23 23 24 25
15 14 14 13 14 14 14 14 14 14 15 16 17 19 20 21 22 22 23 24 26 24 23 23 22 21 22 21 22 22 23 19 19 23 23 21 23 24 24 23 25 25 24
14 9 10 12 13 12 14 13 13 13 12 12 14 16 18 20 21 19 20 22 25 23 22 21 21 22 23 22 23 26 22 18 19 19 21 22 21 23 24 24 24 24 22
14 11 8 12 13 11 13 13 12 13 12 13 14 15 15 16 15 19 19 12 13 12 19 20 22 22 24 23 24 27 20 18 16 20 22 24 20 20 21 21 20 19 20
14 13 10 11 11 11 11 12 13 13 12 12 14 13 14 12 17 19 19 20 14 14 16 17 19 23 24 23 26 26 19 16 19 19 21 20 18 17 15 16 17 17 18
18 14 15 14 11 11 10 8 10 13 12 12 13 13 13 15 17 19 20 26 21 15 14 16 16 17 21 23 22 25 18 16 23 21 22 21 19 18 15 15 14 15 14
22 20 17 16 16 15 14 13 8 8 13 14 11 12 14 16 16 23 22 23 14 21 12 14 15 15 19 23 23 21 17 8 21 23 22 21 18 18 17 16 15 15 14
25 23 21 18 16 17 14 15 11 13 13 14 15 15 17 17 18 21 25 24 20 24 24 22 21 19 20 23 22 21 15 7 26 22 24 20 18 18 16 17 16 16 14
27 27 24 18 19 18 16 14 15 17 18 18 17 16 17 20 22 23 30 24 24 27 28 29 27 24 25 21 21 18 12 13 26 24 24 20 18 18 17 17 16 17 17
23 29 29 22 21 20 17 15 16 9 20 18 16 17 17 21 21 23 24 23 25 30 30 30 27 26 28 25 23 18 15 12 19 21 24 18 18 18 17 17 17 17 17
25 28 31 27 24 21 19 17 20 16 9 16 13 16 17 19 20 22 22 23 27 31 30 30 27 26 25 25 26 19 19 14 20 18 20 20 20 20 17 17 17 17 16
25 23 31 30 25 21 18 17 19 18 11 13 13 13 19 20 22 23 23 23 25 25 27 25 25 25 26 27 29 25 20 15 15 20 18 21 19 18 17 17 17 16 16
28 29 30 31 29 21 20 19 17 16 16 17 14 18 16 18 21 23 23 23 25 27 27 28 28 28 29 29 25 22 18 15 15 19 20 21 20 20 18 18 17 15 16
25 32 34 32 30 24 20 22 17 15 15 14 17 18 19 18 19 23 23 25 28 26 26 30 27 25 27 26 31 23 20 17 17 16 25 25 21 18 18 18 18 15 15
28 31 35 32 28 25 20 18 16 16 15 16 17 19 21 18 18 22 22 23 24 25 26 25 25 28 26 23 24 21 23 22 19 16 24 25 22 22 20 20 18 17 17
21 32 34 31 28 27 22 22 20 20 17 17 19 16 18 17 19 22 25 22 26 24 27 28 25 28 26 21 23 22 19 18 20 15 18 19 21 21 24 23 23 22 22
22 30 31 29 29 28 22 22 20 19 20 19 17 17 17 19 20 23 26 28 28 26 27 31 28 20 22 24 19 14 3 4 8 13 16 17 22 23 24 26 20 22 24
19 29 30 30 29 28 22 21 17 16 14 15 16 17 16 17 19 19 24 31 28 29 29 33 33 26 20 24 30 14 4 3 6 8 11 11 12 17 18 21 20 22 25
21 27 29 30 28 26 24 22 21 20 15 14 14 17 15 15 16 19 23 30 33 31 31 35 37 33 22 21 26 25 15 16 4 3 15 20 16 20 19 21 23 21 20
26 27 28 31 28 26 24 22 20 18 17 15 17 16 15 15 13 18 23 26 31 34 33 34 35 30 27 24 19 22 20 13 19 6 5 12 23 17 22 22 15 24 26
29 29 29 31 28 27 25 25 24 22 19 17 18 18 15 14 13 16 20 25 28 33 35 36 34 35 32 25 24 25 21 10 8 7 3 12 18 22 24 26 27 21 23

GFSSE_925_spd_087.txt.gz
Wind_Speed
22 27 24 23 22 21 20 19 19 17 16 15 13 14 12 12 12 14 16 20 21 20 22 24 22 19 17 16 17 14 13 17 20 20 21 24 26 26 24 22 24 25 25
28 27 24 22 21 20 19 19 18 17 16 15 14 14 14 14 14 14 16 18 19 20 21 22 21 17 16 16 15 15 15 17 19 23 25 26 26 25 22 22 25 25 25
27 26 24 21 20 19 18 18 18 17 16 14 14 14 14 15 16 16 16 18 19 19 19 21 20 17 16 15 15 15 15 19 22 25 26 27 25 23 22 25 25 25 25
23 26 24 20 18 17 18 18 17 16 14 13 13 13 14 14 16 17 18 18 19 19 18 19 18 16 15 16 17 17 20 22 23 22 24 23 23 23 23 25 25 25 25
23 23 22 19 17 16 17 16 17 16 15 13 13 13 14 15 15 16 18 19 20 19 19 19 18 18 19 17 17 20 23 23 20 19 21 22 22 22 24 24 25 26 26
20 19 19 18 16 16 15 15 15 15 15 14 14 14 14 15 16 17 17 19 20 20 19 20 20 18 20 19 20 23 24 23 19 21 22 22 23 22 24 25 26 27 27
22 17 18 17 16 15 15 15 14 14 14 14 14 14 15 16 17 18 18 18 21 21 18 20 22 22 21 21 23 25 21 19 25 24 22 23 23 24 25 25 26 27 27
23 21 18 16 16 16 16 15 14 14 14 14 13 13 15 15 17 17 17 16 14 12 13 16 20 23 23 24 26 26 21 24 26 25 26 25 23 24 25 25 25 25 25
18 18 17 18 18 17 17 16 15 15 14 13 12 13 12 14 15 15 18 17 16 9 11 14 20 24 24 26 28 25 24 24 25 27 28 26 24 23 23 24 24 22 24
18 13 13 17 18 17 17 16 15 15 14 15 15 15 14 13 15 19 20 22 21 14 15 18 22 25 26 26 30 26 23 22 23 26 28 27 23 23 22 22 21 20 22
20 16 14 15 17 17 14 14 16 15 15 15 16 15 14 15 15 20 22 23 21 14 24 20 20 19 22 26 30 26 21 22 22 24 24 27 23 21 20 19 17 16 18
25 22 18 15 15 16 15 13 14 15 16 16 16 15 15 16 16 19 18 21 22 18 21 17 20 19 23 27 29 24 20 19 21 24 24 25 23 22 21 19 17 17 16
31 29 25 20 17 17 18 15 15 13 17 18 16 16 16 17 17 18 19 22 23 22 22 18 19 18 23 27 28 26 20 14 25 25 26 25 22 20 20 21 19 18 17
30 35 30 25 25 23 19 20 17 17 17 18 19 17 20 19 18 18 21 26 26 25 26 29 24 21 24 28 27 25 19 17 30 26 27 23 19 20 20 21 20 19 17
24 32 35 31 29 27 23 21 19 19 22 19 22 22 21 21 20 20 27 28 26 27 30 31 27 26 25 28 27 25 16 25 29 29 27 22 20 21 20 19 18 17 18
27 32 40 36 33 29 29 24 21 13 26 23 24 23 22 21 22 23 30 29 26 28 30 30 30 25 26 26 28 27 19 25 29 29 27 23 22 21 21 20 19 20 19
25 27 43 39 34 32 33 25 25 16 21 24 23 21 20 21 22 24 26 29 30 30 30 30 27 25 24 24 27 26 20 28 27 28 27 24 22 20 18 20 20 19 19
34 28 44 41 38 36 35 30 23 21 20 22 22 22 20 20 23 24 26 26 28 30 32 31 28 24 23 26 23 21 26 29 28 28 24 25 22 20 21 19 18 19 18
38 27 39 43 43 40 31 25 22 20 20 21 22 20 18 20 23 24 28 26 27 30 31 29 26 30 27 28 27 25 30 28 28 22 25 25 23 23 22 22 20 19 20
39 28 43 45 42 37 28 25 23 21 19 23 22 21 20 19 22 25 27 28 30 26 26 27 30 29 27 26 27 21 24 22 22 25 26 21 24 23 22 23 21 20 19
36 33 39 37 38 36 34 33 28 27 23 22 21 22 20 21 23 25 28 29 29 28 28 28 27 25 24 34 21 20 23 24 22 21 26 26 25 25 24 24 24 23 22
27 33 36 39 43 39 37 33 25 28 22 21 20 18 18 21 21 25 27 28 26 25 25 28 26 20 20 28 17 20 4 8 17 18 30 29 27 27 24 24 27 26 25
23 37 37 40 40 35 34 29 18 23 19 21 21 19 21 22 22 24 25 25 26 25 25 27 28 26 20 27 22 14 6 4 8 12 23 25 27 27 29 28 29 28 26
29 38 39 40 39 33 32 30 30 24 19 20 26 22 22 23 24 23 26 25 28 28 28 31 32 31 25 28 21 20 13 19 7 2 11 15 14 27 29 32 29 26 24
31 34 36 39 37 35 32 30 31 25 22 24 21 20 20 21 22 24 24 27 30 31 32 33 35 33 30 27 24 23 16 22 19 4 3 9 19 19 21 22 25 26 25
28 36 38 40 36 39 33 33 32 28 24 24 23 23 24 22 20 20 23 28 28 32 32 34 39 37 32 29 29 26 21 11 13 6 2 5 16 22 23 25 23 23 27

GFSSE_925_spd_090.txt.gz
Wind_Speed
20 30 29 27 28 28 27 25 23 22 20 19 17 17 17 19 22 26 27 25 23 23 25 23 23 20 16 14 17 16 16 17 18 18 21 23 24 25 26 27 27 26 25
31 29 28 25 25 27 26 24 22 21 20 18 17 16 16 18 21 23 23 23 23 22 24 23 23 21 18 17 17 16 17 18 19 21 23 24 22 23 24 26 27 26 25
30 28 26 25 25 25 25 23 22 21 20 18 16 15 15 16 18 19 21 21 20 22 23 22 22 20 19 19 18 18 19 20 22 24 26 25 22 21 24 25 25 25 24
30 29 27 24 23 23 24 23 21 20 19 18 17 16 16 16 17 18 19 20 19 20 20 20 20 20 19 19 18 19 21 24 26 27 26 22 22 22 23 24 24 23 24
30 30 27 24 22 21 23 22 21 19 18 17 17 16 15 16 17 17 18 18 19 19 18 18 18 19 19 19 21 23 25 25 26 26 25 23 24 22 23 23 23 23 23
29 27 25 23 22 21 21 21 21 19 18 17 17 17 16 15 16 17 18 19 20 19 18 19 18 17 20 21 23 27 26 24 25 25 24 25 24 23 23 24 25 24 24
28 25 24 23 22 21 21 21 21 20 18 18 18 17 16 16 16 16 16 17 18 17 15 14 13 16 20 22 26 28 25 23 24 25 25 25 25 24 25 25 26 24 24
31 26 24 22 21 20 20 20 20 20 19 18 18 18 17 16 16 16 16 15 14 13 14 13 15 14 19 25 28 26 23 23 24 25 26 26 25 24 25 25 25 25 24
30 27 24 21 20 18 19 19 19 19 19 19 18 18 17 16 16 17 17 18 19 19 19 17 19 16 19 25 28 24 24 26 25 26 27 26 24 25 25 26 24 23 22
31 29 26 22 20 21 20 19 19 19 19 18 17 16 15 16 17 19 21 21 23 19 20 22 25 26 25 26 29 26 26 25 27 29 29 27 27 25 25 24 23 22 23
27 26 25 24 22 21 20 19 19 19 19 19 19 19 18 17 18 20 21 22 22 22 23 25 24 26 23 26 28 28 26 26 27 30 30 28 27 26 25 23 21 21 23
27 26 24 23 24 21 20 20 20 20 21 20 21 21 20 19 19 20 20 23 23 23 24 22 19 13 27 25 27 28 25 25 27 30 30 28 26 24 24 23 20 18 19
31 28 27 24 22 23 22 21 21 21 21 21 21 21 20 21 20 20 22 20 22 21 21 17 18 21 24 26 29 26 25 24 26 29 27 25 23 21 23 22 19 17 17
30 33 31 29 28 26 25 23 22 22 22 23 23 23 22 22 21 22 22 22 24 24 21 21 15 28 23 26 32 26 25 21 27 27 27 24 24 22 21 21 19 18 18
28 35 36 34 32 30 29 28 24 22 23 25 24 25 25 23 23 21 23 24 26 26 24 23 27 31 29 28 31 29 25 23 27 29 28 25 24 22 20 21 20 21 19
32 36 39 36 33 33 34 32 29 25 24 25 27 28 24 23 23 22 24 26 29 25 25 29 32 29 32 31 30 29 27 24 30 31 29 25 22 20 22 21 21 20 19
31 36 40 41 38 36 36 33 31 27 27 28 28 29 26 24 23 22 26 28 28 26 27 29 31 30 30 28 28 21 26 28 31 31 31 26 21 20 22 21 21 19 19
38 33 39 41 42 39 39 36 31 32 26 32 30 31 28 25 24 24 26 29 29 27 26 28 31 29 28 28 27 23 25 30 32 32 29 26 24 24 23 23 22 21 20
39 36 40 40 43 44 41 39 36 30 25 30 30 31 27 25 25 26 26 28 31 29 28 28 31 30 25 23 21 24 27 32 33 31 29 27 26 25 24 22 21 21 21
39 34 38 43 44 37 38 37 34 30 26 27 29 29 28 25 26 28 27 26 27 29 28 28 30 32 28 27 24 26 23 31 35 33 31 29 27 24 24 24 22 21 20
35 29 34 37 36 39 38 35 32 33 30 28 27 27 27 26 26 29 27 27 28 30 31 29 30 29 25 27 21 19 13 23 32 33 32 29 26 25 24 25 24 22 22
26 30 37 42 45 44 41 34 29 34 31 28 27 25 26 27 27 29 29 29 30 29 25 27 29 20 19 28 11 22 4 6 16 31 31 29 26 26 26 27 26 24 23
19 31 37 42 46 38 37 33 25 29 23 22 26 26 26 25 27 27 27 30 30 27 25 29 31 28 21 21 28 9 4 4 12 19 27 28 28 26 28 28 27 26 27
18 33 40 42 41 39 42 33 37 32 24 19 21 27 24 23 25 24 24 26 28 28 26 28 31 30 25 22 26 24 4 14 5 3 17 26 28 30 29 29 28 29 28
8 29 36 39 38 38 40 39 35 25 22 24 24 26 25 24 22 22 22 25 26 26 26 25 25 30 30 27 28 22 17 23 14 5 5 8 22 31 32 30 29 28 29
16 15 26 34 33 35 37 38 36 32 29 27 27 27 26 25 24 22 24 27 26 27 30 28 29 30 31 28 25 25 25 16 13 8 3 7 15 21 29 31 30 30 31

GFSSE_925_spd_093.txt.gz
Wind_Speed
19 31 30 29 28 28 28 27 27 24 22 21 22 21 21 24 24 26 26 25 24 22 20 20 20 18 14 16 15 16 16 14 16 16 18 20 21 22 24 23 22 24 23
31 33 32 29 28 29 27 27 27 26 23 21 21 22 21 22 26 26 25 24 23 21 20 19 19 17 14 16 17 16 16 19 20 20 22 21 21 21 23 23 24 24 24
31 37 33 31 29 29 27 25 26 27 24 21 20 21 23 24 25 26 25 23 21 20 18 19 18 17 16 17 17 17 17 19 21 23 24 23 21 20 23 23 23 23 23
37 38 35 32 31 30 27 25 24 27 26 23 21 20 21 23 24 24 23 23 21 21 18 19 17 17 17 17 16 17 19 20 22 25 24 24 22 21 22 23 23 22 22
35 36 34 32 31 28 26 25 23 23 25 24 22 21 21 21 23 22 21 19 20 19 19 18 17 17 17 17 17 19 20 21 23 25 26 24 24 23 22 22 21 22 22
34 34 32 30 28 27 26 24 22 22 22 23 23 22 21 20 20 21 20 19 17 19 18 19 18 16 15 16 19 20 21 23 24 25 24 22 25 24 22 22 22 22 22
34 32 30 28 27 25 25 24 23 21 21 21 22 21 20 19 19 19 20 18 19 19 16 15 14 16 18 20 22 24 24 24 25 25 26 24 25 23 23 23 23 22 21
38 35 31 28 27 26 24 23 22 21 20 20 21 21 21 20 20 19 19 18 16 14 14 14 16 18 18 21 24 24 24 25 26 25 25 24 25 24 24 24 24 22 22
36 35 33 30 26 24 24 24 22 21 20 20 20 21 21 21 20 20 20 19 18 18 18 19 19 19 20 21 24 19 23 25 26 26 25 26 24 24 24 25 24 23 22
31 32 32 30 29 27 25 23 21 20 20 20 20 20 20 20 20 20 21 21 21 20 20 18 20 21 20 18 20 17 24 26 25 26 26 27 26 24 24 24 23 22 21
23 28 29 29 28 28 26 24 22 20 20 20 19 19 19 20 20 21 22 22 21 20 20 21 23 24 25 24 20 19 26 27 27 28 29 28 27 25 25 24 23 21 21
25 29 29 28 28 27 26 25 23 21 22 21 21 20 20 20 20 21 21 20 21 21 20 23 26 24 24 26 26 22 28 28 29 28 29 29 27 26 25 24 22 21 21
31 27 30 29 29 29 28 27 25 24 23 22 22 22 22 21 21 21 21 21 23 21 21 22 22 23 25 29 28 29 30 27 29 29 30 27 28 24 23 22 20 18 17
22 34 33 32 31 30 30 29 29 27 25 24 24 23 25 23 24 24 23 23 23 23 22 23 23 24 26 30 29 28 30 28 28 29 29 26 23 23 20 21 21 18 17
24 27 35 34 35 34 33 32 30 30 29 27 25 26 26 26 26 26 26 25 24 24 24 23 23 21 29 27 25 29 26 27 27 28 29 25 21 21 21 20 19 18 18
35 35 34 38 37 36 35 34 33 30 29 28 28 29 27 28 27 26 27 24 22 25 27 25 23 28 29 28 26 26 25 25 26 28 28 26 23 20 18 18 19 18 18
32 38 42 39 40 39 38 36 34 32 30 31 31 30 29 29 27 27 26 24 22 24 25 25 24 29 29 29 28 26 27 23 26 29 30 28 25 21 20 19 19 19 19
35 33 41 43 40 41 40 38 36 33 32 32 32 31 31 29 27 26 24 26 24 24 25 24 28 29 24 26 27 28 27 22 24 27 30 28 24 20 20 21 20 19 20
31 38 37 40 41 44 42 40 37 36 35 35 32 32 32 30 28 26 25 25 25 25 25 24 28 28 25 25 27 28 27 26 25 28 30 28 24 22 20 21 21 20 19
28 30 38 41 45 43 38 34 36 35 34 34 35 34 33 32 30 28 26 25 27 24 24 23 25 26 26 24 20 25 27 27 27 27 30 28 25 23 23 23 21 19 19
30 25 32 36 38 36 33 31 27 33 36 33 35 35 34 33 30 29 27 26 27 28 26 28 24 24 21 23 18 13 18 18 25 30 31 29 27 26 24 25 24 22 21
31 26 30 37 40 41 38 36 25 31 30 35 36 33 33 32 30 29 30 26 25 27 27 27 27 19 17 28 11 12 2 2 11 25 29 29 29 28 25 26 25 24 24
23 19 28 38 42 43 35 31 22 27 21 22 30 32 32 32 30 30 30 27 28 27 28 29 29 24 20 23 22 8 3 3 6 10 22 29 31 31 28 27 27 25 24
29 25 30 35 40 35 36 38 37 35 20 26 29 34 34 30 30 29 29 29 29 30 28 27 29 28 25 20 22 24 9 8 5 4 12 25 29 31 29 28 29 28 27
29 32 25 33 32 32 43 39 38 26 24 21 23 25 32 28 27 28 28 27 28 29 29 27 27 27 29 23 25 17 16 15 12 5 6 7 20 29 29 28 30 31 29
31 30 14 25 27 30 32 34 36 33 31 28 27 23 30 28 26 26 25 25 26 27 27 28 28 29 29 26 26 25 26 19 14 7 3 7 14 19 30 29 30 29 29

GFSSE_925_spd_099.txt.gz
Wind_Speed
15 29 32 30 28 27 27 26 24 24 26 29 30 31 30 29 27 27 28 27 26 24 22 21 20 19 18 16 16 15 15 14 10 16 17 15 18 19 19 19 20 17 20
14 27 31 31 29 27 27 26 24 24 26 28 29 30 29 28 27 27 28 27 27 25 21 21 21 18 18 15 15 16 16 15 14 16 16 17 18 18 19 20 20 19 20
19 27 30 32 29 28 27 27 25 25 26 27 28 28 28 26 26 27 27 27 26 23 21 21 20 18 17 15 16 16 16 14 15 17 18 16 16 18 18 19 20 21 21
24 30 32 30 29 29 27 26 25 24 24 25 25 26 26 25 25 25 26 26 25 24 20 19 19 17 17 17 17 18 16 17 19 19 17 17 18 18 19 19 20 21 20
26 33 33 32 30 29 28 25 25 24 23 23 23 24 24 25 25 25 25 26 24 22 19 19 19 18 18 19 18 17 18 20 20 20 17 16 16 17 19 20 20 20 19
23 32 33 33 32 31 28 26 24 24 22 22 21 21 23 24 25 25 25 25 23 20 18 18 19 19 19 19 18 18 19 19 20 17 17 17 18 19 20 21 20 21 20
14 29 33 33 32 32 31 29 27 25 24 22 21 20 21 24 25 25 24 23 21 20 19 18 17 19 19 19 18 18 18 20 18 17 17 17 20 21 21 22 21 22 22
17 18 29 30 29 31 31 29 27 26 25 23 23 22 21 22 24 24 24 22 20 19 18 19 19 19 20 19 18 18 19 20 21 20 17 17 21 21 21 22 23 23 22
14 18 21 26 28 30 29 28 27 25 25 24 24 23 23 22 22 23 23 21 19 19 19 20 19 18 20 20 20 20 20 19 21 20 17 16 24 23 23 24 23 23 22
11 15 16 19 25 26 28 27 26 26 25 23 23 23 23 23 22 22 22 21 20 21 19 20 20 19 20 20 21 21 21 18 22 22 21 18 24 24 23 25 25 23 23
8 14 15 13 16 22 24 25 26 26 24 23 23 23 22 22 22 22 23 22 21 21 20 20 20 20 22 22 21 21 20 22 23 20 22 21 24 24 26 26 25 24 23
9 15 16 17 18 17 18 24 24 25 24 25 24 23 23 23 22 21 21 22 21 20 20 20 21 21 22 23 23 22 21 21 21 22 20 23 24 24 25 26 25 25 24
10 13 19 20 20 20 20 22 25 26 24 27 27 26 24 24 22 22 21 19 20 20 20 19 21 22 23 20 21 21 25 22 22 22 18 22 25 26 26 26 26 24 24
10 14 20 24 25 23 22 24 24 25 27 28 29 28 29 28 25 23 23 21 19 22 23 19 20 20 22 21 21 21 24 24 23 26 20 22 27 29 29 28 26 24 24
14 15 21 24 26 29 28 23 24 24 25 28 30 31 31 28 26 27 26 25 20 22 23 22 20 18 21 21 19 19 20 23 24 26 24 23 30 31 29 26 26 24 25
20 19 18 26 28 30 32 33 31 26 24 26 29 31 31 29 26 27 28 26 26 25 23 25 23 20 19 18 18 20 18 21 22 25 25 22 31 29 27 27 25 23 23
18 21 18 20 29 33 38 38 37 36 27 25 30 31 32 29 26 27 28 27 27 26 24 24 21 21 22 17 17 20 20 24 22 25 24 23 30 27 26 21 23 23 22
16 19 23 19 20 31 37 37 37 39 36 30 30 31 34 31 29 28 28 26 24 26 25 23 23 21 21 22 21 21 18 25 24 26 21 22 26 23 22 21 23 22 22
19 21 23 23 22 26 30 33 34 33 37 39 34 34 36 35 32 31 29 26 24 26 25 24 24 23 21 22 20 17 21 23 26 25 19 18 23 22 21 24 22 22 23
19 20 22 22 24 25 27 27 28 29 33 35 37 32 33 36 34 33 30 28 26 24 25 23 24 24 21 22 15 16 19 22 23 24 18 16 22 22 22 20 20 19 23
17 23 22 24 24 18 24 26 29 31 33 33 35 34 33 36 36 35 32 29 28 27 27 25 24 22 20 23 17 11 12 16 22 25 22 20 21 24 24 18 18 17 23
25 20 26 25 24 20 25 29 31 32 31 30 26 31 36 36 37 36 33 31 30 28 26 27 26 19 17 26 11 12 3 2 17 23 24 26 22 24 25 22 19 20 19
26 26 25 30 28 25 21 26 26 24 23 23 31 36 38 38 38 35 30 32 32 30 29 30 30 24 18 24 22 8 3 3 4 11 24 28 28 26 26 25 20 19 19
26 26 26 28 28 26 23 27 31 29 26 30 32 31 31 32 34 27 21 28 31 30 29 29 30 30 23 21 22 21 10 10 4 3 8 21 28 32 32 26 20 20 20
24 28 29 30 28 25 26 30 34 31 31 24 26 31 31 34 38 41 21 35 34 32 31 27 30 29 31 22 21 17 17 11 8 4 3 5 19 29 35 33 26 21 22
28 29 30 30 30 26 25 30 35 34 30 25 28 29 30 36 38 36 46 45 35 33 29 27 28 32 31 26 26 21 24 13 10 6 2 10 13 17 30 29 29 25 21

GFSSE_925_spd_102.txt.gz
Wind_Speed
9 17 31 30 29 27 25 23 22 23 24 25 25 27 27 25 24 24 25 26 25 24 22 20 21 19 19 18 16 14 12 9 9 12 11 12 14 16 18 19 19 15 20
11 18 31 29 28 27 26 23 21 21 23 25 26 27 26 25 25 25 26 26 25 23 20 19 19 17 16 16 15 15 15 12 10 15 14 14 16 16 18 19 15 18 20
12 20 30 29 29 28 27 24 21 21 23 25 26 26 26 24 24 25 26 25 24 22 19 19 18 17 17 15 15 15 15 14 14 15 14 12 13 16 18 19 17 20 20
10 19 25 31 29 29 28 25 23 22 24 26 26 26 25 24 24 24 25 25 24 20 19 18 17 18 17 15 15 16 15 14 16 15 13 12 13 15 18 18 18 20 20
11 19 23 32 31 30 29 27 25 24 25 26 27 26 25 24 24 24 24 24 23 20 18 17 17 16 16 16 16 17 16 16 18 16 10 12 14 15 18 18 18 19 19
11 17 20 30 32 30 30 28 27 25 24 25 25 25 24 24 24 24 23 24 23 21 17 16 17 16 16 16 16 17 17 18 17 13 12 12 14 17 19 18 18 19 19
10 14 13 26 27 28 28 27 26 25 24 24 25 25 24 24 23 24 24 24 22 20 17 16 17 17 16 16 17 17 18 18 16 12 11 12 13 18 19 20 20 21 20
10 12 13 21 24 25 27 26 25 24 24 24 23 23 24 24 24 24 24 24 22 19 18 17 16 17 18 18 18 18 18 18 14 13 13 14 15 20 20 21 21 21 22
8 14 15 17 21 26 26 25 24 23 23 22 22 22 22 23 25 24 24 24 20 19 18 18 17 16 19 19 19 18 19 20 15 15 14 14 18 21 20 21 22 23 22
7 12 15 16 15 17 18 24 23 22 22 22 21 21 21 21 23 24 25 24 21 20 19 19 19 18 19 20 19 19 19 20 15 16 17 15 17 22 21 23 24 23 23
7 12 13 13 13 15 16 17 22 22 22 22 22 21 20 18 20 21 23 24 23 22 21 19 19 19 18 20 21 20 20 17 18 17 17 18 20 25 23 25 25 25 24
7 12 16 15 13 15 14 15 17 18 19 19 18 18 19 19 19 19 21 24 24 23 22 20 19 19 19 17 18 20 19 18 19 18 17 19 19 25 23 23 27 26 25
4 8 13 17 19 18 16 14 14 17 19 21 21 21 21 20 20 21 19 21 20 22 19 19 18 19 18 18 18 19 21 18 17 17 17 19 20 24 23 23 26 26 26
7 6 9 13 16 19 18 18 16 19 19 21 25 26 24 23 21 20 22 20 22 21 22 19 19 19 19 20 18 19 18 17 17 16 16 18 21 22 24 32 29 28 28
8 7 9 12 16 18 22 21 22 22 23 23 21 23 23 20 21 20 20 21 21 20 22 20 19 19 19 19 19 17 18 18 18 16 15 17 18 24 25 26 30 29 29
10 8 8 11 16 18 20 22 24 24 25 23 22 24 27 22 23 22 22 21 22 21 21 20 19 18 18 18 18 17 18 18 18 17 19 16 17 23 27 33 32 29 28
12 11 10 9 13 19 22 23 24 24 25 26 24 26 28 30 24 24 22 22 21 19 18 17 16 16 16 16 18 17 18 17 18 19 20 23 21 17 29 31 34 30 28
16 16 14 12 12 15 22 24 25 25 25 25 24 25 28 34 27 26 22 23 22 22 19 19 20 19 19 18 17 17 19 19 19 19 23 27 28 16 30 32 26 25 27
14 18 20 16 15 14 19 24 27 29 28 26 25 26 28 35 32 28 25 21 22 27 20 20 20 20 16 18 17 16 17 19 19 16 25 22 21 17 24 30 27 24 20
15 16 19 21 19 18 18 22 26 28 28 29 29 29 27 32 35 30 25 24 25 26 19 19 18 19 18 16 14 13 15 13 13 14 19 21 16 20 29 27 26 21 24
16 18 19 21 21 20 19 20 25 28 30 32 33 33 29 27 35 32 28 26 28 27 23 22 17 20 18 17 13 10 8 12 14 15 16 19 18 21 12 20 23 21 25
18 19 20 21 23 22 21 21 25 27 29 31 30 30 27 31 34 34 31 30 29 25 25 23 20 17 15 23 8 8 3 3 11 16 17 22 22 15 15 14 19 20 21
23 23 23 23 23 24 23 23 24 28 27 24 28 29 34 32 33 33 32 31 27 25 25 22 22 21 15 22 20 8 3 4 3 8 19 16 20 20 19 22 19 16 17
20 23 24 23 24 24 23 23 24 28 28 32 31 33 32 34 36 36 37 37 32 28 25 24 24 22 20 20 19 24 12 8 5 3 9 21 22 26 27 25 28 23 19
20 24 25 23 25 26 24 23 26 29 32 30 26 28 29 35 40 38 38 37 40 36 31 26 24 26 25 22 23 18 16 12 10 3 3 7 19 26 27 30 28 29 25
21 22 24 24 27 26 25 25 27 32 35 30 27 26 27 31 36 39 37 34 33 30 31 33 31 27 26 24 26 21 23 13 14 8 3 9 12 14 25 29 33 32 29

GFSSE_925_spd_108.txt.gz
Wind_Speed
8 16 24 25 23 20 19 18 16 15 13 12 12 13 12 12 12 12 13 15 17 18 17 16 18 17 16 12 10 7 4 1 2 4 5 7 11 14 17 19 20 18 19
3 15 23 25 22 20 19 18 16 14 13 13 13 14 14 14 13 12 12 14 16 17 15 14 14 14 14 12 10 7 5 4 5 5 7 9 13 16 18 18 14 19 19
7 12 21 25 22 21 20 18 16 15 14 14 14 14 15 15 14 14 14 14 14 14 12 12 13 12 11 10 9 7 6 6 6 7 8 9 13 16 18 17 14 18 19
3 12 18 25 22 22 20 19 17 15 14 14 15 16 17 17 15 14 16 16 15 12 10 10 10 9 10 10 9 9 9 9 8 8 11 13 14 19 17 14 19 19 19
1 9 14 23 24 22 20 18 17 16 16 16 16 17 19 19 17 16 17 17 17 13 11 10 11 11 10 10 9 9 10 11 9 10 9 10 6 16 17 18 17 20 19
5 4 13 16 24 23 20 19 17 17 17 17 18 19 20 20 18 17 18 18 18 15 13 12 11 10 11 10 10 10 11 12 11 13 11 11 22 22 18 15 16 17 18
6 3 12 12 20 22 21 19 18 17 17 17 18 19 20 20 19 18 18 19 19 17 15 13 12 12 11 12 11 12 12 12 13 14 12 7 8 10 17 17 16 18 18
4 2 9 14 13 22 22 21 19 17 16 16 18 18 19 19 20 19 19 20 20 19 16 14 12 13 12 12 12 13 13 13 14 17 8 9 8 15 14 17 18 18 17
2 3 7 9 14 20 23 22 21 18 16 17 18 18 19 19 19 19 20 20 21 20 18 16 14 13 13 13 13 13 14 13 14 16 12 5 11 7 14 17 18 19 18
4 6 8 8 7 19 24 23 22 20 18 17 17 18 18 18 18 19 20 21 21 21 20 17 15 14 13 14 14 14 14 13 15 18 14 5 11 13 12 17 18 20 20
7 8 11 7 11 14 16 21 22 20 19 18 17 18 18 19 19 20 21 22 22 22 20 18 16 15 14 14 16 16 15 16 16 17 12 5 10 10 12 14 18 16 22
9 14 12 13 11 16 15 17 21 22 21 21 20 18 18 17 16 18 19 22 21 23 21 19 18 16 16 15 17 18 18 19 16 14 13 11 4 7 11 14 16 18 24
1 6 14 14 15 17 19 14 19 20 20 20 19 19 19 18 19 18 21 21 23 22 22 21 20 19 19 18 17 16 20 20 19 19 15 12 13 14 15 16 19 20 28
3 4 13 15 14 15 19 19 14 19 23 22 23 22 20 21 21 21 24 24 26 25 25 20 22 21 20 18 19 18 16 18 20 20 16 14 13 16 17 18 22 23 27
2 10 9 6 6 12 16 17 19 21 21 24 21 27 27 24 24 24 23 23 27 22 23 24 23 22 23 23 22 21 19 19 21 17 16 13 14 15 18 18 22 23 23
7 6 5 11 13 8 11 15 20 18 20 21 24 22 27 25 27 26 26 26 23 24 23 24 23 24 24 23 23 22 22 19 19 19 13 14 13 11 17 19 21 23 24
3 5 8 6 8 12 11 6 14 17 19 21 25 27 33 33 24 24 25 25 26 23 25 27 24 22 22 20 19 18 20 21 20 18 18 13 9 10 14 20 23 24 29
5 8 6 8 9 11 13 14 15 10 19 21 23 26 31 32 37 26 27 27 23 24 28 29 30 23 22 19 19 18 19 19 20 19 15 18 14 10 13 17 25 24 25
6 8 7 7 9 11 12 14 17 20 20 19 25 26 27 32 31 36 33 30 37 31 20 26 28 25 20 19 19 19 19 19 18 18 15 14 16 19 17 17 23 28 31
8 8 10 12 13 13 14 15 17 20 22 23 25 26 29 32 33 33 33 31 35 33 29 28 25 24 21 22 18 16 18 17 16 16 15 13 16 18 18 17 17 26 23
9 11 14 15 16 18 16 16 17 18 19 22 26 30 27 31 33 34 34 34 31 30 31 29 28 27 22 19 14 9 11 13 11 15 17 17 19 17 21 17 19 23 26
8 13 14 15 17 18 18 21 21 23 26 29 29 26 29 38 34 34 35 34 33 32 33 31 32 24 20 27 13 7 2 5 17 15 16 18 17 17 20 16 15 22 25
11 12 14 17 18 19 19 20 20 22 24 25 30 36 37 37 39 34 36 36 36 30 17 30 29 29 22 24 25 8 3 4 3 14 20 18 18 20 19 19 14 19 24
15 15 15 18 20 19 22 21 22 22 22 27 33 31 31 33 39 39 42 39 36 36 36 29 28 26 24 21 21 26 11 7 4 2 9 21 21 22 20 22 18 14 28
16 16 18 19 21 23 23 22 22 23 24 27 30 35 35 37 41 40 41 39 40 36 35 34 28 27 27 23 21 15 20 18 16 3 3 5 18 22 24 24 19 25 14
17 17 19 20 22 23 22 23 24 27 28 28 28 32 35 36 33 40 41 37 37 35 34 38 39 34 38 31 30 25 19 17 12 6 2 4 9 14 22 21 21 21 23

GFSSE_925_spd_111.txt.gz
Wind_Speed
6 14 21 22 22 21 21 20 18 17 15 13 13 14 13 13 12 13 13 13 15 16 16 16 16 17 16 12 7 3 3 4 6 7 9 9 14 17 19 19 19 20 21
7 16 21 22 21 20 20 19 17 16 15 14 13 14 14 14 13 13 14 15 15 15 14 14 14 14 14 10 8 5 2 2 4 6 6 10 15 18 21 15 17 20 21
8 14 21 22 22 19 18 17 17 16 15 15 15 16 16 15 14 14 15 15 16 15 13 12 12 12 11 11 9 7 4 2 3 4 6 10 16 19 18 14 16 20 20
6 11 18 21 21 20 18 16 15 15 14 15 16 17 17 17 16 15 16 16 15 14 12 12 12 11 10 10 9 8 6 5 4 6 10 10 13 15 14 12 16 18 19
5 12 15 21 21 20 19 17 15 14 15 15 15 16 18 19 17 16 16 16 15 14 12 11 10 9 9 9 9 8 6 6 5 6 9 8 11 10 8 12 15 17 18
9 14 14 14 23 20 19 16 15 15 14 14 15 16 17 19 18 17 16 16 16 14 13 11 11 12 11 10 9 8 7 6 7 6 5 11 11 14 8 12 13 17 18
4 4 14 9 20 22 19 17 15 15 15 15 15 16 17 19 19 17 17 18 18 16 14 13 11 10 10 11 9 9 8 7 7 4 6 10 11 17 15 13 16 17 18
6 4 11 11 11 19 19 18 17 16 15 15 15 16 17 19 19 18 17 18 19 18 16 13 11 12 12 12 11 10 9 8 8 8 6 12 12 10 15 18 19 19 20
11 9 8 12 12 14 19 20 18 16 15 15 16 17 17 19 20 19 18 19 20 19 17 15 13 13 13 13 12 10 9 9 9 7 8 16 13 15 21 21 20 22 21
14 11 12 10 9 12 20 22 21 19 16 17 18 18 18 18 19 19 19 19 20 20 19 17 15 14 14 14 13 12 11 11 10 8 6 5 8 14 19 24 24 23 19
15 16 13 12 10 9 19 23 22 20 18 18 18 19 19 20 20 20 21 21 22 22 21 20 17 15 15 15 14 14 13 13 12 9 8 11 16 19 21 21 22 21 21
16 18 18 15 13 10 14 19 22 22 22 21 20 20 21 21 21 22 21 22 23 23 23 21 19 17 17 17 17 16 17 15 14 11 7 11 15 15 17 16 19 20 21
6 19 19 18 16 12 14 16 18 24 24 23 22 22 22 21 20 20 22 23 24 24 25 24 22 21 20 20 19 17 17 18 16 14 14 10 12 14 15 16 18 20 20
6 17 15 14 14 15 16 13 22 21 24 24 25 23 23 23 23 23 22 23 25 28 28 28 26 24 23 23 22 19 18 16 17 17 16 15 15 14 13 16 19 20 19
17 22 16 10 4 6 12 21 15 18 21 25 27 28 27 27 28 28 28 27 28 29 30 30 29 27 26 26 24 23 21 18 14 15 16 16 15 14 15 17 20 21 23
16 18 17 16 12 7 4 12 18 19 21 22 24 29 32 30 29 29 30 33 30 33 33 31 32 29 28 26 26 24 24 22 17 17 16 15 14 14 14 16 19 20 24
20 16 17 15 14 14 10 8 4 14 20 21 24 27 27 34 31 31 32 32 35 33 34 31 29 30 30 27 27 26 24 21 18 17 16 14 14 14 12 13 19 21 24
24 23 18 17 15 13 11 11 11 11 11 12 22 25 28 30 32 29 33 34 35 34 36 35 32 31 34 32 27 25 23 21 19 18 17 17 16 14 13 14 18 22 22
26 24 21 17 17 14 14 14 15 16 15 17 18 18 26 29 34 37 36 33 29 26 36 40 39 37 33 31 30 26 22 19 20 19 18 18 18 17 18 17 15 24 25
25 21 20 19 18 17 15 15 14 14 14 14 16 20 22 28 30 35 38 42 39 35 28 37 40 40 36 34 27 24 22 20 20 20 20 21 21 20 19 20 22 22 29
22 20 19 18 19 19 20 21 22 24 25 25 25 23 21 17 29 36 42 43 41 43 36 37 36 34 30 31 22 15 14 18 19 19 20 21 22 20 21 23 22 20 27
24 19 18 17 18 19 20 19 17 18 16 23 27 30 32 32 29 29 40 37 36 40 36 35 38 23 19 31 12 10 2 4 16 19 20 21 22 22 22 22 23 22 25
26 23 20 18 18 19 21 24 25 24 21 19 22 28 30 28 28 28 33 39 36 39 38 34 25 21 15 18 17 8 2 4 3 14 23 24 25 23 23 22 24 23 23
27 23 20 19 19 18 21 22 22 18 20 23 26 29 35 38 38 34 29 39 42 39 39 39 40 24 31 31 15 26 9 7 3 3 7 23 27 26 24 23 24 23 21
26 23 20 21 20 22 22 21 21 20 21 24 26 29 33 34 36 32 33 31 42 40 40 43 38 31 39 34 23 35 27 13 10 3 3 5 20 27 27 27 25 25 24
23 19 19 22 22 23 25 23 22 23 25 25 27 29 30 30 34 34 31 31 34 42 40 40 40 39 37 33 37 37 32 22 14 5 3 3 9 15 26 28 26 27 26

GFSSE_925_spd_114.txt.gz
Wind_Speed
9 18 22 24 24 24 24 24 24 22 20 19 18 17 17 16 17 19 20 19 20 21 20 21 21 20 15 9 6 7 8 6 5 6 8 10 14 15 19 20 20 20 20
8 15 20 21 22 23 23 24 23 21 20 18 18 17 17 16 16 17 17 17 18 19 18 19 19 17 14 9 5 4 6 5 7 8 9 11 16 19 18 18 19 19 21
8 13 19 20 20 20 20 21 21 20 19 19 19 18 18 17 16 16 16 16 16 16 16 16 16 15 14 11 7 5 5 5 6 8 10 13 18 19 16 16 18 20 20
10 12 16 21 20 20 19 18 17 17 16 16 18 19 19 18 17 16 16 16 16 15 14 15 15 14 13 11 9 7 5 6 6 9 11 13 19 19 14 15 17 19 21
10 14 16 19 19 19 19 18 16 15 15 15 16 17 19 18 18 17 17 16 15 14 13 13 12 11 10 9 8 7 6 7 7 11 10 11 14 16 15 17 18 18 20
8 14 16 18 21 21 19 18 17 15 15 15 16 17 19 20 19 18 18 17 17 15 12 11 11 11 10 9 8 7 7 7 8 9 10 11 15 15 13 16 17 17 18
8 13 16 16 21 23 21 19 17 16 15 16 16 18 19 20 20 19 18 18 17 16 14 12 12 11 10 9 9 8 8 9 10 8 9 11 11 13 13 16 16 17 18
9 11 16 14 16 22 22 20 18 17 17 17 17 19 20 21 21 20 19 19 19 17 16 15 13 12 11 10 10 9 9 10 11 9 10 11 9 16 16 16 16 18 18
7 12 15 16 15 17 20 21 20 19 18 18 18 20 21 22 23 21 20 20 20 20 18 17 15 13 11 10 10 10 11 11 11 11 11 8 15 12 17 19 19 19 20
12 13 14 16 16 15 19 21 20 20 19 19 19 20 21 22 23 23 22 22 22 22 20 19 17 14 13 12 11 11 11 12 13 12 13 9 14 13 20 19 18 20 22
15 15 16 16 17 15 14 21 22 22 20 19 19 20 20 22 23 23 24 23 23 23 23 22 20 17 15 14 13 13 13 13 13 14 15 13 15 14 17 17 19 22 23
17 17 17 17 18 17 14 18 25 24 23 22 22 22 23 23 24 25 24 24 24 25 25 24 22 19 18 17 15 15 15 15 15 14 15 17 19 20 17 18 20 24 23
7 21 20 17 16 15 14 15 22 24 24 23 23 24 24 24 24 25 25 26 26 26 26 26 25 23 22 20 19 17 16 17 17 16 16 17 21 21 19 18 21 24 26
5 15 21 14 14 14 12 13 15 22 24 24 24 24 25 26 26 27 28 28 28 29 30 30 29 28 26 24 22 21 19 18 18 17 17 17 19 21 21 22 23 25 25
10 13 12 10 7 9 10 12 14 19 22 25 26 26 27 27 28 29 29 29 30 31 32 33 33 32 30 27 25 24 22 20 17 16 20 21 22 23 22 22 23 24 25
25 27 22 18 13 12 5 2 8 12 16 20 24 28 29 30 31 32 32 32 32 32 33 34 35 35 34 30 28 27 26 23 20 18 17 19 21 19 24 22 22 23 25
29 26 22 19 14 13 11 9 9 6 9 12 18 25 28 33 33 34 35 37 36 35 34 33 34 34 35 33 32 30 28 25 23 21 19 21 20 21 23 22 21 22 24
32 28 22 16 13 11 10 10 10 9 9 8 10 14 18 27 33 36 36 37 36 35 37 36 36 35 34 34 33 30 28 26 26 26 23 21 23 22 23 22 20 21 24
28 25 23 18 16 14 13 12 11 12 12 12 11 10 10 12 20 32 34 34 32 39 37 38 36 36 33 34 34 32 29 28 27 25 25 23 23 24 24 22 19 19 24
28 25 23 21 20 17 15 17 16 15 15 18 19 18 17 15 16 18 30 36 36 38 37 37 33 36 35 36 32 32 29 29 27 26 26 24 23 25 26 24 22 20 21
31 30 27 24 24 23 24 25 27 26 27 22 22 23 23 22 19 18 20 26 34 37 40 42 37 28 29 34 22 21 27 28 27 28 26 26 26 26 26 25 24 23 24
31 29 27 25 22 21 21 19 14 23 19 24 22 24 23 23 24 24 21 19 25 32 35 32 35 32 31 31 19 11 4 6 21 25 24 26 29 28 28 26 26 25 25
30 28 26 24 21 20 20 21 22 19 20 20 28 28 26 27 27 27 29 27 24 23 32 32 35 37 30 16 16 5 5 3 1 10 23 30 31 30 27 27 26 26 25
27 29 26 22 23 21 21 22 23 17 16 19 23 25 30 29 29 28 27 29 28 30 27 32 34 34 31 21 14 12 18 8 3 2 9 26 30 32 30 30 29 28 26
27 27 22 22 28 22 21 20 19 20 21 24 22 21 23 24 26 28 28 27 28 31 33 30 31 32 34 29 25 18 24 30 23 4 4 6 22 28 33 33 32 31 27
22 22 20 23 32 25 21 20 16 18 22 24 23 24 22 23 24 24 25 27 27 27 32 30 36 35 38 38 31 26 25 24 18 7 3 5 12 18 26 32 33 31 29

GFSSE_925_spd_117.txt.gz
Wind_Speed
6 25 24 24 24 24 24 24 24 23 22 21 21 22 23 23 22 21 21 21 22 23 21 21 22 19 15 11 10 9 7 5 4 6 7 8 10 14 16 19 19 20 19
12 23 24 23 23 23 22 22 21 21 20 19 19 20 21 22 23 23 21 21 21 21 21 21 21 18 14 10 7 6 5 5 6 8 8 9 12 14 17 18 19 18 19
15 21 24 23 22 20 20 20 20 19 19 19 18 18 20 21 22 21 20 21 21 20 20 20 19 17 13 10 7 5 5 5 6 9 9 12 15 15 16 17 18 18 17
14 18 23 23 22 21 20 19 19 19 19 19 19 19 18 19 19 19 20 20 20 19 18 18 17 15 13 10 8 6 6 6 7 9 10 13 15 14 15 17 19 19 18
13 15 19 22 22 22 22 20 19 18 18 19 19 19 19 19 18 18 19 19 19 18 17 17 16 14 13 11 9 8 7 8 9 10 12 13 16 11 12 16 18 18 18
13 15 15 19 19 20 20 20 19 18 18 18 20 20 21 20 20 19 19 19 18 17 16 16 15 14 13 11 11 10 10 10 11 12 11 12 15 13 12 14 16 19 19
14 15 16 16 18 19 20 20 19 18 18 19 19 21 22 21 21 20 20 19 18 18 16 16 15 14 13 12 11 11 11 11 12 12 13 12 15 15 14 15 18 19 18
11 14 15 14 15 18 20 20 19 19 18 19 20 21 22 23 22 21 20 20 19 18 17 16 16 14 13 12 12 11 11 11 11 11 12 12 16 14 16 17 18 17 17
10 12 15 16 15 16 20 21 20 20 20 19 20 22 22 23 23 22 21 21 20 19 18 17 16 14 14 13 12 12 12 12 12 10 11 12 15 15 17 18 17 18 18
9 12 14 17 16 16 19 22 22 21 21 21 21 22 23 23 24 24 23 22 21 21 20 19 18 16 15 14 14 13 14 14 14 13 12 12 11 14 17 18 18 19 19
12 13 15 16 17 16 16 19 22 22 21 21 21 22 22 24 25 26 25 24 23 23 23 21 20 18 16 15 14 14 15 16 16 16 15 14 12 18 15 20 20 20 20
17 17 16 16 17 16 15 16 19 22 21 21 21 22 23 24 26 26 26 24 24 24 23 23 21 20 18 18 17 16 17 17 17 18 18 17 16 16 16 20 22 22 22
22 20 21 20 18 16 15 14 17 22 22 21 20 22 24 23 24 25 26 27 26 25 24 25 24 24 23 21 20 19 19 19 19 20 19 18 19 19 18 20 20 21 22
22 21 21 18 16 15 13 12 14 18 21 21 21 21 21 22 24 26 29 28 28 28 28 28 28 28 26 25 23 22 21 21 21 21 21 20 20 21 20 20 19 20 21
14 14 17 13 13 11 9 8 8 15 18 20 21 22 23 24 25 25 26 27 30 30 30 30 30 31 30 28 26 25 24 23 22 23 23 22 21 22 21 21 21 20 21
18 23 22 20 16 14 11 8 5 4 3 12 17 21 24 27 28 28 28 27 30 30 31 32 33 33 33 32 30 29 27 26 25 24 23 25 25 25 25 24 22 21 23
26 28 26 22 18 15 13 10 6 4 2 2 4 5 13 24 30 31 30 32 33 32 32 31 32 31 31 33 35 34 32 31 29 27 26 24 26 27 27 28 27 24 25
26 24 22 20 17 14 10 7 6 5 5 5 4 6 9 14 13 18 33 35 36 36 32 31 32 30 29 28 29 35 36 34 32 31 30 29 28 27 27 26 27 26 25
21 23 22 18 15 11 8 5 3 4 6 7 5 6 6 8 12 15 17 24 33 35 33 24 30 31 24 28 28 27 35 36 33 33 35 33 30 29 29 28 29 27 25
17 19 20 18 15 11 9 7 6 5 9 9 12 11 12 13 13 14 14 14 16 24 25 32 41 30 21 31 27 25 31 34 33 34 35 35 33 30 29 30 29 27 24
18 20 21 21 19 16 13 10 7 17 11 14 13 16 16 16 17 19 19 19 15 15 21 23 29 29 25 34 19 16 19 27 28 32 35 35 34 31 30 30 30 27 26
19 19 22 23 22 21 19 16 12 12 9 12 15 17 19 21 21 20 20 21 20 20 17 18 24 22 23 30 20 12 5 10 19 24 27 32 33 30 31 31 32 28 26
21 20 21 21 21 23 22 19 15 10 16 18 24 23 23 24 24 22 21 20 21 19 21 21 18 24 20 19 27 11 2 4 4 17 25 30 31 29 32 33 35 32 29
18 21 24 24 24 25 23 22 20 16 9 14 23 24 25 24 25 26 24 22 21 20 20 24 24 22 24 17 14 24 20 10 3 2 8 18 36 31 35 35 36 35 31
22 18 23 27 29 26 24 22 17 15 13 14 16 22 22 22 24 24 25 23 21 19 19 20 24 26 27 26 23 12 13 16 13 3 4 5 18 35 41 39 39 39 37
22 18 25 23 28 26 27 23 21 19 19 19 18 19 20 22 24 24 25 25 26 26 24 22 23 27 28 32 30 30 23 11 9 5 4 6 13 24 30 35 43 42 39

GFSSE_925_spd_120.txt.gz
Wind_Speed
6 18 20 22 23 22 21 21 22 23 24 26 27 26 25 24 24 22 23 23 23 21 20 20 19 17 14 13 12 10 7 6 6 6 6 8 10 12 14 16 18 18 17
5 22 22 22 23 22 20 21 21 22 22 24 26 26 25 24 24 22 22 22 23 21 20 21 19 17 13 11 9 7 6 6 7 6 7 8 10 12 15 13 16 18 17
12 22 24 24 23 21 20 19 19 20 21 22 24 25 24 23 23 22 22 22 22 22 21 21 20 16 12 9 7 5 5 5 7 7 8 9 11 12 15 14 14 16 20
14 19 22 22 22 22 21 19 18 18 19 21 22 23 24 24 23 22 22 22 22 22 22 20 18 16 13 10 8 6 5 6 7 8 8 10 13 12 13 15 15 16 19
12 17 22 23 21 20 20 19 18 17 18 19 20 21 23 24 24 23 22 22 22 21 20 19 18 16 15 12 9 8 7 7 8 8 9 11 12 11 13 15 16 16 17
12 14 18 21 21 20 20 19 18 16 16 17 18 20 22 23 23 23 23 22 22 20 20 19 18 17 15 12 11 10 9 8 9 9 10 11 13 11 12 15 15 17 17
8 11 14 17 19 21 21 20 20 18 17 18 19 20 22 22 23 22 22 22 22 20 19 19 18 17 15 14 13 12 11 10 10 12 10 10 12 12 10 13 15 16 16
8 11 12 14 16 18 20 20 21 21 20 19 20 21 22 23 23 23 23 23 22 21 19 19 18 17 15 14 14 13 12 12 12 12 12 12 12 13 12 12 15 16 18
8 11 13 16 17 16 17 19 19 19 19 19 20 21 22 23 23 23 24 23 22 21 20 19 18 17 15 14 14 14 14 13 13 14 13 14 13 16 13 13 16 17 19
10 14 16 19 19 18 18 19 19 19 18 18 19 20 21 22 23 23 23 23 22 22 21 19 19 17 16 15 15 15 15 14 14 15 14 14 13 16 16 15 18 18 19
13 15 17 19 18 17 17 18 19 19 19 19 19 20 20 22 23 23 23 23 23 23 22 21 20 19 17 16 16 16 16 17 18 17 17 15 14 14 16 18 20 19 20
20 20 19 19 20 18 16 16 17 18 19 20 20 20 21 22 24 24 25 24 23 23 23 22 21 20 19 18 18 17 18 19 19 20 19 17 16 14 18 16 21 21 20
25 25 22 20 20 18 17 15 14 15 18 19 19 19 20 19 19 22 24 25 24 24 25 24 23 23 22 21 20 20 20 21 21 21 21 20 19 18 17 18 19 21 21
27 25 23 21 20 18 16 15 12 12 15 18 19 17 17 18 18 19 20 23 26 27 27 27 28 27 25 25 23 22 22 23 23 24 23 21 21 20 20 20 20 20 23
23 22 22 20 20 17 15 12 9 8 10 14 17 17 16 17 19 19 20 20 22 24 29 29 29 30 30 29 27 26 25 25 25 25 25 24 23 23 23 22 21 20 21
19 20 20 22 24 21 17 14 11 9 8 11 14 15 13 14 16 16 18 20 23 23 24 30 32 31 28 27 30 30 28 28 27 27 27 27 26 25 25 26 24 21 21
3 8 15 18 20 20 18 15 13 11 9 6 6 4 8 13 14 10 16 24 23 23 25 28 31 31 29 25 25 28 31 30 29 29 29 29 28 28 27 27 27 25 24
14 11 9 11 12 15 15 14 13 11 9 7 3 3 5 6 8 12 10 8 18 28 29 30 29 27 30 28 27 28 29 33 34 33 31 31 30 29 28 29 28 29 27
16 15 13 10 9 8 11 12 11 9 7 5 3 2 1 3 5 8 12 16 18 12 23 31 31 27 25 24 26 24 30 30 33 35 36 35 31 28 26 26 29 29 30
20 18 16 15 13 8 5 8 11 9 7 5 4 4 5 6 8 8 9 10 10 12 17 17 25 32 27 21 23 19 29 25 29 32 33 34 33 30 28 27 26 29 29
26 24 24 21 21 19 12 5 2 5 8 8 8 7 7 9 10 12 12 12 11 11 13 13 16 23 27 30 18 18 27 21 19 29 28 31 35 31 27 28 28 28 31
29 30 28 25 24 21 20 14 6 4 5 6 11 10 12 11 11 12 14 14 12 13 14 14 11 13 20 25 18 15 7 18 28 34 25 27 36 26 30 31 32 32 33
28 27 27 28 28 28 21 20 12 4 2 6 16 15 17 14 14 14 14 15 14 13 13 15 15 17 12 14 24 10 2 4 6 21 34 33 36 39 37 28 31 34 37
24 24 26 24 31 26 26 21 18 12 9 13 15 17 17 16 16 14 13 13 14 14 14 14 15 17 17 15 15 28 29 4 3 2 9 29 36 38 35 39 38 40 40
24 23 23 25 30 25 27 23 20 14 16 15 17 18 17 19 18 17 16 15 16 14 15 15 16 16 18 20 20 13 21 22 16 3 3 6 23 35 42 44 44 47 48
20 23 24 25 25 31 30 26 24 21 19 18 18 19 21 19 18 19 19 19 19 16 16 17 18 20 20 21 24 23 23 10 7 6 2 3 12 22 40 45 41 37 42

GFSSE_925_spd_123.txt.gz
Wind_Speed
11 16 18 19 19 19 20 21 21 23 23 24 26 25 24 24 24 24 25 24 24 23 21 19 17 15 14 14 12 10 7 6 6 7 8 9 11 12 14 16 15 14 14
7 20 21 20 20 18 19 18 19 19 23 25 25 26 25 25 24 23 24 24 23 22 21 20 19 16 15 13 10 8 7 7 7 7 8 9 10 12 14 16 17 15 14
11 21 21 21 21 20 18 17 17 18 20 24 24 25 24 24 24 23 24 23 23 22 21 21 19 17 14 11 9 7 7 8 7 8 9 9 10 12 14 14 16 17 14
12 19 20 21 21 20 19 18 17 17 19 22 23 23 23 24 24 23 23 23 23 23 21 21 19 17 14 12 10 7 7 8 8 8 9 9 10 12 13 14 15 17 18
10 15 18 19 19 20 18 17 17 18 18 20 21 22 23 23 24 23 23 23 24 24 22 21 20 18 16 13 11 9 8 8 8 8 9 10 10 11 13 13 13 16 18
6 11 15 17 18 19 19 18 18 17 18 19 20 21 23 23 23 23 23 23 24 24 23 21 21 19 17 14 12 10 9 10 9 8 9 11 10 10 10 12 14 16 18
4 8 12 16 18 18 19 19 19 18 18 19 20 20 22 23 24 23 24 24 23 23 22 22 21 19 17 15 13 11 10 10 9 8 9 10 11 11 11 12 14 15 17
5 8 11 14 18 20 21 20 20 19 19 18 19 21 22 22 23 23 23 23 23 23 22 22 21 19 17 16 13 12 11 10 10 9 8 9 11 13 12 12 15 15 16
7 9 11 14 17 19 20 22 22 21 20 18 18 20 21 22 22 22 23 23 23 22 21 21 20 19 18 16 14 14 12 12 10 11 11 11 11 14 14 13 15 17 17
9 11 12 14 17 19 19 19 19 19 19 20 19 19 20 21 22 23 23 23 23 22 21 20 20 19 18 16 15 14 13 13 12 12 12 12 13 14 16 14 17 19 19
14 14 15 16 17 18 18 18 18 19 18 18 18 19 20 20 20 21 23 24 24 23 22 21 20 19 18 16 15 15 15 13 13 13 13 15 14 13 16 15 17 19 19
21 20 19 17 18 18 18 17 17 17 17 18 19 18 19 22 22 20 21 24 24 23 22 21 19 19 18 15 15 17 16 14 14 14 15 17 15 15 16 18 18 20 20
24 24 18 20 20 20 19 17 16 15 16 17 17 18 19 19 19 21 21 21 20 22 20 21 20 20 19 17 17 17 16 16 15 14 15 17 17 17 17 19 20 21 22
21 23 21 19 21 21 20 19 17 15 15 15 16 16 16 19 20 22 18 18 20 21 19 19 20 22 22 21 19 20 21 18 15 14 16 18 19 19 20 19 20 19 24
19 19 16 13 19 21 20 20 16 13 13 13 13 14 15 17 19 19 19 19 20 17 20 21 22 22 25 27 25 21 21 21 20 17 20 20 20 21 21 21 20 21 22
15 12 10 7 10 13 18 20 16 15 13 10 10 11 13 15 15 15 16 17 19 22 23 23 24 23 24 27 28 30 24 21 21 23 20 21 22 22 23 22 20 21 21
16 15 14 8 3 8 7 11 13 14 13 12 10 11 12 12 15 17 16 17 19 19 21 24 27 27 23 24 28 30 31 31 25 25 25 24 21 23 24 24 24 22 22
19 21 18 16 11 7 5 5 6 7 9 9 9 9 8 10 11 10 10 13 17 18 20 23 25 26 28 25 25 26 31 33 34 30 25 28 24 22 23 24 25 25 25
21 22 22 22 19 11 8 6 5 5 4 3 3 4 4 4 6 7 9 12 15 14 12 15 24 28 25 26 27 23 25 28 28 28 17 28 30 29 26 26 25 26 28
23 23 23 23 22 16 10 6 6 8 7 5 5 4 2 3 4 6 7 9 10 11 13 17 19 20 30 26 21 21 23 24 23 27 13 24 29 32 32 29 28 28 28
26 26 26 26 26 22 19 13 8 10 10 11 11 11 8 7 5 5 6 7 9 10 12 13 15 16 20 22 21 25 36 28 30 31 33 29 29 28 32 32 29 33 32
24 25 26 24 23 23 17 16 10 11 8 10 14 13 14 13 10 7 6 7 7 7 10 11 11 10 12 19 12 8 3 19 34 35 27 29 34 29 32 33 30 36 33
23 22 22 22 21 21 18 15 16 11 15 15 17 16 17 15 14 10 9 8 9 8 8 11 11 12 13 11 27 10 3 6 9 22 33 31 33 35 37 36 38 40 36
18 18 20 19 20 20 19 19 19 15 18 20 18 17 16 15 15 13 13 11 11 11 10 10 11 11 11 15 15 29 26 8 4 4 13 26 35 34 38 42 38 47 40
13 15 18 17 18 19 19 20 17 21 17 18 17 16 15 13 14 15 14 14 14 14 13 12 12 14 15 14 19 13 18 22 21 5 5 7 22 28 30 37 39 37 38
17 18 15 16 17 22 24 24 24 17 15 17 21 19 20 19 17 16 18 15 15 15 16 16 15 15 17 19 20 21 22 13 12 11 9 8 11 21 33 34 36 37 38